[[{"header":{"parameterUnit":"m.s-1","parameterCategory":1,"la1":30.6,"la2":29.2853,"lo1":-89.7004,"lo2":-87.6739,"dx":0.0162,"dy":0.0183,"nx":112,"ny":82,"refTime":"2022-12-06T06:00:00:Z","depth":0,"parameterNumber":2,"parameterNumberName":"U-component_of_WINDS"},"data":[0.0,0.0,0.0,0.0,0.0,0.0,0.0,0.0,0.0,0.0,0.0,0.0,0.0,0.0,0.0,0.0,0.0,0.0,0.0,0.0,0.0,0.0,0.0,0.0,0.0,0.0,0.0,0.0,0.0,0.0,0.0,0.0,0.0,0.0,0.0,0.0,0.0,0.0,0.0,0.0,0.0,0.0,0.0,0.0,0.0,0.0,0.0,0.0,0.0,0.0,0.0,0.0,0.0,0.0,0.0,0.0,0.0,0.0,0.0,0.0,0.0,0.0,0.0,0.0,0.0,0.0,0.0,0.0,0.0,0.0,0.0,0.0,0.0,0.0,0.0,0.0,0.0,0.0,0.0,0.0,0.0,0.0,0.0,0.0,0.0,0.0,0.0,0.0,0.0,0.0,-3.1211,-3.3164,-3.7382,-4.0305,-4.0929,-3.9539,-3.6464,-3.128,0.0,0.0,0.0,0.0,0.0,0.0,0.0,0.0,0.0,0.0,0.0,0.0,0.0,0.0,0.0,0.0,0.0,0.0,0.0,0.0,0.0,0.0,0.0,0.0,0.0,0.0,0.0,0.0,0.0,0.0,0.0,0.0,0.0,0.0,0.0,0.0,0.0,0.0,0.0,0.0,0.0,0.0,0.0,0.0,0.0,0.0,0.0,0.0,0.0,0.0,0.0,0.0,0.0,0.0,0.0,0.0,0.0,0.0,0.0,0.0,0.0,0.0,0.0,0.0,0.0,0.0,0.0,0.0,0.0,0.0,0.0,0.0,0.0,0.0,0.0,0.0,0.0,0.0,0.0,0.0,0.0,0.0,0.0,0.0,0.0,0.0,0.0,0.0,0.0,0.0,0.0,0.0,0.0,0.0,0.0,0.0,0.0,0.0,0.0,0.0,0.0,0.0,0.0,0.0,-3.1208,-3.8008,-3.9989,-4.0849,-4.085,-4.0544,-3.8125,-3.2869,0.0,0.0,0.0,0.0,0.0,0.0,0.0,0.0,0.0,0.0,0.0,0.0,0.0,0.0,0.0,0.0,0.0,0.0,0.0,0.0,0.0,0.0,0.0,0.0,0.0,0.0,0.0,0.0,0.0,0.0,0.0,0.0,0.0,0.0,0.0,0.0,0.0,0.0,0.0,0.0,0.0,0.0,0.0,0.0,0.0,0.0,0.0,0.0,0.0,0.0,0.0,0.0,0.0,0.0,0.0,0.0,0.0,0.0,0.0,0.0,0.0,0.0,0.0,0.0,0.0,0.0,0.0,0.0,0.0,0.0,0.0,0.0,0.0,0.0,0.0,0.0,0.0,0.0,0.0,0.0,0.0,0.0,0.0,0.0,0.0,0.0,0.0,0.0,0.0,0.0,0.0,0.0,0.0,0.0,0.0,0.0,0.0,0.0,0.0,0.0,0.0,0.0,0.0,-3.0427,-3.3786,-3.9207,-4.0521,-4.0936,-4.0777,-4.0738,-3.8284,-3.2596,-2.9544,0.0,0.0,0.0,0.0,0.0,0.0,0.0,0.0,0.0,0.0,0.0,0.0,0.0,0.0,0.0,0.0,0.0,0.0,0.0,0.0,0.0,0.0,0.0,0.0,0.0,0.0,0.0,0.0,0.0,0.0,0.0,0.0,0.0,0.0,0.0,0.0,0.0,0.0,0.0,0.0,0.0,0.0,0.0,0.0,0.0,0.0,0.0,0.0,0.0,0.0,0.0,0.0,0.0,0.0,0.0,0.0,0.0,0.0,0.0,0.0,0.0,0.0,0.0,0.0,0.0,0.0,0.0,0.0,0.0,0.0,0.0,0.0,0.0,0.0,0.0,0.0,0.0,0.0,0.0,0.0,0.0,0.0,0.0,0.0,0.0,0.0,0.0,0.0,0.0,0.0,0.0,0.0,0.0,0.0,0.0,0.0,0.0,0.0,0.0,0.0,0.0,0.0,-3.4725,-3.6945,-3.973,-4.0752,-4.1108,-4.0721,-4.0667,-3.8163,-3.2359,-3.0006,0.0,0.0,0.0,0.0,0.0,0.0,0.0,0.0,0.0,0.0,0.0,0.0,0.0,0.0,0.0,0.0,0.0,0.0,0.0,0.0,0.0,0.0,0.0,0.0,0.0,0.0,0.0,0.0,0.0,0.0,0.0,0.0,0.0,0.0,0.0,0.0,0.0,0.0,0.0,0.0,0.0,0.0,0.0,0.0,0.0,0.0,0.0,0.0,0.0,0.0,0.0,0.0,0.0,0.0,0.0,0.0,0.0,0.0,0.0,0.0,0.0,0.0,0.0,0.0,0.0,0.0,0.0,0.0,0.0,0.0,0.0,0.0,0.0,0.0,0.0,0.0,0.0,0.0,0.0,0.0,0.0,0.0,0.0,0.0,0.0,0.0,0.0,0.0,0.0,0.0,0.0,0.0,0.0,0.0,0.0,0.0,0.0,0.0,0.0,0.0,0.0,0.0,-3.6432,-3.9769,-4.0781,-4.1535,-4.1612,-4.0775,-4.0595,-3.8299,-3.3122,-2.9775,0.0,0.0,0.0,0.0,0.0,0.0,0.0,0.0,0.0,0.0,0.0,0.0,0.0,0.0,0.0,0.0,0.0,0.0,0.0,0.0,0.0,0.0,0.0,0.0,0.0,0.0,0.0,0.0,0.0,0.0,0.0,0.0,0.0,0.0,0.0,0.0,0.0,0.0,0.0,0.0,0.0,0.0,0.0,0.0,0.0,0.0,0.0,0.0,0.0,0.0,0.0,0.0,0.0,0.0,0.0,0.0,0.0,0.0,0.0,0.0,0.0,0.0,0.0,0.0,0.0,0.0,0.0,0.0,0.0,0.0,0.0,0.0,0.0,0.0,0.0,0.0,0.0,0.0,0.0,0.0,0.0,0.0,0.0,0.0,0.0,0.0,0.0,0.0,0.0,0.0,0.0,0.0,0.0,0.0,0.0,0.0,0.0,0.0,0.0,0.0,0.0,0.0,-3.5219,-3.8458,-4.138,-4.1859,-4.2048,-4.2208,-4.1663,-3.9123,-3.4045,0.0,0.0,0.0,0.0,0.0,0.0,0.0,0.0,0.0,0.0,0.0,0.0,0.0,0.0,0.0,0.0,0.0,0.0,0.0,0.0,0.0,0.0,0.0,0.0,0.0,0.0,0.0,0.0,0.0,0.0,0.0,0.0,0.0,0.0,0.0,0.0,0.0,0.0,0.0,0.0,0.0,0.0,0.0,0.0,0.0,0.0,0.0,0.0,0.0,0.0,0.0,0.0,0.0,0.0,0.0,0.0,0.0,0.0,0.0,0.0,0.0,0.0,0.0,0.0,0.0,0.0,0.0,0.0,0.0,0.0,0.0,0.0,0.0,0.0,0.0,0.0,0.0,0.0,0.0,0.0,0.0,0.0,0.0,0.0,0.0,0.0,0.0,0.0,0.0,0.0,0.0,0.0,0.0,0.0,0.0,0.0,0.0,0.0,0.0,0.0,0.0,0.0,-3.1914,-3.5441,-3.8653,-4.175,-4.2249,-4.2539,-4.3055,-4.2316,-3.9508,-3.4122,0.0,0.0,0.0,0.0,0.0,0.0,0.0,0.0,0.0,0.0,0.0,0.0,0.0,0.0,0.0,0.0,0.0,0.0,0.0,0.0,0.0,0.0,0.0,0.0,0.0,0.0,0.0,0.0,0.0,0.0,0.0,0.0,0.0,0.0,0.0,0.0,0.0,0.0,0.0,0.0,0.0,0.0,0.0,0.0,0.0,0.0,0.0,0.0,0.0,0.0,0.0,0.0,0.0,0.0,0.0,0.0,0.0,0.0,0.0,0.0,0.0,0.0,0.0,0.0,0.0,0.0,0.0,0.0,0.0,0.0,0.0,0.0,0.0,0.0,0.0,0.0,0.0,0.0,0.0,0.0,0.0,0.0,0.0,0.0,0.0,0.0,0.0,0.0,0.0,0.0,0.0,0.0,0.0,0.0,0.0,0.0,0.0,0.0,0.0,0.0,0.0,0.0,-3.2969,-3.7754,-4.1167,-4.2019,-4.2692,-4.3124,-4.3124,-4.2316,-3.9277,0.0,0.0,0.0,0.0,0.0,0.0,0.0,0.0,0.0,0.0,0.0,0.0,0.0,0.0,0.0,0.0,0.0,0.0,0.0,0.0,0.0,0.0,0.0,0.0,0.0,0.0,0.0,0.0,0.0,0.0,0.0,0.0,0.0,0.0,0.0,0.0,0.0,0.0,0.0,0.0,0.0,0.0,0.0,0.0,0.0,0.0,0.0,0.0,0.0,0.0,0.0,0.0,0.0,0.0,0.0,0.0,0.0,0.0,0.0,0.0,0.0,0.0,0.0,0.0,0.0,0.0,0.0,0.0,0.0,0.0,0.0,0.0,0.0,0.0,0.0,0.0,0.0,0.0,0.0,0.0,0.0,0.0,0.0,0.0,0.0,0.0,0.0,0.0,0.0,0.0,0.0,0.0,0.0,0.0,0.0,0.0,0.0,0.0,0.0,0.0,0.0,0.0,0.0,-3.2969,-3.8259,-4.2058,-4.2905,-4.3581,-4.4201,-4.4825,-4.4047,-4.0777,-3.4244,0.0,0.0,0.0,0.0,0.0,0.0,0.0,0.0,0.0,0.0,0.0,0.0,0.0,0.0,0.0,0.0,0.0,0.0,0.0,0.0,0.0,0.0,0.0,0.0,0.0,0.0,0.0,0.0,0.0,0.0,0.0,0.0,0.0,0.0,0.0,0.0,0.0,0.0,0.0,0.0,0.0,0.0,0.0,0.0,0.0,0.0,0.0,0.0,0.0,0.0,0.0,0.0,0.0,0.0,0.0,0.0,0.0,0.0,0.0,0.0,0.0,0.0,0.0,0.0,0.0,0.0,0.0,0.0,0.0,0.0,0.0,0.0,0.0,0.0,0.0,0.0,0.0,0.0,0.0,0.0,0.0,0.0,0.0,0.0,0.0,0.0,0.0,0.0,0.0,0.0,0.0,0.0,0.0,0.0,0.0,0.0,0.0,0.0,0.0,0.0,0.0,0.0,-3.3351,-3.8667,-4.2542,-4.3689,-4.4119,-4.4662,-4.5518,-4.4778,-4.1854,-3.6084,0.0,0.0,0.0,0.0,0.0,0.0,0.0,0.0,0.0,0.0,0.0,0.0,0.0,0.0,0.0,0.0,0.0,0.0,0.0,0.0,0.0,0.0,0.0,0.0,0.0,0.0,0.0,0.0,0.0,0.0,0.0,0.0,0.0,0.0,0.0,0.0,0.0,0.0,0.0,0.0,0.0,0.0,0.0,0.0,0.0,0.0,0.0,0.0,0.0,0.0,0.0,0.0,0.0,0.0,0.0,0.0,0.0,0.0,0.0,0.0,0.0,0.0,0.0,0.0,0.0,0.0,0.0,0.0,0.0,0.0,0.0,0.0,0.0,0.0,0.0,0.0,0.0,0.0,0.0,0.0,0.0,0.0,0.0,0.0,0.0,0.0,0.0,0.0,0.0,0.0,0.0,0.0,0.0,0.0,0.0,0.0,0.0,0.0,0.0,0.0,0.0,0.0,-3.3969,-3.9094,-4.2903,-4.4344,-4.4438,-4.4739,-4.5518,-4.4902,-4.2624,-3.8392,0.0,0.0,0.0,0.0,0.0,0.0,0.0,0.0,0.0,0.0,0.0,0.0,0.0,0.0,0.0,0.0,0.0,0.0,0.0,0.0,0.0,0.0,0.0,0.0,0.0,0.0,0.0,0.0,0.0,0.0,0.0,0.0,0.0,0.0,0.0,0.0,0.0,0.0,0.0,0.0,0.0,0.0,0.0,0.0,0.0,0.0,0.0,0.0,0.0,0.0,0.0,0.0,0.0,0.0,0.0,0.0,0.0,0.0,0.0,0.0,-2.4123,0.0,0.0,0.0,0.0,0.0,0.0,0.0,0.0,0.0,0.0,0.0,0.0,0.0,0.0,0.0,0.0,0.0,0.0,0.0,0.0,0.0,0.0,0.0,0.0,0.0,0.0,0.0,0.0,0.0,0.0,0.0,0.0,0.0,0.0,0.0,0.0,0.0,0.0,0.0,0.0,0.0,-3.4149,-4.0159,-4.4224,-4.446,-4.4978,-4.5402,-4.5594,-4.5441,-4.3517,-3.9284,-3.7353,0.0,0.0,0.0,0.0,0.0,0.0,0.0,0.0,0.0,0.0,0.0,0.0,0.0,0.0,0.0,0.0,0.0,0.0,0.0,0.0,0.0,0.0,0.0,0.0,0.0,0.0,0.0,0.0,0.0,0.0,0.0,0.0,0.0,0.0,0.0,0.0,0.0,0.0,0.0,0.0,0.0,0.0,0.0,0.0,0.0,0.0,0.0,0.0,0.0,0.0,0.0,0.0,0.0,0.0,0.0,0.0,0.0,0.0,0.0,0.0,-2.6516,0.0,0.0,0.0,0.0,0.0,0.0,0.0,0.0,0.0,0.0,0.0,0.0,0.0,0.0,0.0,0.0,0.0,0.0,0.0,0.0,0.0,0.0,0.0,0.0,0.0,0.0,0.0,0.0,0.0,0.0,0.0,0.0,0.0,0.0,0.0,0.0,0.0,0.0,0.0,0.0,-3.5197,-4.0868,-4.4703,-4.4993,-4.5384,-4.5594,-4.5594,-4.5594,-4.4479,-4.1854,-3.9354,0.0,0.0,0.0,0.0,0.0,0.0,0.0,0.0,0.0,0.0,0.0,0.0,0.0,0.0,0.0,0.0,0.0,0.0,0.0,0.0,0.0,0.0,0.0,0.0,0.0,0.0,0.0,0.0,0.0,0.0,0.0,0.0,0.0,0.0,0.0,0.0,0.0,0.0,0.0,0.0,0.0,0.0,0.0,0.0,0.0,0.0,0.0,0.0,0.0,0.0,0.0,0.0,0.0,-3.4522,-3.579,-3.7804,-3.7251,-3.8344,-4.0407,-3.6299,-3.4328,-3.3608,-2.8755,0.0,0.0,0.0,0.0,0.0,0.0,0.0,0.0,0.0,0.0,0.0,0.0,0.0,0.0,0.0,0.0,0.0,0.0,0.0,0.0,0.0,0.0,0.0,0.0,-3.6226,-3.6777,0.0,0.0,0.0,0.0,0.0,0.0,0.0,0.0,0.0,0.0,0.0,0.0,-3.6901,-4.1699,-4.4959,-4.5535,-4.5594,-4.5594,-4.5594,-4.5594,-4.5287,-4.4586,-4.1198,-3.8639,0.0,0.0,0.0,0.0,0.0,0.0,0.0,0.0,0.0,0.0,0.0,0.0,0.0,0.0,0.0,0.0,0.0,0.0,0.0,0.0,0.0,0.0,0.0,0.0,0.0,0.0,0.0,0.0,0.0,0.0,0.0,0.0,-2.8044,-2.7501,0.0,0.0,0.0,0.0,0.0,0.0,0.0,0.0,0.0,0.0,0.0,0.0,0.0,-3.134,-3.2442,-3.6362,-3.8414,-3.8724,-4.3712,-4.6296,-4.6644,-4.7199,-4.7453,-4.7411,-4.6048,0.0,-3.6334,-3.3091,0.0,0.0,0.0,0.0,0.0,0.0,0.0,0.0,0.0,0.0,0.0,0.0,0.0,0.0,0.0,0.0,0.0,0.0,0.0,0.0,0.0,0.0,-3.7563,-4.0549,-4.1358,-4.1239,0.0,-3.4889,-3.0133,-3.0021,-2.9346,0.0,0.0,0.0,0.0,0.0,0.0,0.0,-3.949,-4.3283,-4.5631,-4.562,-4.5594,-4.5594,-4.5594,-4.5594,-4.5556,-4.5441,-4.4614,-4.2782,-3.97,-3.7746,0.0,0.0,0.0,0.0,0.0,0.0,0.0,0.0,0.0,0.0,0.0,0.0,0.0,0.0,0.0,0.0,0.0,0.0,0.0,0.0,0.0,0.0,0.0,0.0,0.0,0.0,0.0,0.0,0.0,-2.6123,-2.8421,-2.7566,-2.7211,-2.62,0.0,0.0,0.0,0.0,0.0,0.0,0.0,0.0,0.0,-3.5648,-3.7306,-3.9256,-4.1615,-4.4404,-4.6028,-4.6484,-4.8643,-5.013,-5.1046,-5.0394,-5.0176,-5.0099,-4.8618,-4.6087,-4.2748,-3.8813,-3.5253,-3.2025,0.0,0.0,0.0,0.0,-2.7341,-2.7215,-2.999,-3.0904,-3.0585,-2.9236,0.0,0.0,0.0,0.0,0.0,0.0,0.0,0.0,0.0,0.0,-4.0183,-4.3281,-4.4227,-4.4279,-4.363,-4.104,-3.7916,0.0,-3.3164,-3.0571,-2.5844,0.0,0.0,0.0,0.0,-3.8311,-4.1562,-4.4561,-4.6389,-4.6326,-4.6317,-4.6124,-4.5633,-4.5594,-4.5594,-4.5594,-4.5457,-4.4632,-4.2931,-4.05,-3.6859,0.0,0.0,0.0,0.0,0.0,0.0,0.0,0.0,0.0,0.0,0.0,0.0,0.0,0.0,0.0,0.0,0.0,0.0,0.0,0.0,0.0,0.0,0.0,0.0,0.0,0.0,0.0,0.0,-2.7902,-3.0118,-2.8471,-2.9347,-2.8985,0.0,0.0,0.0,0.0,0.0,0.0,-3.3553,-3.5741,-3.8706,-4.2526,-4.4204,-4.6298,-4.8894,-5.0538,-5.1625,-5.2231,-5.2049,-5.2626,-5.378,-5.2087,-5.1442,-5.1522,-4.9511,-4.8394,-4.7681,-4.3345,-4.0233,-3.7942,-3.5702,-3.3791,-3.2505,-3.4273,-3.4112,-3.3554,-3.7295,-3.8159,-3.7415,-3.6217,-3.5246,-3.4,-3.1021,0.0,0.0,0.0,0.0,-3.1929,-3.6815,-3.9931,-4.2505,-4.5235,-4.6249,-4.6405,-4.5571,-4.5148,-4.3818,0.0,-3.8195,-3.5551,-3.0388,0.0,0.0,0.0,-3.6622,-4.1277,-4.4047,-4.6047,-4.7192,-4.7192,-4.7,-4.6624,-4.597,-4.5748,-4.5594,-4.5594,-4.5532,-4.5371,-4.5126,-4.2891,-4.0133,-3.6881,0.0,0.0,0.0,0.0,0.0,0.0,0.0,0.0,0.0,0.0,0.0,0.0,0.0,0.0,0.0,0.0,0.0,0.0,0.0,0.0,0.0,0.0,0.0,0.0,0.0,0.0,0.0,0.0,0.0,-3.2258,-3.3932,0.0,0.0,0.0,0.0,-3.4861,-3.6003,-3.8026,-4.1272,-4.3002,-4.5138,-4.7843,-4.9495,-5.0414,-5.0568,-5.2241,-5.3087,-5.3164,-5.4703,-5.5472,-5.5511,-5.3857,-5.2861,-5.2412,-5.0317,-4.9205,-4.8559,-4.5282,-4.2898,-4.1159,-3.9792,-3.8223,-3.6901,-3.8623,-3.9199,-3.9391,-4.1562,-4.2303,-4.2309,-4.2623,-3.9805,-3.6453,-3.7311,-3.504,0.0,0.0,-3.7969,-3.9708,-4.3978,-4.521,-4.5778,-4.7529,-4.7737,-4.7503,-4.7453,-4.5706,-4.4501,0.0,-4.6114,-4.5445,-4.2675,0.0,-4.247,-4.2354,-4.2662,-4.4124,-4.7432,-4.7971,-4.8048,-4.8048,-4.7355,-4.6885,-4.6846,-4.6086,-4.5594,-4.5594,-4.5283,-4.5126,-4.5115,-4.4936,-4.2893,-3.868,-3.7186,0.0,0.0,0.0,0.0,0.0,0.0,0.0,0.0,0.0,0.0,0.0,0.0,0.0,0.0,0.0,0.0,0.0,0.0,0.0,0.0,0.0,0.0,0.0,0.0,0.0,0.0,0.0,0.0,-3.5352,-3.7355,0.0,-3.5749,-3.681,-3.8007,-3.8899,-4.1689,-4.417,-4.5964,-4.8089,-5.0162,-5.2223,-5.2858,-5.3395,-5.3895,-5.5049,-5.5626,-5.5665,-5.6819,-5.7088,-5.6483,-5.478,-5.365,-5.285,-5.0773,-4.9645,-4.922,-4.8054,-4.6912,-4.5835,-4.5366,-4.4501,-4.3562,-4.4219,-4.4061,-4.3748,-4.4759,-4.5111,-4.5217,-4.5844,-4.4911,-4.3484,-4.2756,-4.1805,-4.094,-4.0883,-4.2064,-4.3825,-4.5893,-4.724,-4.8202,-4.8779,-4.8827,-4.8613,-4.8038,-4.7301,-4.6972,-4.7779,-4.6594,-4.4651,-4.1992,-4.4202,-4.5393,-4.2662,-4.4586,-4.6971,-4.8702,-4.8933,-4.8933,-4.8933,-4.8663,-4.8086,-4.7,-4.6624,-4.6201,-4.5633,-4.5475,-4.5341,-4.5126,-4.5293,-4.4336,-4.2034,-4.1728,-3.7892,0.0,0.0,0.0,0.0,0.0,0.0,0.0,0.0,0.0,0.0,0.0,0.0,0.0,0.0,0.0,0.0,0.0,0.0,0.0,0.0,0.0,0.0,0.0,0.0,0.0,-3.5485,-3.8443,-3.7841,-4.0459,-4.1693,-4.0051,-4.1978,-4.3561,-4.4092,-4.7218,-4.9603,-5.0722,-5.23,-5.3972,-5.5742,-5.578,-5.6049,-5.6588,-5.7165,-5.7434,-5.7434,-5.8011,-5.8011,-5.7357,-5.5665,-5.4434,-5.3528,-5.14,-5.0215,-4.9673,-4.9547,-4.9171,-4.8711,-4.855,-4.8089,-4.748,-4.748,-4.7168,-4.6783,-4.7346,-4.7694,-4.8018,-4.8491,-4.8356,-4.7907,-4.7133,-4.6807,-4.6464,-4.5393,-4.6146,-4.7414,-4.7856,-4.8904,-4.9817,-4.9817,-4.9817,-4.9644,-4.8931,-4.8694,-4.8688,-4.8813,-4.7339,-4.5598,-4.4134,-4.6614,-4.7674,-4.4414,-4.6817,-4.8971,-4.8971,-4.9471,-4.9817,-4.9817,-4.9586,-4.8933,-4.7855,-4.6858,-4.6234,-4.6047,-4.5677,-4.5362,-4.5263,-4.4834,-4.4144,-4.3139,-4.3047,-3.9546,-3.25,0.0,0.0,0.0,0.0,0.0,0.0,0.0,0.0,0.0,0.0,0.0,0.0,0.0,0.0,0.0,0.0,0.0,0.0,0.0,0.0,0.0,0.0,0.0,-3.4728,-3.8947,-4.1461,-3.9989,-4.3408,-4.523,-4.3649,-4.653,-4.9156,-5.0683,-5.2356,-5.4049,-5.5665,-5.578,-5.6549,-5.8242,-5.8319,-5.8319,-5.8319,-5.8319,-5.8357,-5.8357,-5.8357,-5.8357,-5.828,-5.6511,-5.528,-5.4423,-5.2265,-5.0899,-5.0163,-4.9762,-4.9594,-4.9535,-4.9097,-4.8656,-4.8325,-4.8325,-4.8344,-4.8458,-4.9234,-5.0024,-5.0712,-5.0712,-4.9925,-4.9175,-5.0315,-4.9865,-4.9105,-4.9883,-5.0358,-5.0584,-5.0183,-5.0369,-5.0692,-5.0692,-5.0702,-5.0594,-5.0195,-4.9806,-4.9386,-4.8978,-4.8895,-4.9155,-4.9949,-5.0111,-4.9694,-4.8395,-4.9625,0.0,-4.8394,-4.9663,-5.0673,-5.0596,-4.9856,-4.9356,-4.9279,-4.672,-4.5646,-4.6828,-4.5829,-4.5301,-4.5645,-4.3848,-4.2574,-4.1962,-4.0969,-3.9238,-3.6731,0.0,0.0,0.0,0.0,0.0,0.0,0.0,0.0,0.0,0.0,0.0,0.0,0.0,0.0,0.0,0.0,0.0,0.0,0.0,0.0,0.0,-3.6479,-3.9863,-3.9863,-4.2641,-4.517,-4.6513,-4.8253,-4.9382,-4.9518,-5.1501,-5.2993,-5.3405,-5.5011,-5.6175,-5.6637,-5.7242,-5.7819,-5.828,-5.8319,-5.8319,-5.8319,-5.8896,-5.9165,-5.9165,-5.9819,-5.9781,-5.9127,-5.7434,-5.6175,-5.528,-5.3475,-5.2399,-5.1941,-5.2112,-5.1828,-5.1194,-4.9838,-4.9075,-4.8727,-4.8727,-4.8932,-4.9234,-4.9779,-5.0291,-5.0712,-5.0712,-5.047,-5.0197,-5.0248,-5.003,-4.977,-4.969,-4.9728,-4.9781,-4.9687,-4.9962,-5.0241,-5.0241,-5.0483,-5.0692,-5.0573,-4.9987,-4.946,-4.9356,-4.9092,-4.9059,-4.9575,-5.0147,-5.0392,-5.0038,-5.0404,0.0,-5.0048,-5.0404,-4.9971,-4.8125,-4.824,-4.7971,-4.6749,-4.623,-4.6358,-4.7264,-4.7007,-4.6892,-4.6959,-4.6742,-4.6271,-4.55,-4.1623,-3.8969,0.0,0.0,0.0,0.0,0.0,0.0,0.0,0.0,0.0,0.0,0.0,0.0,0.0,0.0,0.0,0.0,0.0,0.0,0.0,0.0,0.0,0.0,-4.0676,-4.4267,-4.4932,-4.6328,-4.8047,-5.0173,-5.1202,-5.2087,-5.2895,-5.4549,-5.5549,-5.5549,-5.678,-5.7703,-5.8011,-5.8511,-5.8973,-5.9358,-5.9358,-5.9358,-5.9358,-5.9819,-6.005,-6.005,-6.055,-6.0512,-5.9973,-5.8319,-5.7049,-5.6137,-5.4472,-5.3388,-5.2859,-5.3102,-5.2931,0.0,0.0,0.0,0.0,0.0,-4.9416,-4.9768,-5.0012,-5.0358,-5.0712,-5.0712,-5.0712,-5.0644,-5.0402,-5.0218,-5.0037,-4.9832,-4.9728,-4.9728,-4.9728,-5.0037,-5.0347,-5.0347,-5.0514,-5.0644,-5.0483,-5.0099,-4.9645,-4.9311,-4.9341,0.0,-4.9489,-5.0012,-5.0263,-4.9692,-5.025,-5.0442,-4.9702,-5.025,-5.0135,-4.8663,-4.8894,-4.8741,-4.7586,-4.6973,0.0,0.0,0.0,-4.6858,-4.6352,-4.6282,0.0,0.0,0.0,0.0,0.0,0.0,0.0,0.0,-3.5045,-3.3769,0.0,0.0,0.0,0.0,0.0,0.0,0.0,0.0,0.0,0.0,0.0,0.0,0.0,0.0,0.0,0.0,-4.4589,-4.7989,-4.9615,-4.9894,-5.0471,-5.1885,-5.2895,-5.3818,-5.4703,-5.6291,-5.7291,-5.7291,-5.8088,-5.8896,-5.9627,0.0,0.0,0.0,0.0,-6.0781,-6.0781,-6.0781,-6.0781,-6.0781,-6.0781,-6.0742,-6.0589,-5.9011,-5.7819,-5.6907,-5.5318,-5.4203,-5.3472,-5.3472,-5.3433,-5.321,-5.1935,-5.1241,-5.0912,-5.0142,-5.0085,-5.039,-5.0427,0.0,0.0,-5.0981,-5.0981,-5.0981,-5.0866,-5.0555,-5.0226,-5.0062,-5.0063,-5.0063,-4.9911,-5.0371,-5.0804,-5.0737,-5.0778,-5.0758,-5.0382,-5.0212,-4.9898,-4.9171,-4.9617,-4.9974,-4.9617,-4.9911,-4.9755,-4.8587,-4.9702,-5.0125,-4.8586,-4.974,-5.0596,-5.0289,0.0,0.0,-4.9716,-4.8086,-4.7442,-4.821,-4.7348,-4.633,-4.5357,-4.4627,-4.402,-4.3474,-4.3593,-4.4393,-4.5864,-4.5864,-4.5864,-4.5671,-3.7199,-3.5276,0.0,0.0,0.0,0.0,0.0,0.0,0.0,0.0,0.0,0.0,0.0,0.0,0.0,0.0,0.0,-4.1529,-4.639,-5.0558,-5.2241,-5.3087,-5.3356,-5.301,-5.428,-5.5549,-5.6445,-5.8011,-5.9011,-5.9011,-5.9819,-6.0358,-6.055,-6.055,-6.0627,-6.0781,-6.0781,-6.0781,-6.0781,-6.0781,-6.0781,-6.0781,0.0,0.0,-5.9704,-5.8742,-5.7819,-5.6945,-5.5895,-5.5357,-5.5203,-5.5203,-5.4818,-5.4105,-5.2865,-5.2311,-5.2221,-5.2069,-5.2069,-5.2157,-5.2467,-5.2661,-5.2702,-5.2702,-5.2702,-5.2587,-5.1895,-5.1398,0.0,-4.989,-4.986,-4.9886,-4.8895,-5.0177,-5.1585,-5.0916,-5.125,-5.1644,-5.1554,-5.0784,-5.0037,-4.9911,-4.9987,-5.0087,-4.9987,-5.0325,-5.0499,-5.024,-5.0481,-5.0596,-5.025,-5.0481,-4.9894,-4.7855,-4.824,-4.8173,-4.7099,-4.7036,-4.7536,-4.8691,-4.8555,-4.8611,-4.9035,-4.8284,-4.7898,-4.8116,-4.7452,-4.7278,-4.7625,-4.7625,-4.7625,-4.7548,-4.4393,-4.3363,0.0,0.0,0.0,0.0,0.0,0.0,0.0,0.0,0.0,0.0,0.0,-3.5826,-3.6689,0.0,-4.3949,-4.6048,-4.9525,-5.2549,-5.4203,-5.5203,-5.5588,-5.5164,-5.6242,-5.7319,-5.8165,-5.9396,-6.0165,-6.0165,-6.055,-6.0781,-6.0781,-6.0781,-6.0781,-6.0781,-6.0781,-6.0589,-6.0165,-6.0589,-6.0589,-6.0165,-6.0165,-5.9935,-5.9473,-5.8204,-5.7396,-5.6945,-5.6088,-5.5703,-5.5703,-5.5703,-5.5472,-5.5038,-5.4407,-5.366,-5.2882,-5.2882,-5.2777,-5.2641,-5.307,-5.3059,-5.292,-5.3112,-5.3203,-5.3126,-5.2692,-5.2126,-5.1564,-5.1171,-5.0883,-5.0594,-5.0202,-5.1024,-5.1865,-5.1451,-5.1813,-5.2235,-5.2235,-5.1595,-5.0948,-5.072,-5.0547,-5.0336,-5.0147,-5.0451,-5.0712,-5.0712,-5.0712,-5.0712,-5.0712,-5.0712,-5.0212,-4.8933,-4.9163,-4.9094,-4.8254,-4.8046,-4.8135,-4.8548,-4.8604,-4.8945,-4.9792,-4.9389,-4.9248,-4.9385,-4.8971,-4.8548,-4.8086,-4.8086,-4.8086,-4.8086,-4.724,-4.6624,0.0,0.0,0.0,0.0,0.0,0.0,0.0,-3.3412,-3.4449,-3.744,-3.9336,-4.0938,-4.2356,-4.4836,-4.7596,-5.0364,-5.2414,-5.4203,-5.5742,-5.683,-5.7561,-5.7715,-5.8204,-5.8781,-5.9435,-6.0127,-6.0473,-6.0319,-6.0319,-6.0319,-6.0319,-6.0319,-6.0319,-6.0319,-6.0319,-5.9973,-5.9281,-5.9973,-5.9973,-5.9281,-5.9281,-5.9165,-5.8973,-5.7638,-5.6907,-5.6714,-5.6011,-5.5703,-5.5703,-5.5703,-5.5703,-5.5703,-5.5703,-5.4857,-5.3703,-5.3703,-5.343,-5.315,-5.3558,-5.343,-5.3162,-5.3569,-5.3703,-5.3664,-5.351,-5.2933,-5.2384,-5.2444,-5.203,-5.1558,-5.1682,-5.2,-5.2237,-5.2065,-5.2428,-5.2831,-5.2831,-5.2323,-5.1785,-5.1488,-5.102,-5.0604,-5.0291,-5.0483,-5.0712,-5.0712,-5.0712,-5.0712,-5.0712,-5.0712,-5.0712,-5.0712,-5.0712,-5.0504,-5.0012,-4.9326,-4.8727,-4.8325,-4.8306,-4.8676,-4.946,-4.9489,-4.9543,-4.9654,-4.9663,-4.9317,-4.8625,-4.8625,-4.8625,-4.8586,-4.8432,-4.7932,-3.3287,-3.2699,-3.3083,-3.2711,-3.4911,-3.8078,0.0,-4.2077,-4.2317,-4.3868,-4.5322,-4.6341,-4.654,-4.8567,-5.0364,-5.0759,-5.3417,-5.5742,-5.6714,-5.8204,-5.9511,-6.0281,-5.9781,-5.9396,-5.9473,-5.9588,-5.9358,-5.8627,-5.8588,-5.8588,-5.8588,-5.8588,-5.8588,-5.8588,-5.8588,-5.855,-5.8434,-5.855,-5.855,-5.8434,-5.8434,-5.8011,-5.7291,-5.7099,-5.6599,-5.5818,-5.5742,-5.5703,-5.5703,-5.5703,-5.5703,-5.5703,-5.5703,-5.5588,-5.5434,-5.5434,-5.5166,-5.4893,-5.5297,-5.5166,-5.4893,-5.5297,-5.5434,-5.528,-5.4587,-5.4008,-5.3373,-5.237,-5.2198,-5.2141,-5.1189,-5.2233,-5.3421,-5.2693,-5.3097,-5.3683,-5.3683,-5.2755,-5.1875,-5.1844,-5.1221,-5.0702,-5.0634,-5.0654,-5.0712,-5.0712,-5.0712,-5.0712,-5.0712,-5.0712,-5.0712,-5.0712,-5.0712,-5.038,-4.9617,-4.9155,-4.8727,-4.8325,-4.8306,-4.8676,-4.946,-4.9489,-4.9847,-5.0548,-5.0558,-5.0519,-5.0404,-5.0404,-5.0404,-5.0404,-4.9625,-4.8779,-4.1763,-4.0315,-3.92,-4.07,-4.2294,-4.393,-4.5567,-4.5616,-4.6085,-4.8643,-4.9784,-5.0356,-5.0356,-5.1365,-5.252,-5.3484,-5.4803,-5.6319,-5.8204,-5.905,-5.9819,-6.0704,-6.0473,-6.005,-5.955,-5.9511,-5.9165,-5.8357,-5.8319,-5.8319,-5.8319,-5.8319,-5.8319,-5.8319,-5.8319,-5.805,-5.755,-5.805,-5.805,-5.755,-5.755,-5.7368,-5.6983,-5.6483,-5.6049,-5.5703,-5.5703,-5.5703,-5.5703,-5.5703,-5.5703,-5.5703,-5.5703,-5.5703,-5.5703,-5.5703,-5.5313,-5.4804,-5.5212,-5.5094,-5.4804,-5.5212,-5.5531,-5.5594,-5.504,-5.4547,-5.405,-5.3282,-5.2977,-5.2793,-5.2312,-5.2839,-5.3413,-5.3312,-5.3779,-5.4258,-5.452,-5.3955,-5.328,-5.2779,-5.1972,-5.1241,-5.0789,-5.0712,-5.0712,-5.0712,-5.0712,-5.0712,-5.0712,-5.0712,-5.0712,-5.0712,-5.0712,-5.0369,-4.9561,-4.9561,-4.9234,-4.8326,-4.8513,-4.8915,-4.9475,-4.9489,-4.9885,-5.0702,-5.0712,-5.0712,-5.0712,-5.0712,-5.0712,-5.0712,-5.0327,-4.9971,-4.4509,-4.4047,-4.3701,-4.6269,-4.8189,-4.9331,-4.8982,-4.896,-4.9589,-5.1732,-5.2665,-5.3133,-5.3133,-5.3536,-5.428,-5.5511,-5.5895,-5.6703,-5.855,-5.9204,-5.9742,-6.0358,-6.0666,-6.0473,-5.9588,-5.9319,-5.8819,-5.8011,-5.7703,-5.7588,-5.7588,-5.7588,-5.7588,-5.7588,-5.7588,-5.728,-5.6637,-5.728,-5.728,-5.6637,-5.6637,-5.6637,-5.6637,-5.5972,-5.5703,-5.5703,-5.5703,-5.5703,-5.5703,-5.5703,-5.5703,-5.5703,-5.5703,-5.5703,-5.5703,-5.5703,-5.525,-5.4701,-5.4988,-5.4833,-5.4532,-5.4833,-5.5134,-5.53,-5.5002,-5.464,-5.4238,-5.3887,-5.3524,-5.3203,-5.3203,-5.3203,-5.3277,-5.3702,-5.4153,-5.4594,-5.4988,-5.4798,-5.4241,-5.3356,-5.25,-5.1654,-5.0827,-5.0712,-5.0712,-5.0712,-5.0712,-5.0712,-5.0712,-5.0712,-5.0712,-5.0712,-5.0712,-5.044,-4.9714,-4.9846,-4.9518,-4.8513,-4.864,-4.8895,-4.9311,-4.9431,-4.9846,-5.0514,-5.0634,-5.0712,-5.0712,-5.0712,-5.0712,-5.0712,-5.0712,-5.0712,-3.7231,-4.0008,-4.3701,-4.6269,-5.0615,-5.3975,-5.2728,-5.338,-5.3953,-5.283,-5.3583,-5.4423,-5.4423,-5.5088,-5.5626,-5.5703,-5.6406,-5.6983,-5.706,-5.8473,-5.9511,-5.955,-6.0281,-6.0473,-5.9588,-5.8781,-5.7973,-5.7099,-5.6242,-5.578,-5.578,-5.578,-5.578,-5.578,-5.578,-5.578,-5.5742,-5.578,-5.578,-5.5742,-5.5742,-5.5742,-5.5742,-5.5703,-5.5703,-5.5703,-5.5703,-5.5703,-5.5703,-5.5703,-5.5703,-5.5703,-5.5703,-5.5703,-5.5703,-5.5703,-5.5435,-5.5094,-5.5107,-5.4833,-5.4484,-5.45,-5.4516,-5.4516,-5.4516,-5.4187,-5.3795,-5.3795,-5.3524,-5.3203,-5.3203,-5.3203,-5.3277,-5.3702,-5.4153,-5.4594,-5.4988,-5.4798,-5.4241,-5.3356,-5.25,-5.1654,-5.0827,-5.0712,-5.0712,-5.0712,-5.0712,-5.0712,-5.0712,-5.0712,-5.0712,-5.0712,-5.0712,-5.0514,-5.0123,-4.9752,-4.9341,-4.8895,-4.8513,-4.8514,-4.8878,-4.9295,-4.9687,-5.0123,-5.0493,-5.0712,-5.0712,-5.0712,-5.0712,-5.0712,-5.0712,-5.0712,-4.1931,-4.4893,-4.8048,-5.1164,-5.3437,-5.4791,-5.4345,-5.46,-5.4791,-5.4345,-5.3457,-5.2769,-5.2769,-5.301,-5.3203,-5.3203,-5.4857,-5.6329,-5.6907,-5.7973,-5.8896,-5.9435,-6.0281,-6.0666,-6.0396,-5.9588,-5.8742,-5.7934,-5.7049,-5.656,-5.656,-5.6011,-5.5703,-5.5703,-5.5703,-5.5703,-5.5703,-5.5703,-5.5703,-5.5703,-5.5703,-5.5703,-5.5703,-5.5703,-5.5703,-5.5703,-5.5703,-5.5703,-5.5703,-5.5703,-5.5703,-5.5703,-5.5703,-5.5703,-5.5703,-5.5703,-5.561,-5.5423,-5.4876,-5.4609,-5.4436,-5.4135,-5.4238,-5.4436,-5.4135,-5.4135,-5.4204,-5.3887,-5.3702,-5.3604,-5.3604,-5.342,-5.338,-5.4083,-5.4371,-5.4671,-5.5363,-5.5407,-5.5049,-5.4203,-5.3356,-5.251,-5.1625,-5.1048,-5.0712,-5.0712,-5.0712,-5.0712,-5.0712,-5.0712,-5.0712,-5.0712,-5.0712,-5.0525,-5.0147,-4.9974,-4.9603,-4.8928,-4.8779,-4.8761,-4.8878,-4.9027,-4.9431,-5.0099,-5.0218,-5.0451,-5.0712,-5.0712,-5.0712,-5.0712,-5.0712,-5.0712,-4.5633,-4.8163,-5.0279,-5.401,-5.5098,-5.53,-5.53,-5.53,-5.5223,-5.4943,-5.3064,-5.1395,-5.1048,-5.0731,-5.0538,-5.0538,-5.2433,-5.4318,-5.5472,-5.6395,-5.7357,-5.8473,-5.9396,-5.9896,-5.9896,-5.9396,-5.8858,-5.8357,-5.7473,-5.6868,-5.656,-5.6011,-5.5703,-5.5703,-5.5703,-5.5703,-5.5703,-5.5703,-5.5703,-5.5703,-5.5703,-5.5703,-5.5703,-5.5703,-5.5703,-5.5703,-5.5703,-5.5703,-5.5703,-5.5703,-5.5703,-5.5703,-5.5703,-5.5703,-5.5703,-5.5703,-5.5703,-5.5599,-5.4933,-5.4701,-5.4609,-5.3995,-5.3995,-5.4153,-5.3702,-5.3906,-5.4187,-5.3869,-5.3905,-5.4013,-5.3832,-5.372,-5.3814,-5.4355,-5.4594,-5.489,-5.5566,-5.5703,-5.5472,-5.4664,-5.3818,-5.2933,-5.2038,-5.1241,-5.0712,-5.0712,-5.0712,-5.0712,-5.0712,-5.0712,-5.0712,-5.0712,-5.0712,-5.0604,-5.0336,-5.0037,-4.9659,-4.9139,-4.8847,-4.8744,-4.8878,-4.9027,-4.9431,-5.0099,-5.023,-5.0451,-5.0712,-5.0712,-5.0712,-5.0712,-5.0712,-5.0712,-4.7894,-4.9586,-5.0664,-5.4703,-5.5703,-5.5703,-5.5703,-5.5703,-5.5434,-5.4434,-5.2164,-5.0058,-4.9009,-4.8317,-4.7894,-4.7894,-4.9625,-5.151,-5.3087,-5.4087,-5.5203,-5.683,-5.778,-5.8319,-5.8319,-5.8319,-5.828,-5.8242,-5.7473,-5.6637,-5.5818,-5.5703,-5.5703,-5.5703,-5.5703,-5.5703,-5.5703,-5.5703,-5.5703,-5.5703,-5.5703,-5.5703,-5.5703,-5.5703,-5.5703,-5.5703,-5.5703,-5.5703,-5.5703,-5.5703,-5.5703,-5.5703,-5.5703,-5.5703,-5.5703,-5.5703,-5.5703,-5.5671,-5.525,-5.5121,-5.496,-5.4098,-5.3814,-5.3739,-5.3339,-5.3504,-5.3777,-5.3777,-5.4135,-5.4387,-5.3923,-5.4153,-5.4484,-5.4484,-5.4804,-5.5212,-5.5599,-5.5703,-5.5472,-5.4664,-5.378,-5.2856,-5.2,-5.1202,-5.0712,-5.0712,-5.0712,-5.0712,-5.0712,-5.0712,-5.0712,-5.0712,-5.0712,-5.0712,-5.0712,-4.9962,-4.9489,-4.9489,-4.8761,-4.8477,-4.8861,-4.928,-4.9673,-5.0111,-5.0472,-5.0692,-5.0712,-5.0712,-5.0712,-5.0712,-5.0712,-5.0712,-4.9586,-5.2202,-5.4357,-5.5434,-5.5703,-5.5703,-5.5703,-5.5703,-5.4741,-5.1395,-4.8163,-4.4893,-4.1546,-4.3316,-4.5278,-4.5278,-5.0433,-5.4549,-5.5011,-5.5818,-5.6522,-5.6945,-5.778,-5.8319,-5.8319,-5.8319,-5.805,-5.7357,-5.7137,-5.6907,-5.6676,-5.6049,-5.5703,-5.5703,-5.5703,-5.5703,-5.5703,-5.5703,-5.5703,-5.5703,-5.5703,-5.5703,-5.5703,-5.5703,-5.5703,-5.5703,-5.5703,-5.5703,-5.5703,-5.5703,-5.5703,-5.5703,-5.5703,-5.5703,-5.5703,-5.5703,-5.5703,-5.5692,-5.5577,-5.5363,-5.5002,-5.45,-5.4083,-5.3796,-5.3663,-5.372,-5.3777,-5.3777,-5.4135,-5.4387,-5.3923,-5.4153,-5.4484,-5.4484,-5.4804,-5.5212,-5.5599,-5.5703,-5.5472,-5.4664,-5.328,-5.1962,-5.1164,-5.0827,-5.0712,-5.0712,-5.0712,-5.0712,-5.0712,-5.0712,-5.0712,-5.0712,-5.0712,-5.0712,-5.0712,-4.9962,-4.9489,-4.9489,-4.9011,-4.8796,-4.8915,-4.928,-4.9673,-5.0111,-5.0195,-5.038,-5.0712,-5.0712,-5.0712,-5.0712,-5.0712,-5.0712,-5.2125,-5.428,-5.578,-5.6165,-5.5972,-5.5318,-5.3818,-5.3203,-5.151,-4.6509,-4.3085,-4.0008,-3.6892,-4.0085,-4.3201,-4.3201,-4.9317,-5.4318,-5.5049,-5.528,-5.5588,-5.6329,-5.6857,-5.7165,-5.7165,-5.7165,-5.6973,-5.6483,-5.6791,-5.683,-5.6445,-5.5972,-5.5703,-5.5703,-5.5703,-5.5703,-5.5703,-5.5703,-5.5703,-5.5703,-5.5703,-5.5703,-5.5703,-5.5703,-5.5703,-5.5703,0.0,-5.5703,-5.5703,-5.5703,-5.5703,-5.5742,-5.6126,-5.6049,-5.5742,-5.6126,-5.6011,-5.5703,-5.5703,-5.5554,-5.5313,-5.4876,-5.4468,-5.4066,-5.3851,-5.3941,-5.4066,-5.3851,-5.4135,-5.4436,-5.417,-5.4436,-5.476,-5.476,-5.508,-5.5423,-5.5632,-5.5703,-5.5472,-5.4664,-5.3395,-5.2202,-5.1356,-5.1241,-5.1125,-5.075,-5.101,-5.1087,-5.075,-5.0712,-5.0712,-5.0712,-5.0712,-5.0712,-5.0712,-5.0135,-4.9741,-4.9741,-4.9386,-4.9249,-4.9431,-4.9645,-4.9949,-5.0358,-5.0358,-5.0472,-5.0712,-5.0712,-5.0712,-5.0712,-5.0712,-5.0712,-5.4511,-5.5626,-5.5857,-5.6637,-5.6175,-5.4664,-5.1289,-4.9779,-4.7317,-4.1131,-3.7892,-3.5584,-3.3545,-3.7353,-4.1,-4.1692,-4.7385,-5.2472,-5.4549,-5.4164,-5.4203,-5.5549,-5.5703,-5.5703,-5.5703,-5.5703,-5.5703,-5.5703,-5.6406,-5.6522,-5.5742,-5.5703,-5.5703,-5.5703,-5.5703,-5.5703,-5.5703,-5.5703,-5.5703,-5.5703,-5.5703,-5.5703,-5.5703,-5.5703,-5.5703,-5.5703,-5.5703,-5.5703,-5.5703,-5.5703,-5.5703,-5.578,-5.6522,-5.6368,-5.578,-5.656,-5.6368,-5.5703,-5.5703,-5.5682,-5.5577,-5.5262,-5.489,-5.4484,-5.4031,-5.4135,-5.4305,-5.387,-5.4083,-5.4468,-5.442,-5.479,-5.5173,-5.5121,-5.5411,-5.5703,-5.5703,-5.5626,-5.5318,-5.4626,-5.3818,-5.2972,-5.2192,-5.2077,-5.1818,-5.0971,-5.1471,-5.1625,-5.0789,-5.0712,-5.0712,-5.0712,-5.0712,-5.0712,-5.0712,-5.0336,-5.0111,-5.0111,-4.9754,-4.9765,-5.0099,-5.0159,-5.0347,-5.0702,-5.0712,-5.0712,-5.0712,-5.0712,-5.0712,-5.0712,-5.0712,-5.0712,-5.4318,-5.5203,-5.5742,-5.5895,-5.5318,-5.3818,-5.0394,-4.8432,-4.524,-3.7885,-3.4891,-3.2391,-2.8621,-3.2083,-3.6892,-4.1115,-4.6932,-5.2241,-5.6022,-5.6445,-5.6175,-5.5742,-5.5703,-5.5703,-5.5703,-5.5703,-5.5703,-5.5703,-5.5818,-5.5857,-5.5703,-5.5703,-5.5703,-5.5703,-5.5703,-5.5703,-5.5703,-5.5703,-5.5703,-5.5703,-5.5703,-5.5703,-5.5703,-5.5703,-5.5703,-5.5703,-5.5703,0.0,-5.5703,-5.5703,-5.5703,-5.5703,-5.5857,-5.5818,-5.5703,-5.5857,-5.5818,-5.5703,-5.5703,-5.547,-5.5237,-5.5531,-5.53,-5.4905,-5.45,-5.417,-5.3851,-5.3404,-5.387,-5.4404,-5.4013,-5.4752,-5.5493,-5.5186,-5.5411,-5.5703,-5.5703,-5.5164,-5.4664,-5.4511,-5.3818,-5.3164,-5.301,-5.2972,-5.2702,-5.1808,-5.1808,-5.1625,-5.0789,-5.0712,-5.0712,-5.0712,-5.0712,-5.0712,-5.0712,-5.0336,-5.0111,-5.0111,-5.0024,-5.0012,-5.0111,-5.044,-5.0624,-5.0712,-5.0712,-5.0712,-5.0712,-5.0712,-5.0712,-5.0712,-5.0712,-5.0712,-5.4241,-5.5088,-5.5818,-5.6252,-5.5742,-5.3664,-4.8009,-4.547,-4.1808,-3.3314,-3.0506,-2.8852,-2.6385,-3.0467,-3.5161,-3.8038,-4.5355,-5.1404,-5.3444,-5.5598,-5.6676,-5.578,-5.5703,-5.5703,-5.5703,-5.5703,-5.5703,-5.5703,-5.5703,-5.5703,-5.5703,-5.5703,-5.5703,-5.5703,-5.5703,-5.5703,-5.5703,-5.5703,-5.5703,-5.5703,-5.5703,-5.5703,-5.5703,-5.5703,-5.5703,-5.5703,-5.5703,-5.5703,-5.5703,-5.5703,-5.5703,-5.5742,-5.6214,-5.6088,-5.5742,-5.6214,-5.6088,-5.5703,-5.5703,-5.5577,-5.5435,-5.5621,-5.5423,-5.508,-5.4862,-5.4671,-5.4382,-5.3997,-5.419,-5.4484,-5.4462,-5.4933,-5.5399,-5.5411,-5.5566,-5.5703,-5.5703,-5.5395,-5.5126,-5.5126,-5.4434,-5.3895,-5.3895,-5.3895,-5.3587,-5.2692,-5.2577,-5.2279,-5.1433,-5.0971,-5.0712,-5.0712,-5.0712,-5.0712,-5.0712,-5.0514,-5.0391,-5.0391,-5.0391,-5.0391,-5.0391,-5.0604,-5.0712,-5.0712,-5.0712,-5.0712,-5.0712,-5.0712,-5.0712,-5.0712,-5.0712,-5.0712,-5.3895,-5.4818,-5.5665,-5.6522,-5.5934,-5.3164,-4.5509,-4.2316,-3.843,-2.9467,-2.6928,-2.6115,-2.5423,-2.9275,-3.3199,-3.5192,-4.2508,-4.8634,-5.0442,-5.3713,-5.5857,-5.5703,-5.5703,-5.5703,-5.5703,-5.5703,-5.5703,-5.5703,-5.5703,-5.5703,-5.5703,-5.5703,-5.5703,-5.5703,-5.5703,-5.5703,-5.5703,-5.5703,-5.5703,-5.5703,-5.5703,-5.5703,-5.5703,-5.5703,-5.5703,-5.5703,-5.5703,-5.5703,0.0,-5.5703,-5.5703,-5.578,-5.6445,-5.6291,-5.578,-5.6483,-5.6291,-5.5703,-5.5703,-5.5703,-5.5703,-5.5703,-5.5508,-5.5212,-5.5134,-5.5107,-5.504,-5.4609,-5.4547,-5.4701,-5.504,-5.5173,-5.5326,-5.561,-5.5703,-5.5703,-5.5703,-5.5703,-5.5665,-5.5472,-5.5049,-5.4703,-5.4511,-5.4626,-5.4395,-5.3356,-5.3203,-5.2818,-5.1779,-5.1087,-5.0712,-5.0712,-5.0712,-5.0712,-5.0712,-5.0712,-5.0712,-5.0712,-5.0712,-5.0712,-5.0712,-5.0712,-5.0712,-5.0712,-5.0712,-5.0712,-5.0712,-5.0712,-5.0712,-5.0712,-5.0712,-5.0712,-5.2664,-5.3933,-5.478,-5.5626,-5.4626,-5.1433,-4.3778,-4.0123,-3.6122,-2.8313,-2.6038,-2.5385,-2.5308,-2.6385,-2.9121,-3.4615,-3.7546,-4.1854,-4.9596,-5.1664,-5.3203,-5.5434,-5.5703,-5.5703,-5.5703,-5.5703,-5.5703,-5.5703,-5.5703,-5.5703,-5.5703,-5.5703,-5.5703,-5.5703,-5.5703,-5.5703,-5.5703,-5.5703,-5.5703,-5.5703,-5.5703,-5.5703,-5.5703,-5.5703,-5.5703,-5.5703,-5.5703,-5.5703,0.0,-5.5703,-5.5703,-5.5703,-5.578,-5.578,-5.5703,-5.578,-5.578,-5.5703,-5.5703,-5.5703,-5.5703,-5.5703,-5.5692,-5.5577,-5.5212,-5.5107,-5.504,-5.4609,-5.476,-5.5067,-5.5107,-5.5375,-5.5632,-5.5703,-5.5703,-5.5703,-5.5703,-5.5703,-5.5472,-5.4741,-5.5126,-5.5357,-5.4626,-5.5126,-5.5049,-5.3433,-5.3203,-5.2626,-5.101,-5.075,-5.0712,-5.0712,-5.0712,-5.0712,-5.0712,-5.0712,-5.0712,-5.0712,-5.0712,-5.0712,-5.0712,-5.0712,-5.0712,-5.0712,-5.0712,-5.0712,-5.0712,-5.0712,-5.0712,-5.0712,-5.0712,-5.0712,-5.1856,-5.3049,-5.378,-5.4126,-5.2549,-4.9317,-4.3192,-3.9038,-3.4776,-2.8621,-2.6269,-2.5308,-2.5308,-2.5577,-2.6954,-3.0428,-3.4135,-3.7758,-4.1142,-4.541,-4.8917,-5.0904,-5.2049,-5.3472,-5.5511,-5.5703,-5.5703,-5.5703,-5.5703,-5.5703,-5.5703,-5.5703,-5.5703,-5.5703,-5.5703,-5.5703,-5.5703,-5.5703,-5.5703,-5.5703,-5.5703,-5.5703,-5.5703,-5.5703,-5.5703,-5.5703,-5.5703,-5.5703,0.0,-5.5703,-5.5703,-5.5703,-5.5703,-5.5703,-5.5703,-5.5703,-5.5703,-5.5703,-5.5703,-5.5703,-5.5703,-5.5703,-5.5703,-5.5682,-5.5531,-5.5446,-5.5423,-5.525,-5.535,-5.5446,-5.5446,-5.5577,-5.5703,-5.5703,-5.5703,-5.5703,-5.5703,-5.5703,-5.5588,-5.528,-5.5472,-5.5588,-5.528,-5.5472,-5.5318,-5.4164,-5.3549,-5.2779,-5.1587,-5.101,-5.0712,-5.0712,-5.0712,-5.0712,-5.0712,-5.0712,-5.0712,-5.0712,-5.0712,-5.0712,-5.0712,-5.0712,-5.0712,-5.0712,-5.0712,-5.0712,-5.0712,-5.0712,-5.0712,-5.0712,-5.0712,-5.0712,-5.0894,-5.2164,-5.2895,-5.3126,-5.1087,-4.7625,-4.2277,-3.7969,-3.3583,-2.8236,-2.6154,-2.5308,-2.5308,-2.5308,-2.5895,-2.7721,-3.121,-3.4332,-3.6102,-4.068,-4.4728,-4.7074,-4.8671,-5.0807,-5.3905,-5.5126,-5.5703,-5.5703,-5.5703,-5.5703,-5.5703,-5.5703,-5.5703,-5.5703,-5.5703,-5.5703,-5.5703,-5.5703,-5.5703,-5.5703,-5.5703,-5.5703,-5.5703,-5.5703,-5.5703,-5.5703,-5.5703,-5.5703,0.0,-5.5703,-5.5703,-5.5703,-5.5703,-5.5703,-5.5703,-5.5703,-5.5703,-5.5703,-5.5703,-5.5703,-5.5703,-5.5703,-5.5703,-5.5703,-5.5703,-5.5703,-5.5703,-5.5703,-5.5703,-5.5703,-5.5703,-5.5703,-5.5703,-5.5703,-5.5703,-5.5703,-5.5703,-5.5703,-5.5626,-5.5395,-5.5549,-5.5626,-5.5395,-5.5549,-5.5318,-5.428,-5.3587,-5.2818,-5.1702,-5.1048,-5.0712,-5.0712,-5.0712,-5.0712,-5.0712,-5.0712,-5.0712,-5.0712,-5.0712,-5.0712,-5.0712,-5.0712,-5.0712,-5.0712,-5.0712,-5.0712,-5.0712,-5.0712,-5.0712,-5.0712,-5.0712,-5.0712,-4.9558,-5.1318,-5.2115,-5.2972,-5.0625,-4.6586,-4.0662,-3.6668,-3.2506,-2.6577,-2.5308,-2.5308,-2.5308,-2.5308,-2.5895,-2.7721,-2.8706,-3.1322,-3.7251,-3.8947,-4.1064,-4.5128,-4.6468,-4.8005,-5.0491,-5.3741,-5.5703,-5.5703,-5.5703,0.0,-5.5703,-5.5703,-5.5703,-5.5703,-5.5703,-5.5703,-5.5703,-5.5703,-5.5703,-5.5703,-5.5703,-5.5703,-5.5703,-5.5703,-5.5703,-5.5703,-5.5703,-5.5703,0.0,-5.5703,-5.5703,-5.5703,-5.5703,-5.5703,-5.5703,-5.5703,-5.5703,-5.5703,-5.5703,-5.5703,-5.5703,-5.5703,-5.5703,-5.5703,-5.5703,-5.5703,-5.5703,-5.5703,-5.5703,-5.5703,-5.5703,-5.5703,-5.5703,-5.5703,-5.5703,-5.5703,-5.5703,-5.5703,-5.5472,-5.4664,-5.5164,-5.5434,-5.4664,-5.5164,-5.5126,-5.3472,-5.3203,-5.2587,-5.0943,-5.0712,-5.0712,-5.0712,-5.0712,-5.0712,-5.0712,-5.0712,-5.0712,-5.0712,-5.0712,-5.0712,-5.0712,-5.0712,-5.0712,-5.0712,-5.0712,-5.0712,-5.0712,-5.0712,-5.0712,-5.0712,-5.0712,-5.0712,-4.4085,-4.524,-4.5663,-4.4739,-4.2393,-3.9508,-3.6514,-3.3167,-2.9858,-2.6813,-2.5692,-2.5308,-2.5308,-2.5308,-2.6473,-3.004,-3.0828,-3.2055,-3.518,-3.8815,-4.1841,-4.3733,-4.929,-5.3263,-5.4059,-5.5088,-5.5703,-5.5703,-5.5703,-5.5703,-5.5703,-5.5703,-5.5703,-5.5703,-5.5703,-5.5703,-5.5703,-5.5703,-5.5703,-5.5703,-5.5703,-5.5703,-5.5703,-5.5703,-5.5703,-5.5703,-5.5703,0.0,0.0,-5.5703,-5.5703,-5.5703,-5.5703,-5.5703,-5.5703,-5.5703,-5.5703,-5.5703,-5.5703,-5.5703,-5.5703,-5.5703,-5.5703,-5.5703,-5.5703,-5.5703,-5.5703,-5.5703,-5.5703,-5.5703,-5.5703,-5.5703,-5.5703,-5.5703,-5.5703,-5.5703,-5.5703,-5.5703,-5.5626,-5.5357,-5.5511,-5.5626,-5.5357,-5.5088,-5.4511,-5.3356,-5.2692,-5.1933,-5.0827,-5.0712,-5.0712,-5.0712,-5.0712,-5.0712,-5.0712,-5.0712,-5.0712,-5.0712,-5.0712,-5.0712,-5.0712,-5.0712,-5.0712,-5.0712,-5.0712,-5.0712,-5.0712,-5.0712,-5.0712,-5.0712,-5.0712,-5.0712,-4.0085,-4.147,-4.1854,-4.0785,-3.8354,-3.5808,-3.4083,-3.1089,-2.8165,-2.6467,-2.5692,-2.5308,-2.5308,-2.5307,-2.6335,-2.939,-3.0164,-3.1588,-3.4908,-3.8355,-4.1561,-4.4298,-5.0082,-5.3933,-5.4241,-5.5126,-5.5703,-5.5703,-5.5703,-5.5703,-5.5703,-5.5703,-5.5703,-5.5703,-5.5703,-5.5703,-5.5703,-5.5703,-5.5703,-5.5703,-5.5703,-5.5703,-5.5703,-5.5703,-5.5703,-5.5703,0.0,0.0,0.0,-5.5703,-5.5703,-5.5703,-5.5703,-5.5703,-5.5703,-5.5703,-5.5703,-5.5703,-5.5703,-5.5703,-5.5703,-5.5703,-5.5703,-5.5703,-5.5703,-5.5703,-5.5703,-5.5703,-5.5703,-5.5703,-5.5703,-5.5703,-5.5703,-5.5703,-5.5703,-5.5703,-5.5703,-5.5703,-5.5703,-5.5703,-5.5703,-5.5588,-5.528,-5.4818,-5.4087,-5.2895,-5.2231,-5.1625,-5.0789,-5.0712,-5.0712,-5.0712,-5.0712,-5.0712,-5.0712,-5.0712,-5.0712,-5.0712,-5.0712,-5.0712,-5.0712,-5.0712,-5.0712,-5.0712,-5.0712,-5.0712,-5.0712,-5.0712,-5.0712,-5.0712,-5.0712,-5.0712,0.0,-3.913,-3.9746,-3.9631,-3.7276,-3.45,-3.2852,-3.0044,0.0,-2.5654,-2.5308,-2.5346,-2.5462,-2.5443,-2.5789,-2.7044,-2.7961,-3.057,-3.635,-3.8326,-4.1329,-4.7023,-4.9688,-5.1356,-5.2192,-5.4357,-5.5703,-5.5703,-5.5703,-5.5703,-5.5703,-5.5703,-5.5703,-5.5703,-5.5703,-5.5703,-5.5703,-5.5703,-5.5703,-5.5703,-5.5703,-5.5703,-5.5703,-5.5703,-5.5703,0.0,0.0,0.0,0.0,-5.5703,-5.5703,-5.5703,-5.5703,-5.5703,-5.5703,-5.5703,-5.5703,-5.5703,-5.5703,-5.5703,-5.5703,-5.5703,-5.5703,-5.5703,-5.5703,-5.5703,-5.5703,-5.5703,-5.5703,-5.5703,-5.5703,-5.5703,-5.5703,-5.5703,-5.5703,-5.5703,-5.5703,-5.5703,-5.5703,-5.5703,-5.5665,-5.5395,-5.4626,-5.4395,-5.378,-5.2154,-5.1846,-5.1548,-5.0789,-5.0712,-5.0712,-5.0712,-5.0712,-5.0712,-5.0712,-5.0712,-5.0712,-5.0712,-5.0712,-5.0712,-5.0712,-5.0712,-5.0712,-5.0712,-5.0712,-5.0712,-5.0712,-5.0712,-5.0712,-5.0712,-5.0712,-5.0712,-3.0204,0.0,-3.2468,-3.116,-3.0275,-2.939,0.0,-2.7467,-2.6621,-2.5538,-2.5308,-2.5692,-2.7044,-2.6262,-2.6923,-3.1653,-3.2661,-3.469,-3.9971,-4.4814,-4.9552,-5.4101,-5.458,-5.4857,-5.5703,-5.5742,-5.5703,-5.5703,-5.5703,-5.5703,-5.5703,-5.5703,-5.5703,-5.5703,-5.5703,-5.5703,-5.5703,-5.5703,-5.5703,-5.5703,-5.5703,-5.5703,-5.5703,-5.5703,-5.5703,0.0,0.0,0.0,-5.5703,-5.5703,-5.5703,-5.5703,-5.5703,-5.5703,-5.5703,-5.5703,-5.5703,-5.5703,-5.5703,-5.5703,-5.5703,-5.5703,-5.5703,-5.5703,-5.5703,-5.5703,-5.5703,-5.5703,-5.5703,-5.5703,-5.5703,-5.5703,-5.5703,-5.5703,-5.5703,-5.5703,-5.5703,-5.5703,-5.5703,-5.5703,-5.5203,-5.4703,-5.4511,-5.3395,-5.2385,-5.1962,-5.1395,-5.0894,-5.0712,-5.0712,-5.0712,-5.0712,-5.0712,-5.0712,-5.0712,-5.0712,-5.0712,-5.0712,-5.0712,-5.0712,-5.0712,-5.0712,-5.0712,-5.0712,-5.0712,-5.0712,-5.0712,-5.0712,-5.0712,-5.0712,-5.0712,-5.0712,-2.6697,-2.85,-3.0192,-2.9275,-2.8736,-2.8319,-2.7852,-2.6851,-2.5885,-2.5385,-2.5308,-2.5692,-2.7044,-2.7532,-2.8766,-3.1954,-3.4806,-3.8408,-4.3496,-4.7995,-5.1885,-5.4906,-5.4857,-5.5049,0.0,-5.5972,-5.5703,-5.5703,-5.5703,-5.5703,-5.5703,-5.5703,-5.5703,-5.5703,-5.5703,-5.5703,-5.5703,-5.5703,-5.5703,-5.5703,-5.5703,-5.5703,-5.5703,-5.5703,-5.5703,0.0,0.0,0.0,-5.5703,-5.5703,-5.5703,-5.5703,-5.5703,-5.5703,-5.5703,-5.5703,-5.5703,-5.5703,-5.5703,-5.5703,-5.5703,-5.5703,-5.5703,-5.5703,-5.5703,-5.5703,-5.5703,-5.5703,-5.5703,-5.5703,-5.5703,-5.5703,-5.5703,-5.5703,-5.5703,-5.5703,-5.5703,-5.5703,-5.5703,-5.5703,-5.5049,-5.4357,-5.3972,-5.2779,-5.1769,-5.1395,-5.0971,-5.0712,-5.0712,-5.0712,-5.0712,-5.0712,-5.0712,-5.0712,-5.0712,-5.0712,-5.0712,-5.0712,-5.0712,-5.0712,-5.0712,-5.0712,-5.0712,-5.0712,-5.0712,-5.0712,-5.0712,-5.0712,-5.0712,-5.0712,-5.0712,-5.0712,-2.5923,-2.8577,-3.0923,-2.9885,-2.9275,-2.8857,-2.8588,-2.6851,-2.5308,-2.5308,-2.5423,-2.5923,-2.7313,-2.9289,-3.0951,-3.1646,-3.671,-4.2201,-4.698,-4.9856,-5.2049,-5.3587,-5.3664,0.0,-5.5742,-5.578,-5.5703,-5.5703,-5.5703,-5.5703,-5.5703,-5.5703,-5.5703,-5.5703,-5.5703,-5.5703,-5.5703,-5.5703,-5.5703,-5.5703,-5.5703,-5.5703,-5.5703,-5.5703,-5.5703,-5.5703,0.0,0.0,-5.5703,-5.5703,-5.5703,-5.5703,-5.5703,-5.5703,-5.5703,-5.5703,-5.5703,-5.5703,-5.5703,-5.5703,-5.5703,-5.5703,-5.5703,-5.5703,-5.5703,-5.5703,-5.5703,-5.5703,-5.5703,-5.5703,-5.5703,-5.5703,-5.5703,-5.5703,-5.5703,-5.5703,-5.5703,-5.5703,-5.5703,-5.5703,-5.4934,-5.4087,-5.3318,-5.2395,-5.151,-5.0789,-5.0712,-5.0712,-5.0712,-5.0712,-5.0712,-5.0712,-5.0712,-5.0712,-5.0712,-5.0712,-5.0712,-5.0712,-5.0712,-5.0712,-5.0712,-5.0712,-5.0712,-5.0712,-5.0712,-5.0712,-5.0712,-5.0712,-5.0712,-5.0712,-5.0712,-5.0712,-2.8846,-3.2115,-3.3346,-2.7538,-2.7082,-2.7698,-2.6231,-2.5577,-2.5308,-2.5308,-2.5885,-2.7544,-3.1237,-3.1814,-3.3045,-3.7255,-4.2332,-4.7027,-5.0625,-5.3318,-5.528,-5.6291,-5.578,-5.5703,-5.6714,-5.6126,-5.5703,-5.5703,0.0,-5.5703,-5.5703,-5.5703,-5.5703,-5.5703,-5.5703,-5.5703,-5.5703,-5.5703,-5.5703,-5.5703,-5.5703,-5.5703,-5.5703,-5.5703,-5.5703,-5.5703,0.0,-5.5703,-5.5703,-5.5703,-5.5703,-5.5703,-5.5703,-5.5703,-5.5703,-5.5703,-5.5703,-5.5703,-5.5703,-5.5703,-5.5703,-5.5703,-5.5703,-5.5703,-5.5703,-5.5703,-5.5703,-5.5703,-5.5703,-5.5703,-5.5703,-5.5703,-5.5703,-5.5703,-5.5703,-5.5703,-5.5703,-5.5703,-5.5703,-5.5703,-5.4434,-5.3356,-5.3241,-5.1895,-5.0818,-5.0712,-5.0712,-5.0712,-5.0712,-5.0712,-5.0712,-5.0712,-5.0712,-5.0712,-5.0712,-5.0712,-5.0712,-5.0712,-5.0712,-5.0712,-5.0712,-5.0712,-5.0712,-5.0712,-5.0712,-5.0712,-5.0712,-5.0712,-5.0712,-5.0712,-5.0712,-5.0712,-2.7231,-2.9808,-3.1621,-2.9852,-3.2776,-3.5892,-3.5084,-3.4199,-3.3122,-3.1731,-3.1423,-3.2,-3.3962,-3.5519,-3.88,-4.5689,-4.7625,-4.9279,-5.2192,-5.2818,-5.3472,-5.478,0.0,-5.4857,-5.6175,-5.5934,-5.5703,0.0,0.0,0.0,-5.5703,-5.5703,-5.5703,-5.5703,-5.5703,-5.5703,-5.5703,-5.5703,-5.5703,-5.5703,-5.5703,-5.5703,-5.5703,-5.5703,-5.5703,-5.5703,0.0,-5.5703,-5.5703,-5.5703,-5.5703,-5.5703,-5.5703,-5.5703,-5.5703,-5.5703,-5.5703,-5.5703,-5.5703,-5.5703,-5.5703,-5.5703,-5.5703,-5.5703,-5.5703,-5.5703,-5.5703,-5.5703,-5.5703,-5.5703,-5.5703,-5.5703,-5.5703,-5.5703,-5.5703,-5.5703,-5.5703,-5.5703,-5.5703,-5.5703,-5.4357,-5.3203,-5.3203,-5.1818,-5.0712,-5.0712,-5.0712,-5.0712,-5.0712,-5.0712,-5.0712,-5.0712,-5.0712,-5.0712,-5.0712,-5.0712,-5.0712,-5.0712,-5.0712,-5.0712,-5.0712,-5.0712,-5.0712,-5.0712,-5.0712,-5.0712,-5.0712,-5.0712,-5.0712,-5.0712,-5.0712,-5.0712,-2.6577,-2.8506,-3.0897,-3.3468,-3.7123,-4.0546,-4.2124,-4.0708,-3.8746,-3.7777,-3.7269,-3.6962,-3.6962,-3.9738,-4.4256,-5.1231,-5.1203,-5.1048,-5.3203,-5.2395,-5.2049,-5.3356,-5.351,-5.4087,-5.5549,0.0,0.0,0.0,0.0,0.0,-5.5703,-5.5703,-5.5703,-5.5703,-5.5703,-5.5703,-5.5703,-5.5703,-5.5703,-5.5703,-5.5703,-5.5703,-5.5703,-5.5703,-5.5703,-5.5703,-5.5703,-5.5703,-5.5703,-5.5703,-5.5703,-5.5703,-5.5703,-5.5703,-5.5703,-5.5703,-5.5703,-5.5703,-5.5703,-5.5703,-5.5703,-5.5703,-5.5703,-5.5703,-5.5703,-5.5703,-5.5703,-5.5703,-5.5703,-5.5703,-5.5703,-5.5703,-5.5703,-5.5703,-5.5703,-5.5703,-5.5703,-5.5703,-5.5703,-5.5703,-5.4357,-5.3203,-5.3203,-5.1818,-5.0712,-5.0712,-5.0712,-5.0712,-5.0712,-5.0712,-5.0712,-5.0712,-5.0712,-5.0712,-5.0712,-5.0712,-5.0712,-5.0712,-5.0712,-5.0712,-5.0712,-5.0712,-5.0712,-5.0712,-5.0712,-5.0712,-5.0712,-5.0712,-5.0712,-5.0712,-5.0712,-5.0712,-3.039,-3.2506,-3.4436,-3.7007,-3.4468,-3.2962,-3.9246,-3.7553,-3.5706,-3.9477,-4.0816,-4.1346,-4.1346,-4.4154,-4.7187,-4.9498,-5.1565,-5.328,-5.428,-5.428,-5.428,-5.4395,-5.4395,-5.4741,0.0,0.0,0.0,0.0,0.0,0.0,-5.5703,-5.5703,-5.5703,-5.5703,-5.5703,-5.5703,-5.5703,-5.5703,-5.5703,-5.5703,-5.5703,-5.5703,-5.5703,-5.5703,-5.5703,-5.5703,-5.5703,-5.5703,-5.5703,-5.5703,-5.5703,-5.5703,-5.5703,-5.5703,-5.5703,-5.5703,-5.5703,-5.5703,-5.5703,-5.5703,-5.5703,-5.5703,-5.5703,-5.5703,-5.5703,-5.5703,-5.5703,-5.5703,-5.5703,-5.5703,-5.5703,-5.5703,-5.5703,-5.5703,-5.5703,-5.5703,-5.5703,-5.5703,-5.5703,-5.5703,-5.4357,-5.3203,-5.3203,-5.1818,-5.0712,-5.0712,-5.0712,-5.0712,-5.0712,-5.0712,-5.0712,-5.0712,-5.0712,-5.0712,-5.0712,-5.0712,-5.0712,-5.0712,-5.0712,-5.0712,-5.0712,-5.0712,-5.0712,-5.0712,-5.0712,-5.0712,-5.0712,-5.0712,-5.0712,-5.0712,-5.0712,-5.0712,-2.8198,-3.1314,-3.4552,-3.6084,-3.6199,-3.7584,-4.3816,-4.4816,-4.5056,-4.7163,-4.7432,-4.6855,-4.5278,-4.8154,-5.0693,-5.0361,-5.2377,-5.3933,-5.3703,-5.3703,-5.3703,-5.3703,-5.4164,0.0,0.0,0.0,0.0,0.0,0.0,0.0,-5.5703,-5.5703,-5.5703,-5.5703,-5.5703,-5.5748,-5.5825,-5.5834,-5.5834,-5.5825,-5.5748,-5.5703,-5.5703,-5.5703,-5.5703,-5.5703,-5.5703,-5.5703,-5.5703,-5.5703,-5.5703,-5.5703,-5.5703,-5.5703,-5.5703,-5.5703,-5.5703,-5.5703,-5.5703,-5.5703,-5.5703,-5.5703,-5.5703,-5.5703,-5.5703,-5.5703,-5.5703,-5.5703,-5.5703,-5.5703,-5.5703,-5.5703,-5.5703,-5.5703,-5.5703,-5.5703,-5.5703,-5.5703,-5.5703,-5.5703,-5.4357,-5.3203,-5.3203,-5.1818,-5.0712,-5.0712,-5.0712,-5.0712,-5.0712,-5.0712,-5.0712,-5.0712,-5.0712,-5.0712,-5.0712,-5.0712,-5.0712,-5.0712,-5.0712,-5.0712,-5.0712,-5.0712,-5.0712,-5.0712,-5.0712,-5.0712,-5.0712,-5.0712,-5.0712,-5.0712,-5.0712,-5.0712,-2.7808,-3.0544,-3.3814,-3.5462,-3.7392,-4.0508,-4.6701,-4.8625,-4.9856,-5.2549,-5.1818,-5.0173,-4.8432,-5.024,-5.1625,-5.0471,-5.2433,-5.378,-5.2933,-5.2779,-5.2779,-5.2779,0.0,0.0,0.0,0.0,0.0,0.0,0.0,0.0,0.0,-5.5703,-5.5703,-5.5703,-5.5703,-5.576,-5.5915,-5.5915,-5.5916,-5.5976,-5.5834,-5.5748,-5.5703,-5.5703,-5.5703,-5.5703,-5.5703,-5.5703,-5.5703,-5.5703,-5.5703,-5.5703,-5.5703,-5.5703,-5.5703,-5.5703,-5.5703,-5.5703,-5.5703,-5.5703,-5.5703,-5.5703,-5.5703,-5.5703,-5.5703,-5.5703,-5.5703,-5.5703,-5.5703,-5.5703,-5.5703,-5.5703,-5.5703,-5.5703,-5.5703,-5.5703,-5.5703,-5.5703,-5.5703,-5.5703,-5.4587,-5.3626,-5.3626,-5.2202,-5.1087,-5.1087,-5.0856,-5.0712,-5.0712,-5.0712,-5.0712,-5.0712,-5.0712,-5.0712,-5.0712,-5.0712,-5.0712,-5.0712,-5.0712,-5.0712,-5.0712,-5.0712,-5.0712,-5.0712,-5.0712,-5.0712,-5.0712,-5.0712,-5.0712,-5.0712,-5.0712,-5.0712,-3.0385,-3.1077,-3.2583,-3.5885,-3.743,-3.9892,-4.6586,-4.6817,-4.7557,-5.428,-5.3059,-5.075,-5.0712,-5.001,-4.9433,-4.9394,-5.1548,-5.2895,-5.2,-5.1885,-5.1885,0.0,0.0,0.0,0.0,0.0,0.0,0.0,0.0,0.0,0.0,-5.5703,-5.5703,-5.5703,-5.5703,-5.576,-5.5877,-5.5885,-5.5991,-5.6191,-5.5984,-5.5843,-5.5714,-5.5703,-5.5703,-5.5703,-5.5703,-5.5703,-5.5703,-5.5703,-5.5703,-5.5703,-5.5703,-5.5703,-5.5714,-5.5714,-5.5714,-5.5714,-5.5714,-5.5714,-5.5703,-5.5703,-5.5703,-5.5703,-5.5703,-5.5703,-5.5703,-5.5703,-5.5703,-5.5703,-5.5703,-5.5703,-5.5703,-5.5703,-5.5703,-5.5703,-5.5703,-5.5703,-5.5703,-5.5703,-5.5049,-5.4511,-5.4511,-5.3049,-5.1923,-5.1885,-5.1202,-5.0712,-5.0712,-5.0712,-5.0712,-5.0712,-5.0712,-5.0712,-5.0712,-5.0712,-5.0712,-5.0712,-5.0712,-5.0712,-5.0712,-5.0712,-5.0712,-5.0712,-5.0712,-5.0712,-5.0712,-5.0712,-5.0712,-5.0712,-5.0712,-5.0712,-2.8044,-3.2699,-3.7546,-3.6192,-4.1846,-4.8163,-4.9586,-4.9048,-4.9356,-5.3164,-5.3626,-5.2626,-5.024,-5.1548,-5.201,-4.8971,-5.0625,-5.201,-5.1164,-5.1048,0.0,0.0,0.0,0.0,0.0,0.0,0.0,0.0,0.0,0.0,0.0,-5.5703,-5.5703,-5.5703,-5.5703,-5.5845,-5.6122,-5.6122,-5.6197,-5.6351,-5.6197,-5.6029,-5.5852,-5.5758,-5.5703,-5.5703,-5.5703,-5.5703,-5.5703,-5.5703,-5.5703,-5.5703,-5.5703,-5.575,-5.5861,-5.5861,-5.5861,-5.5861,-5.5861,-5.5789,-5.5703,-5.5703,-5.5703,-5.5703,-5.5703,-5.5703,-5.5703,-5.5703,-5.5703,-5.5703,-5.5703,-5.5703,-5.5703,-5.5703,-5.5703,-5.5703,-5.5703,-5.5703,-5.5703,-5.5703,-5.5049,-5.4511,-5.4511,-5.3549,-5.2615,-5.2,-5.1692,-5.1356,-5.0789,-5.0712,-5.0712,-5.0712,-5.0712,-5.0712,-5.0712,-5.0712,-5.0712,-5.0712,-5.0712,-5.0712,-5.0712,-5.0712,-5.0712,-5.0712,-5.0712,-5.0712,-5.0712,-5.0712,-5.0712,-5.0712,-5.0712,-5.0712,-3.1775,-3.6469,-4.1162,-4.1846,-4.65,-5.1048,-5.1587,-5.1548,-5.1856,-5.3395,-5.3587,-5.2856,-5.0779,-5.1818,-5.2125,-4.9548,-5.0433,-5.1241,-5.0789,0.0,0.0,0.0,0.0,0.0,0.0,0.0,0.0,0.0,0.0,0.0,0.0,-5.5703,-5.5703,-5.5703,-5.5703,-5.5843,-5.6191,-5.6191,-5.6281,-5.6463,-5.6277,-5.6146,-5.5991,-5.5798,-5.5703,-5.5703,-5.5703,-5.5703,-5.5714,-5.575,-5.5789,-5.5798,-5.5861,-5.5939,-5.6005,-5.6005,-5.5954,-5.5915,-5.5915,-5.5807,-5.5703,-5.5703,-5.5703,-5.5703,-5.5703,-5.5703,-5.5703,-5.5703,-5.5703,-5.5703,-5.5703,-5.5703,-5.5703,-5.5703,-5.5703,-5.5703,-5.5703,-5.5703,-5.5703,-5.5703,-5.5318,-5.4972,-5.4972,-5.428,-5.3433,-5.2538,-5.1856,-5.1241,-5.075,-5.0712,-5.0712,-5.0712,-5.0712,-5.0712,-5.0712,-5.0712,-5.0712,-5.0712,-5.0712,-5.0712,-5.0712,-5.0712,-5.0712,-5.0712,-5.0712,-5.0712,-5.0712,-5.0712,-5.0712,-5.0712,-5.0712,-5.0712,-3.8361,-4.1046,-4.3846,-5.0,-5.0702,-5.0471,-5.2779,-5.3818,-5.4241,-5.4164,-5.2972,-5.1885,-5.1808,-5.1241,-5.0789,-5.0712,-5.0712,-5.0712,0.0,0.0,0.0,0.0,0.0,0.0,0.0,0.0,0.0,0.0,0.0,0.0,0.0,-5.5703,-5.5703,-5.5703,-5.5696,-5.5852,-5.6169,-5.6197,-5.6354,-5.6562,-5.6312,-5.6212,-5.6202,-5.5861,-5.5717,-5.5738,-5.5717,-5.5717,-5.5758,-5.5849,-5.5893,-5.5971,-5.6141,-5.6202,-5.6212,-5.6212,-5.6083,-5.5939,-5.5939,-5.587,-5.5748,-5.5748,-5.5748,-5.5738,-5.5717,-5.5707,-5.5735,-5.5714,-5.5703,-5.5703,-5.5703,-5.5703,-5.5703,-5.5703,-5.5703,-5.5703,-5.5703,-5.5703,-5.5703,-5.5703,-5.5703,-5.5703,-5.5703,-5.5011,-5.4164,-5.3241,-5.1702,-5.0712,-5.0712,-5.0712,-5.0712,-5.0712,-5.0712,-5.0712,-5.0712,-5.0712,-5.0712,-5.0712,-5.0712,-5.0712,-5.0712,-5.0712,-5.0712,-5.0712,-5.0712,-5.0712,-5.0712,-5.0712,-5.0712,-5.0712,-5.0712,-5.0712,-3.4391,-4.0508,-4.7086,-4.8548,-5.1164,-5.3549,-5.4087,-5.3318,-5.2279,-5.1664,-5.1741,-5.1692,-5.1087,-5.1318,-5.1433,-5.0789,-5.0712,0.0,0.0,0.0,0.0,0.0,0.0,0.0,0.0,0.0,0.0,0.0,0.0,0.0,-5.5703,-5.5703,-5.5703,-5.5703,-5.5788,-5.5891,-5.5947,-5.6242,-5.6383,0.0,-5.638,-5.6365,-5.6358,-5.5998,-5.5947,-5.6084,-5.5924,-5.5947,-5.6084,-5.5932,-5.5976,-5.6146,-5.6181,-5.6256,-5.6365,-5.6365,-5.6312,-5.6293,-5.6293,-5.6217,-5.6091,-5.6091,-5.6091,-5.6064,-5.5899,-5.5849,-5.5852,-5.5728,-5.5703,-5.5703,-5.5703,-5.5703,-5.5703,-5.5703,-5.5703,-5.5703,-5.5703,-5.5703,-5.5703,-5.5703,-5.5703,-5.5703,-5.5703,-5.5011,-5.3972,-5.2423,-5.1356,-5.0712,-5.0712,-5.0712,-5.0712,-5.0712,-5.0712,-5.0712,-5.0712,-5.0712,-5.0712,-5.0712,-5.0712,-5.0712,-5.0712,-5.0712,-5.0712,-5.0712,-5.0712,-5.0712,-5.0712,-5.0712,-5.0712,-5.0712,-5.0712,-5.0712,-3.693,-4.2239,-4.7163,-5.0818,-5.3126,-5.4511,-5.4511,-5.3164,-5.1769,-5.1356,-5.1318,-5.1202,-5.0789,-5.1048,-5.1202,-5.0789,0.0,0.0,0.0,0.0,0.0,0.0,0.0,0.0,0.0,0.0,0.0,0.0,0.0,-5.5703,-5.5703,-5.5703,-5.5703,-5.5703,-5.5843,-5.5971,-5.6025,-5.6281,-5.6445,-5.6508,-5.6445,-5.6389,-5.6386,-5.6136,-5.6116,-5.6186,-5.6104,-5.6116,-5.6191,-5.6142,-5.6184,-5.6285,-5.6371,-5.6448,-5.6508,-5.6508,-5.6456,-5.6389,-5.6389,-5.6293,-5.6191,-5.6191,-5.6191,-5.6181,-5.6091,-5.6001,-5.5899,-5.5816,-5.5768,-5.5703,-5.5703,-5.5703,-5.5703,-5.5703,-5.5703,-5.5703,-5.5703,-5.5703,-5.5703,-5.5703,-5.5703,-5.5703,-5.5703,-5.4703,-5.3587,-5.2654,-5.1471,-5.0712,-5.0712,-5.0712,-5.0712,-5.0712,-5.0712,-5.0712,-5.0712,-5.0712,-5.0712,-5.0712,-5.0712,-5.0712,-5.0712,-5.0712,-5.0712,-5.0712,-5.0712,-5.0712,-5.0712,-5.0712,-5.0712,-5.0712,-5.0712,-5.0712,-3.9238,-4.3278,-4.6509,-5.3857,-5.5088,-5.4511,-5.4511,-5.328,-5.2077,-5.1923,-5.1279,-5.0712,-5.0712,-5.0712,-5.0712,0.0,0.0,0.0,0.0,0.0,0.0,0.0,0.0,0.0,0.0,0.0,0.0,0.0,0.0,-5.5703,-5.5703,-5.5703,-5.5724,-5.5738,-5.5866,-5.6012,-5.6191,-5.6365,-5.6463,-5.6561,-5.6463,-5.6445,-5.6445,-5.6301,-5.626,-5.626,-5.6237,-5.6242,-5.6264,-5.6368,-5.6397,-5.6452,-5.656,-5.6601,-5.6601,-5.6601,-5.6517,-5.6445,-5.6445,-5.6368,-5.626,-5.626,-5.626,-5.6256,-5.6232,-5.6102,-5.5976,-5.5947,-5.5852,-5.5738,-5.5738,-5.5707,-5.5714,-5.5728,-5.5738,-5.5738,-5.5738,-5.5778,-5.5798,-5.5748,-5.5696,-5.5665,-5.5511,-5.4203,-5.3164,-5.301,-5.1664,-5.0712,-5.0712,-5.0712,-5.0712,-5.0712,-5.0712,-5.0712,-5.0712,-5.0712,-5.0712,-5.0712,-5.0712,-5.0712,-5.0712,-5.0712,-5.0712,-5.0712,-5.0712,-5.0712,-5.0712,-5.0712,-5.0712,-5.0712,-5.0712,-5.0712,-3.1846,-3.9231,-4.8048,-5.4164,-5.5088,-5.4511,-5.4511,-5.3741,-5.2818,-5.2038,-5.1279,-5.0712,-5.0712,-5.0712,-5.0712,0.0,0.0,0.0,0.0,0.0,0.0,0.0,0.0,0.0,0.0,0.0,0.0,0.0,-5.5703,-5.5703,-5.5703,-5.5703,-5.574,-5.5866,-5.6078,-5.6175,-5.6191,-5.6454,-5.6516,-5.6443,-5.6516,-5.6562,-5.6561,-5.656,-5.6558,-5.6558,-5.6402,-5.645,-5.6558,-5.645,-5.646,-5.6562,-5.6601,-5.6601,-5.6601,-5.6601,-5.6601,-5.6562,-5.6562,-5.656,-5.6558,-5.6558,-5.6558,-5.6516,-5.6394,-5.6368,-5.6301,-5.6197,-5.6037,-5.5874,-5.5874,-5.5798,-5.5728,-5.587,-5.5874,-5.5874,-5.5874,-5.6022,-5.6091,-5.5915,-5.5789,-5.5472,-5.478,-5.3857,-5.2933,-5.2192,-5.1279,-5.0712,-5.0712,-5.0712,-5.0712,-5.0712,-5.0712,-5.0712,-5.0712,-5.0712,-5.0712,-5.0712,-5.0712,-5.0712,-5.0712,-5.0712,-5.0712,-5.0712,-5.0712,-5.0712,-5.0712,-5.0712,-5.0712,-5.0712,-5.0712,-5.0712,-3.3583,-4.1354,-4.8894,-5.4357,-5.5434,-5.5164,-5.5164,-5.4511,-5.3818,-5.3433,-5.2702,-5.1818,-5.0866,-5.0712,0.0,0.0,0.0,0.0,0.0,0.0,0.0,0.0,0.0,0.0,0.0,0.0,0.0,0.0,-5.5703,-5.5703,-5.5703,-5.5703,-5.575,-5.5915,-5.611,-5.6227,-5.6293,-5.6511,-5.6561,-5.6512,-5.6561,-5.6601,-5.6601,-5.6601,-5.6601,-5.6601,-5.6557,-5.6558,-5.6601,-5.6557,-5.6558,-5.6601,-5.6601,-5.6601,-5.6601,-5.6601,-5.6601,-5.6601,-5.6601,-5.6601,-5.6601,-5.6601,-5.6601,-5.6601,-5.6517,-5.6458,-5.6383,-5.6344,-5.6207,-5.6084,-5.6084,-5.6029,-5.5986,-5.6071,-5.6119,-5.6173,-5.6173,-5.6202,-5.6146,-5.5924,-5.584,-5.5692,-5.5235,-5.4087,-5.3087,-5.2692,-5.151,-5.0712,-5.0712,-5.0712,-5.0712,-5.0712,-5.0712,-5.0712,-5.0712,-5.0712,-5.0712,-5.0712,-5.0712,-5.0712,-5.0712,-5.0712,-5.0712,-5.0712,-5.0712,-5.0712,-5.0712,-5.0712,-5.0712,-5.0712,-5.0712,-5.0712,-3.443,-4.0431,-4.524,-5.2087,-5.378,-5.4126,-5.5395,-5.5241,-5.4741,-5.4549,-5.3972,-5.3087,-5.1625,-5.1318,0.0,0.0,0.0,0.0,0.0,0.0,0.0,0.0,0.0,0.0,0.0,0.0,0.0,0.0,-5.5703,-5.5703,-5.5703,-5.5703,-5.575,-5.5915,-5.611,-5.6256,-5.6389,-5.6517,-5.6601,-5.6601,-5.6601,-5.6601,-5.6601,-5.6601,-5.6601,-5.6601,-5.6601,-5.6601,-5.6601,-5.6601,-5.6601,-5.6601,-5.6601,-5.6601,-5.6601,-5.6601,-5.6601,-5.6601,-5.6601,-5.6601,-5.6601,-5.6601,-5.6601,-5.6601,-5.6601,-5.6517,-5.6454,-5.6454,-5.6365,-5.6242,-5.6242,-5.6217,-5.6202,-5.6237,-5.6344,-5.6394,-5.645,-5.6358,-5.6212,-5.6058,-5.5991,-5.5932,-5.5779,-5.4342,-5.3244,-5.3213,-5.1779,-5.0712,-5.0712,-5.0712,-5.0712,-5.0712,-5.0712,-5.0712,-5.0712,-5.0712,-5.0712,-5.0712,-5.0894,-5.0894,-5.0712,-5.0894,-5.0894,-5.0712,-5.0712,-5.0712,-5.0712,-5.0712,-5.0712,-5.0712,-5.0712,-5.0712,-2.9967,-3.1731,-3.4077,-4.5624,-4.8509,-4.9779,-5.4587,-5.5665,-5.5434,-5.4664,-5.4472,-5.4164,-5.3241,0.0,0.0,0.0,0.0,0.0,0.0,0.0,0.0,0.0,0.0,0.0,0.0,0.0,0.0,0.0,-5.5703,-5.5703,-5.5703,-5.5703,-5.575,-5.5915,-5.611,-5.6256,-5.6389,-5.6517,-5.6601,-5.6601,-5.6601,-5.6601,-5.6601,-5.6601,-5.6601,-5.6601,-5.6601,-5.6601,-5.6601,-5.6601,-5.6601,-5.6601,-5.6601,-5.6601,-5.6601,-5.6601,-5.6601,-5.6601,-5.6601,-5.6601,-5.6601,-5.6601,-5.6601,-5.6601,-5.6601,-5.6601,-5.6601,-5.6601,-5.6507,-5.6383,-5.6383,-5.6281,-5.6227,-5.6365,-5.6386,-5.6445,-5.656,-5.6466,-5.6383,-5.638,-5.6264,-5.6128,-5.5901,-5.4483,-5.3335,-5.3205,-5.1779,-5.0712,-5.0712,-5.0712,-5.0712,-5.0712,-5.0712,-5.0712,-5.0712,-5.0712,-5.0712,-5.0712,-5.1433,-5.151,-5.075,-5.1433,-5.1471,-5.0712,-5.0712,-5.0712,-5.0712,-5.0712,-5.0712,-5.0712,-5.0712,-5.0712,-2.7621,-2.9813,-3.2346,-4.0431,-4.4893,-4.7932,-5.0279,-5.3356,-5.5626,-5.5318,-5.528,-5.5164,0.0,0.0,0.0,0.0,0.0,0.0,0.0,0.0,0.0,0.0,0.0,0.0,0.0,0.0,0.0,0.0,0.0,-5.5703,-5.5703,-5.5703,-5.5827,-5.6097,-5.6164,-5.6289,-5.6516,-5.6562,-5.6601,-5.6601,-5.6601,-5.6601,-5.6601,-5.6601,-5.6601,-5.6601,-5.6601,-5.6601,-5.6601,-5.6601,-5.6601,-5.6601,-5.6601,-5.6601,-5.6601,-5.6601,-5.6601,-5.6601,-5.6601,-5.6601,-5.6601,-5.6601,-5.6601,-5.6601,-5.6601,-5.6601,-5.6601,-5.6601,-5.6561,-5.6516,-5.6516,-5.6508,-5.6462,-5.6514,-5.6516,-5.6558,-5.6601,-5.656,-5.651,-5.6438,-5.6368,-5.6273,-5.6135,-5.4587,-5.3399,-5.3348,-5.1817,-5.0712,-5.0712,-5.0712,-5.0712,-5.0712,-5.0712,-5.0712,-5.0712,-5.0712,-5.0933,-5.1433,-5.1279,-5.1241,-5.1471,-5.1241,-5.0971,-5.0712,-5.0712,-5.0712,-5.0712,-5.0712,-5.0712,-5.0712,-5.0712,-5.0712,-2.4005,-2.5923,-2.8654,-3.543,-3.9046,-4.2354,-4.774,-5.0933,-5.3318,-5.528,-5.5703,-5.5703,0.0,0.0,0.0,0.0,0.0,0.0,0.0,0.0,0.0,0.0,0.0,0.0,0.0,0.0,0.0,0.0,0.0,0.0,-5.5703,-5.5703,-5.5834,-5.6186,-5.6237,-5.6377,-5.6601,-5.6601,-5.6601,-5.6601,-5.6601,-5.6601,-5.6601,-5.6601,-5.6601,-5.6601,-5.6601,-5.6601,-5.6601,-5.6601,-5.6601,-5.6601,-5.6601,-5.6601,-5.6601,-5.6601,-5.6601,-5.6601,-5.6601,-5.6601,-5.6601,-5.6601,-5.6601,-5.6601,-5.6601,-5.6601,-5.6601,-5.6601,-5.6601,-5.6601,-5.6601,-5.6601,-5.6601,-5.6601,-5.6601,-5.6601,-5.6601,-5.6601,-5.6562,-5.6466,-5.646,-5.6326,-5.5887,-5.4557,-5.341,-5.301,-5.1708,-5.0767,-5.0721,-5.0712,-5.0712,-5.0712,-5.0712,-5.0712,-5.0712,-5.0712,-5.1048,-5.1846,-5.1395,-5.1356,-5.1885,-5.1395,-5.0971,-5.0712,-5.0712,-5.0712,-5.0712,-5.0712,-5.0712,-5.0712,-5.0712,-5.0712,0.0,0.0,0.0,-3.0467,-3.0814,-3.2782,-4.6903,-4.8317,-4.8317,-5.4241,-5.5472,-5.5472,0.0,0.0,0.0,0.0,0.0,0.0,0.0,0.0,0.0,0.0,0.0,0.0,0.0,0.0,0.0,0.0,-5.5703,-5.5703,-5.5703,-5.5724,-5.5843,-5.6186,-5.6351,-5.646,-5.6601,-5.6601,-5.6601,-5.6601,-5.6601,-5.6601,-5.6601,-5.6601,-5.6601,-5.6601,-5.6601,-5.6601,-5.6601,-5.6601,-5.6601,-5.6601,-5.6601,-5.6601,-5.6601,-5.6601,-5.6601,-5.6601,-5.6601,-5.6601,-5.6601,-5.6601,-5.6601,-5.6601,-5.6601,-5.6601,-5.6601,-5.6601,-5.6601,-5.6601,-5.6601,-5.6601,-5.6601,-5.6601,-5.6601,-5.6601,-5.6601,-5.6601,-5.664,-5.6601,-5.6601,-5.6287,-5.527,-5.4365,-5.3419,-5.2278,-5.1438,-5.0859,-5.0712,-5.0712,-5.0712,-5.0712,-5.0712,-5.0712,-5.0721,-5.0721,-5.1058,-5.1856,-5.1895,-5.1895,-5.1885,-5.1885,-5.1548,-5.075,-5.075,-5.0789,-5.0789,-5.0712,-5.0712,-5.0712,-5.0712,-5.0712,-1.9007,0.0,0.0,0.0,0.0,0.0,-3.4968,-3.8315,-4.2316,-4.8856,-4.974,-5.0625,0.0,0.0,0.0,0.0,0.0,0.0,0.0,0.0,0.0,0.0,0.0,0.0,0.0,0.0,0.0,0.0,-5.5703,-5.5703,-5.5703,-5.5938,-5.6104,-5.6191,-5.6404,-5.656,-5.6601,-5.6601,-5.6601,-5.6601,-5.6601,-5.6601,-5.6601,-5.6601,-5.6601,-5.6601,-5.6601,-5.6601,-5.6601,-5.6601,-5.6601,-5.6601,-5.6601,-5.6601,-5.6601,-5.6601,-5.6601,-5.6601,-5.6601,-5.6601,-5.6601,-5.6601,-5.6601,-5.6601,-5.6601,-5.6601,-5.6601,-5.6601,-5.6601,-5.6601,-5.6601,-5.6601,-5.6601,-5.6601,-5.6601,-5.6601,-5.6601,-5.7109,-5.7344,-5.6719,-5.6601,-5.6328,-5.5387,-5.4431,-5.3496,-5.2547,-5.1525,-5.0905,-5.0851,-5.0738,-5.0712,-5.0712,-5.0712,-5.074,-5.0835,-5.0844,-5.1191,-5.1995,-5.1493,-5.1387,-5.1895,-5.1885,-5.1808,-5.1587,-5.2202,-5.251,-5.251,-5.1279,-5.0712,-5.0712,-5.0712,-5.0712,-1.92,-1.9888,-2.0966,-2.1696,0.0,0.0,-3.3654,-3.6622,-4.0508,0.0,-5.0894,-5.1741,0.0,0.0,0.0,0.0,0.0,0.0,0.0,0.0,0.0,0.0,0.0,0.0,0.0,-5.5703,0.0,-5.5703,-5.5703,-5.5717,-5.5789,-5.605,-5.6217,-5.6269,-5.6507,-5.6601,-5.6601,-5.6601,-5.6601,-5.6601,-5.6601,-5.6601,-5.6601,-5.6601,-5.6601,-5.6601,-5.6601,-5.6601,-5.6601,-5.6601,-5.6601,-5.6601,-5.6601,-5.6601,-5.6601,-5.6601,-5.6601,-5.6601,-5.6601,-5.6601,-5.6601,-5.6601,-5.6601,-5.6601,-5.6601,-5.6601,-5.6601,-5.6601,-5.6601,-5.6601,-5.6601,-5.6601,-5.6601,-5.6601,-5.6875,-5.7148,-5.7148,-5.7812,-5.8086,-5.6836,-5.6875,-5.6758,-5.5508,-5.48,-5.4003,-5.2691,-5.1978,-5.1408,-5.0949,-5.0827,-5.0782,-5.0782,-5.1099,-5.1305,-5.1377,-5.178,-5.2181,-5.2632,-5.1896,-5.1812,-5.2585,-5.2268,-5.2189,-5.2527,-5.302,-5.3282,-5.3203,-5.2202,-5.1741,-5.1741,-5.1356,-5.1222,-1.9996,-2.0577,-2.212,-2.3471,-2.2389,0.0,-3.6692,-3.793,-3.9585,0.0,-5.2818,-5.3203,0.0,0.0,0.0,0.0,0.0,0.0,0.0,0.0,0.0,0.0,0.0,0.0,-5.5703,-5.5703,-5.5703,-5.5703,-5.5696,-5.5789,-5.5939,-5.6135,-5.6264,-5.6389,-5.6517,-5.6601,-5.6601,-5.6601,-5.6601,-5.6601,-5.6601,-5.6601,-5.6601,-5.6601,-5.6601,-5.6601,-5.6601,-5.6601,-5.6601,-5.6601,-5.6601,-5.6601,-5.6601,-5.6601,-5.6601,-5.6601,-5.6601,-5.6601,-5.6601,-5.6601,-5.6601,-5.6601,-5.6601,-5.6601,-5.6601,-5.6601,-5.6601,-5.6601,-5.6601,-5.6601,-5.6601,-5.6601,-5.6601,-5.6601,-5.7265,-5.789,-5.789,-5.8633,-5.8867,-5.7226,-5.75,-5.7539,-5.5859,-5.5508,-5.4803,-5.294,-5.2655,-5.2246,-5.1231,-5.1132,-5.1196,-5.1196,-5.1823,-5.2264,-5.2309,-5.3119,-5.3524,-5.3318,-5.268,-5.267,-5.3429,-5.2811,-5.2791,-5.3536,-5.363,-5.3627,-5.3512,-5.329,-5.3203,-5.3164,-5.2423,-5.2105,-2.3274,-2.2816,-2.3355,-2.2274,-2.3697,0.0,-2.5466,-2.6159,-2.8434,0.0,-3.4776,-3.5821,0.0,0.0,0.0,0.0,0.0,0.0,0.0,0.0,0.0,0.0,0.0,0.0,0.0,-5.5703,-5.5703,-5.5703,-5.5788,-5.5955,-5.6141,-5.6273,-5.6374,-5.6389,-5.6517,-5.6601,-5.6601,-5.6601,-5.6601,-5.6601,-5.6601,-5.6601,-5.6601,-5.6601,-5.6601,-5.6601,-5.6601,-5.6601,-5.6601,-5.6601,-5.6601,-5.6601,-5.6601,-5.6601,-5.6601,-5.6601,-5.6601,-5.6601,-5.6601,-5.6601,-5.6601,-5.6601,-5.6601,-5.6601,-5.6601,-5.6601,-5.6601,-5.6601,-5.6601,-5.6601,-5.6601,-5.6601,-5.6601,-5.6601,-5.7265,-5.789,-5.789,-5.9101,-5.9883,-5.8867,-5.8828,-5.8633,-5.7578,-5.6797,-5.5742,-5.3983,-5.3613,-5.3225,-5.2295,-5.2727,-5.3052,-5.3052,-5.3208,-5.3332,-5.3458,-5.3637,-5.3442,-5.2721,-5.2542,-5.248,-5.2543,-5.3039,-5.373,-5.4602,-5.5155,-5.5396,-5.5354,-5.3918,-5.3203,-5.3203,-5.3049,-5.304,-2.4933,-2.4048,-2.4505,-2.3615,-2.4389,0.0,0.0,-2.6928,-2.8698,-3.3776,-3.3814,-3.4083,-3.793,0.0,0.0,0.0,0.0,0.0,0.0,0.0,0.0,0.0,0.0,0.0,0.0,-5.5703,-5.5728,-5.5779,-5.5963,-5.6102,-5.6277,-5.6368,-5.6445,-5.6508,-5.6561,-5.6601,-5.6601,-5.6601,-5.6601,-5.6601,-5.6601,-5.6601,-5.6601,-5.6601,-5.6601,-5.6601,-5.6601,-5.6601,-5.6601,-5.6601,-5.6601,-5.6601,-5.6601,-5.6601,-5.6601,-5.6601,-5.6601,-5.6601,-5.6601,-5.6601,-5.6601,-5.6601,-5.6601,-5.6601,-5.6601,-5.6601,-5.6601,-5.6601,-5.6601,-5.6601,-5.6601,-5.6601,-5.6601,-5.6601,-5.7617,-5.8555,-5.8555,-5.9531,-6.039,-6.043,-6.0117,-5.9531,-5.8672,-5.8203,-5.7305,-5.5547,-5.5622,-5.5334,-5.3982,-5.4102,-5.4351,-5.4351,-5.4741,-5.5032,-5.5104,-5.5563,-5.545,-5.4482,-5.4117,-5.3886,-5.3782,-5.4209,-5.4814,-5.5627,-5.5925,-5.5984,-5.5915,-5.4993,-5.4526,-5.4434,-5.4049,-5.3953,-2.6895,-2.589,-2.6577,-2.5769,-2.5543,-2.6356,0.0,0.0,0.0,-3.493,-3.4622,-3.4007,-3.5584,0.0,0.0,0.0,0.0,0.0,0.0,0.0,0.0,0.0,0.0,0.0,0.0,-5.3933,-5.4381,-5.5847,-5.4885,-5.4857,-5.6308,-5.6402,-5.6506,-5.6601,-5.6601,-5.6601,-5.6601,-5.6601,-5.6601,-5.6601,-5.6601,-5.6601,-5.6601,-5.6601,-5.6601,-5.6601,-5.6601,-5.6601,-5.6601,-5.6601,-5.6601,-5.6601,-5.6601,-5.6601,-5.6601,-5.6601,-5.6601,-5.6601,-5.6601,-5.6601,-5.6601,-5.6601,-5.6601,-5.6601,-5.6601,-5.6601,-5.6601,-5.6601,-5.6601,-5.6601,-5.6601,-5.6601,-5.664,-5.6797,-5.8047,-5.9219,-5.9219,-5.9844,-6.0547,-6.1094,-6.0781,-6.0234,-5.9765,-5.9531,-5.8906,-5.7344,-5.7695,-5.7537,-5.5874,-5.5792,-5.5909,-5.5909,-5.6534,-5.6922,-5.6957,-5.769,-5.7653,-5.653,-5.5894,-5.5469,-5.5312,-5.5469,-5.5817,-5.645,-5.6289,-5.6175,-5.5998,-5.5916,-5.5843,-5.5665,-5.5063,-5.4899,-3.1166,-3.0237,-3.116,-2.739,-2.8659,-2.9583,-2.4889,0.0,-2.4586,-2.3697,0.0,-2.2423,-2.3351,0.0,0.0,0.0,0.0,0.0,-3.0589,-3.6629,-4.1439,0.0,0.0,0.0,0.0,0.0,-4.9373,-5.568,-5.0581,-4.9868,-5.6077,-5.6512,-5.6562,-5.6601,-5.6601,-5.6601,-5.6601,-5.6601,-5.6601,-5.6601,-5.6601,-5.6601,-5.6601,-5.6601,-5.6601,-5.6601,-5.6601,-5.6601,-5.6601,-5.6601,-5.6601,-5.6601,-5.6601,-5.6601,-5.6601,-5.6601,-5.6601,-5.6601,-5.6601,-5.6601,-5.6601,-5.6601,-5.6601,-5.6601,-5.6601,-5.6601,-5.6601,-5.6601,-5.6601,-5.6601,-5.6601,-5.6601,-5.6797,-5.7578,-5.8476,-5.9219,-5.9219,-5.9844,-6.0234,-5.9609,-5.9961,-6.0625,-6.1289,-6.0781,-5.9961,-5.9023,-5.8984,-5.8711,-5.7695,-5.8241,-5.8749,-5.8749,-5.8827,-5.8866,-5.8866,-5.8984,-5.8359,-5.6679,-5.6484,-5.6094,-5.5312,-5.6055,-5.6484,-5.6562,-5.6452,-5.6371,-5.6322,-5.6052,-5.5843,-5.5714,-5.5748,-5.5853,-3.1204,-3.2045,-3.3737,-2.8005,-2.9506,-3.0698,-2.4279,-2.2701,-2.2389,-2.1658,0.0,0.0,0.0,0.0,0.0,0.0,-2.5236,0.0,0.0,0.0,-3.9246,0.0,0.0,0.0,0.0,0.0,0.0,0.0,0.0,-4.9897,-5.6904,-5.6835,-5.6601,-5.6601,-5.6601,-5.6601,-5.6601,-5.6601,-5.6601,-5.6601,-5.6601,-5.6601,-5.6601,-5.6601,-5.6601,-5.6601,-5.6601,-5.6601,-5.6601,-5.6601,-5.6601,-5.6601,-5.6601,-5.6601,-5.6601,-5.6601,-5.6601,-5.6601,-5.6601,-5.6601,-5.6601,-5.6601,-5.6601,-5.6601,-5.6601,-5.6601,-5.6601,-5.6601,-5.6601,-5.6601,-5.6601,-5.6601,-5.6836,-5.7695,-5.8164,-5.8594,-5.9101,-5.9062,-5.8984,-5.918,-5.9453,-5.9961,-6.0781,-6.1055,-6.0859,-6.0039,-6.0312,-6.0351,-5.9453,-5.9687,-5.9883,-5.9883,-5.9883,-5.9883,-5.9883,-5.9883,-5.957,-5.8867,-5.8359,-5.793,-5.7578,-5.7422,-5.7344,-5.7344,-5.6793,-5.6463,-5.6389,-5.6273,-5.6108,-5.5978,-5.5939,-5.6045,-3.3821,-3.493,-3.6231,-2.8544,-2.9083,-3.0006,-2.4125,-2.2509,-2.2197,-2.2197,-2.1431,0.0,0.0,0.0,0.0,0.0,0.0,-2.512,0.0,-2.7895,0.0,0.0,0.0,0.0,0.0,0.0,0.0,0.0,0.0,0.0,-5.7379,-5.7265,-5.6836,-5.6601,-5.6601,-5.6601,-5.6601,-5.6601,-5.6601,-5.6601,-5.6601,-5.6601,-5.6601,-5.6601,-5.6601,-5.6601,-5.6601,-5.6601,-5.6601,-5.6601,-5.6601,-5.6601,-5.6601,-5.6601,-5.6601,-5.6601,-5.6601,-5.6601,-5.6601,-5.6601,-5.6601,-5.6601,-5.6601,-5.6601,-5.6601,-5.6601,-5.6601,-5.6601,-5.6601,-5.6601,-5.6601,-5.6601,-5.6836,-5.7695,-5.789,-5.8086,-5.8711,-5.8359,-5.8008,-5.8398,-5.8867,-5.9375,-5.9961,-6.0976,-6.1484,-6.0859,-6.1289,-6.1484,-6.0859,-6.0742,-6.0742,-6.0742,-6.0742,-6.0742,-6.0742,-6.0742,-6.0664,-6.043,-5.9648,-5.9219,-5.9219,-5.8594,-5.8242,-5.8242,-5.7617,-5.7145,-5.6807,-5.675,-5.6608,-5.6293,-5.6119,-5.6163,-4.1708,-4.0277,-3.9231,-2.9121,-2.7351,-2.7126,-2.3586,-2.3432,-2.4014,-2.4014,-2.4582,-2.4885,-2.4125,-2.2547,0.0,0.0,0.0,0.0,0.0,0.0,0.0,0.0,0.0,0.0,0.0,0.0,0.0,0.0,0.0,0.0,-5.7021,-5.7806,-5.7461,-5.664,-5.6601,-5.6601,-5.6601,-5.6601,-5.6601,-5.6601,-5.6601,-5.6601,-5.6601,-5.6601,-5.6601,-5.6601,-5.6601,-5.6601,-5.6601,-5.6601,-5.6601,-5.6601,-5.6601,-5.6601,-5.6601,-5.6601,-5.6601,-5.6601,-5.6601,-5.6601,-5.6601,-5.6601,-5.6601,-5.6601,-5.6601,-5.6601,-5.6601,-5.6601,-5.6601,-5.6601,-5.6601,-5.6601,-5.6836,-5.7695,-5.789,-5.789,-5.793,-5.793,-5.7656,-5.6836,-5.8047,-5.9219,-5.9219,-6.0625,-6.168,-6.164,-6.168,-6.168,-6.164,-6.164,-6.164,-6.164,-6.164,-6.164,-6.164,-6.164,-6.1289,-6.0469,-5.9648,-5.9219,-5.9219,-5.918,-5.914,-5.914,-5.914,-5.8711,-5.7851,-5.7709,-5.728,-5.6562,-5.6454,-5.6386,0.0,0.0,-4.7355,-3.5462,-3.4808,-3.4737,-2.5702,-2.474,-2.5279,-2.3586,-2.4812,-2.5543,-2.3586,-2.2274,0.0,0.0,0.0,0.0,0.0,0.0,0.0,0.0,0.0,0.0,0.0,0.0,0.0,0.0,0.0,0.0,0.0,-5.8202,-5.75,-5.664,-5.6601,-5.6601,-5.6601,-5.6601,-5.6601,-5.6601,-5.6601,-5.6601,-5.6601,-5.6601,-5.6601,-5.6601,-5.6601,-5.6601,-5.6601,-5.6601,-5.6601,-5.6601,-5.6601,-5.6601,-5.6601,-5.6601,-5.6601,-5.6601,-5.6601,-5.6601,-5.6601,-5.6601,-5.6601,-5.6601,-5.6601,-5.6601,-5.6601,-5.6601,-5.6601,-5.6601,-5.6601,-5.6601,-5.6836,-5.7695,-5.7461,-5.7187,-5.7773,-5.7461,-5.6953,-5.664,-5.8008,-5.9219,-5.9219,-6.0586,-6.1719,-6.1719,-6.1719,-6.1719,-6.1719,-6.1719,-6.1719,-6.1719,-6.1719,-6.1719,-6.1719,-6.1719,-6.1562,-6.1289,-6.1015,-6.0859,-6.0859,-6.0312,-6.0,-6.0,-5.9453,-5.9062,-5.875,-5.8122,-5.7692,-5.7461,-5.6833,-5.6517,-4.9856,-5.1548,0.0,-4.0846,-4.0231,0.0,-2.955,-2.8544,-2.8962,-2.6082,-2.6313,-2.7121,-2.7274,-2.4889,0.0,0.0,0.0,0.0,0.0,-1.7083,0.0,0.0,0.0,0.0,0.0,0.0,0.0,0.0,0.0,0.0,0.0,0.0,-5.7812,-5.664,-5.6601,-5.6601,-5.6601,-5.6601,-5.6601,-5.6601,-5.6601,-5.6601,-5.6601,-5.6601,-5.6601,-5.6601,-5.6601,-5.6601,-5.6601,-5.6601,-5.6601,-5.6601,-5.6601,-5.6601,-5.6601,-5.6601,-5.6601,-5.6601,-5.6601,-5.6601,-5.6601,-5.6601,-5.6601,-5.6601,-5.6601,-5.6601,-5.6601,-5.6601,-5.6601,-5.6601,-5.6601,-5.6601,-5.6758,-5.7305,-5.6992,-5.6758,-5.7305,-5.6951,-5.6517,-5.6517,-5.7923,-5.9095,-5.9095,-6.0545,-6.1719,-6.1719,-6.1719,-6.1719,-6.1719,-6.1719,-6.1719,-6.1719,-6.1719,-6.1719,-6.1719,-6.1719,-6.1719,-6.1719,-6.1719,-6.1719,-6.1719,-6.1172,-6.0859,-6.0859,-6.0351,-5.9922,-5.9648,-5.9062,-5.8633,-5.8359,-5.7461,-5.707]},{"header":{"parameterUnit":"m.s-1","parameterCategory":1,"la1":30.6,"la2":29.2853,"lo1":-89.7004,"lo2":-87.6739,"dx":0.0162,"dy":0.0183,"nx":112,"ny":82,"refTime":"2022-12-06T06:00:00:Z","depth":0,"parameterNumber":3,"parameterNumberName":"V-component_of_WINDS"},"data":[0.0,0.0,0.0,0.0,0.0,0.0,0.0,0.0,0.0,0.0,0.0,0.0,0.0,0.0,0.0,0.0,0.0,0.0,0.0,0.0,0.0,0.0,0.0,0.0,0.0,0.0,0.0,0.0,0.0,0.0,0.0,0.0,0.0,0.0,0.0,0.0,0.0,0.0,0.0,0.0,0.0,0.0,0.0,0.0,0.0,0.0,0.0,0.0,0.0,0.0,0.0,0.0,0.0,0.0,0.0,0.0,0.0,0.0,0.0,0.0,0.0,0.0,0.0,0.0,0.0,0.0,0.0,0.0,0.0,0.0,0.0,0.0,0.0,0.0,0.0,0.0,0.0,0.0,0.0,0.0,0.0,0.0,0.0,0.0,0.0,0.0,0.0,0.0,0.0,0.0,0.0068,0.0,0.0163,0.0748,0.1966,0.2938,0.3591,0.391,0.0,0.0,0.0,0.0,0.0,0.0,0.0,0.0,0.0,0.0,0.0,0.0,0.0,0.0,0.0,0.0,0.0,0.0,0.0,0.0,0.0,0.0,0.0,0.0,0.0,0.0,0.0,0.0,0.0,0.0,0.0,0.0,0.0,0.0,0.0,0.0,0.0,0.0,0.0,0.0,0.0,0.0,0.0,0.0,0.0,0.0,0.0,0.0,0.0,0.0,0.0,0.0,0.0,0.0,0.0,0.0,0.0,0.0,0.0,0.0,0.0,0.0,0.0,0.0,0.0,0.0,0.0,0.0,0.0,0.0,0.0,0.0,0.0,0.0,0.0,0.0,0.0,0.0,0.0,0.0,0.0,0.0,0.0,0.0,0.0,0.0,0.0,0.0,0.0,0.0,0.0,0.0,0.0,0.0,0.0,0.0,0.0,0.0,0.0,0.0,0.0,0.0,0.0,0.0,0.0443,0.0041,0.0916,0.2007,0.3215,0.4395,0.5189,0.5464,0.0,0.0,0.0,0.0,0.0,0.0,0.0,0.0,0.0,0.0,0.0,0.0,0.0,0.0,0.0,0.0,0.0,0.0,0.0,0.0,0.0,0.0,0.0,0.0,0.0,0.0,0.0,0.0,0.0,0.0,0.0,0.0,0.0,0.0,0.0,0.0,0.0,0.0,0.0,0.0,0.0,0.0,0.0,0.0,0.0,0.0,0.0,0.0,0.0,0.0,0.0,0.0,0.0,0.0,0.0,0.0,0.0,0.0,0.0,0.0,0.0,0.0,0.0,0.0,0.0,0.0,0.0,0.0,0.0,0.0,0.0,0.0,0.0,0.0,0.0,0.0,0.0,0.0,0.0,0.0,0.0,0.0,0.0,0.0,0.0,0.0,0.0,0.0,0.0,0.0,0.0,0.0,0.0,0.0,0.0,0.0,0.0,0.0,0.0,0.0,0.0,0.0,0.0,0.0432,0.0479,0.0941,0.1459,0.2549,0.4421,0.5092,0.5466,0.5674,0.5209,0.0,0.0,0.0,0.0,0.0,0.0,0.0,0.0,0.0,0.0,0.0,0.0,0.0,0.0,0.0,0.0,0.0,0.0,0.0,0.0,0.0,0.0,0.0,0.0,0.0,0.0,0.0,0.0,0.0,0.0,0.0,0.0,0.0,0.0,0.0,0.0,0.0,0.0,0.0,0.0,0.0,0.0,0.0,0.0,0.0,0.0,0.0,0.0,0.0,0.0,0.0,0.0,0.0,0.0,0.0,0.0,0.0,0.0,0.0,0.0,0.0,0.0,0.0,0.0,0.0,0.0,0.0,0.0,0.0,0.0,0.0,0.0,0.0,0.0,0.0,0.0,0.0,0.0,0.0,0.0,0.0,0.0,0.0,0.0,0.0,0.0,0.0,0.0,0.0,0.0,0.0,0.0,0.0,0.0,0.0,0.0,0.0,0.0,0.0,0.0,0.0,0.0,0.0265,0.0766,0.1691,0.2359,0.3416,0.5225,0.5625,0.5746,0.5669,0.5291,0.0,0.0,0.0,0.0,0.0,0.0,0.0,0.0,0.0,0.0,0.0,0.0,0.0,0.0,0.0,0.0,0.0,0.0,0.0,0.0,0.0,0.0,0.0,0.0,0.0,0.0,0.0,0.0,0.0,0.0,0.0,0.0,0.0,0.0,0.0,0.0,0.0,0.0,0.0,0.0,0.0,0.0,0.0,0.0,0.0,0.0,0.0,0.0,0.0,0.0,0.0,0.0,0.0,0.0,0.0,0.0,0.0,0.0,0.0,0.0,0.0,0.0,0.0,0.0,0.0,0.0,0.0,0.0,0.0,0.0,0.0,0.0,0.0,0.0,0.0,0.0,0.0,0.0,0.0,0.0,0.0,0.0,0.0,0.0,0.0,0.0,0.0,0.0,0.0,0.0,0.0,0.0,0.0,0.0,0.0,0.0,0.0,0.0,0.0,0.0,0.0,0.0,0.0994,0.1693,0.1781,0.3908,0.534,0.5413,0.6384,0.6624,0.584,0.525,0.0,0.0,0.0,0.0,0.0,0.0,0.0,0.0,0.0,0.0,0.0,0.0,0.0,0.0,0.0,0.0,0.0,0.0,0.0,0.0,0.0,0.0,0.0,0.0,0.0,0.0,0.0,0.0,0.0,0.0,0.0,0.0,0.0,0.0,0.0,0.0,0.0,0.0,0.0,0.0,0.0,0.0,0.0,0.0,0.0,0.0,0.0,0.0,0.0,0.0,0.0,0.0,0.0,0.0,0.0,0.0,0.0,0.0,0.0,0.0,0.0,0.0,0.0,0.0,0.0,0.0,0.0,0.0,0.0,0.0,0.0,0.0,0.0,0.0,0.0,0.0,0.0,0.0,0.0,0.0,0.0,0.0,0.0,0.0,0.0,0.0,0.0,0.0,0.0,0.0,0.0,0.0,0.0,0.0,0.0,0.0,0.0,0.0,0.0,0.0,0.0,0.0,0.1038,0.21,0.2939,0.4584,0.5909,0.6685,0.7112,0.6898,0.6003,0.0,0.0,0.0,0.0,0.0,0.0,0.0,0.0,0.0,0.0,0.0,0.0,0.0,0.0,0.0,0.0,0.0,0.0,0.0,0.0,0.0,0.0,0.0,0.0,0.0,0.0,0.0,0.0,0.0,0.0,0.0,0.0,0.0,0.0,0.0,0.0,0.0,0.0,0.0,0.0,0.0,0.0,0.0,0.0,0.0,0.0,0.0,0.0,0.0,0.0,0.0,0.0,0.0,0.0,0.0,0.0,0.0,0.0,0.0,0.0,0.0,0.0,0.0,0.0,0.0,0.0,0.0,0.0,0.0,0.0,0.0,0.0,0.0,0.0,0.0,0.0,0.0,0.0,0.0,0.0,0.0,0.0,0.0,0.0,0.0,0.0,0.0,0.0,0.0,0.0,0.0,0.0,0.0,0.0,0.0,0.0,0.0,0.0,0.0,0.0,0.0,0.0,0.007,0.1392,0.2745,0.3699,0.5281,0.6595,0.7543,0.7461,0.6966,0.6017,0.0,0.0,0.0,0.0,0.0,0.0,0.0,0.0,0.0,0.0,0.0,0.0,0.0,0.0,0.0,0.0,0.0,0.0,0.0,0.0,0.0,0.0,0.0,0.0,0.0,0.0,0.0,0.0,0.0,0.0,0.0,0.0,0.0,0.0,0.0,0.0,0.0,0.0,0.0,0.0,0.0,0.0,0.0,0.0,0.0,0.0,0.0,0.0,0.0,0.0,0.0,0.0,0.0,0.0,0.0,0.0,0.0,0.0,0.0,0.0,0.0,0.0,0.0,0.0,0.0,0.0,0.0,0.0,0.0,0.0,0.0,0.0,0.0,0.0,0.0,0.0,0.0,0.0,0.0,0.0,0.0,0.0,0.0,0.0,0.0,0.0,0.0,0.0,0.0,0.0,0.0,0.0,0.0,0.0,0.0,0.0,0.0,0.0,0.0,0.0,0.0,0.0,0.0072,0.2103,0.3647,0.3769,0.6095,0.7604,0.7604,0.7461,0.6926,0.0,0.0,0.0,0.0,0.0,0.0,0.0,0.0,0.0,0.0,0.0,0.0,0.0,0.0,0.0,0.0,0.0,0.0,0.0,0.0,0.0,0.0,0.0,0.0,0.0,0.0,0.0,0.0,0.0,0.0,0.0,0.0,0.0,0.0,0.0,0.0,0.0,0.0,0.0,0.0,0.0,0.0,0.0,0.0,0.0,0.0,0.0,0.0,0.0,0.0,0.0,0.0,0.0,0.0,0.0,0.0,0.0,0.0,0.0,0.0,0.0,0.0,0.0,0.0,0.0,0.0,0.0,0.0,0.0,0.0,0.0,0.0,0.0,0.0,0.0,0.0,0.0,0.0,0.0,0.0,0.0,0.0,0.0,0.0,0.0,0.0,0.0,0.0,0.0,0.0,0.0,0.0,0.0,0.0,0.0,0.0,0.0,0.0,0.0,0.0,0.0,0.0,0.0,0.0072,0.2172,0.3772,0.3942,0.6222,0.7794,0.7853,0.7767,0.719,0.6,0.0,0.0,0.0,0.0,0.0,0.0,0.0,0.0,0.0,0.0,0.0,0.0,0.0,0.0,0.0,0.0,0.0,0.0,0.0,0.0,0.0,0.0,0.0,0.0,0.0,0.0,0.0,0.0,0.0,0.0,0.0,0.0,0.0,0.0,0.0,0.0,0.0,0.0,0.0,0.0,0.0,0.0,0.0,0.0,0.0,0.0,0.0,0.0,0.0,0.0,0.0,0.0,0.0,0.0,0.0,0.0,0.0,0.0,0.0,0.0,0.0,0.0,0.0,0.0,0.0,0.0,0.0,0.0,0.0,0.0,0.0,0.0,0.0,0.0,0.0,0.0,0.0,0.0,0.0,0.0,0.0,0.0,0.0,0.0,0.0,0.0,0.0,0.0,0.0,0.0,0.0,0.0,0.0,0.0,0.0,0.0,0.0,0.0,0.0,0.0,0.0,0.0,0.0764,0.2534,0.4049,0.4737,0.6594,0.7875,0.7975,0.7896,0.738,0.6363,0.0,0.0,0.0,0.0,0.0,0.0,0.0,0.0,0.0,0.0,0.0,0.0,0.0,0.0,0.0,0.0,0.0,0.0,0.0,0.0,0.0,0.0,0.0,0.0,0.0,0.0,0.0,0.0,0.0,0.0,0.0,0.0,0.0,0.0,0.0,0.0,0.0,0.0,0.0,0.0,0.0,0.0,0.0,0.0,0.0,0.0,0.0,0.0,0.0,0.0,0.0,0.0,0.0,0.0,0.0,0.0,0.0,0.0,0.0,0.0,0.0,0.0,0.0,0.0,0.0,0.0,0.0,0.0,0.0,0.0,0.0,0.0,0.0,0.0,0.0,0.0,0.0,0.0,0.0,0.0,0.0,0.0,0.0,0.0,0.0,0.0,0.0,0.0,0.0,0.0,0.0,0.0,0.0,0.0,0.0,0.0,0.0,0.0,0.0,0.0,0.0,0.0,0.1929,0.312,0.4367,0.5838,0.7088,0.7889,0.7975,0.7867,0.7516,0.677,0.0,0.0,0.0,0.0,0.0,0.0,0.0,0.0,0.0,0.0,0.0,0.0,0.0,0.0,0.0,0.0,0.0,0.0,0.0,0.0,0.0,0.0,0.0,0.0,0.0,0.0,0.0,0.0,0.0,0.0,0.0,0.0,0.0,0.0,0.0,0.0,0.0,0.0,0.0,0.0,0.0,0.0,0.0,0.0,0.0,0.0,0.0,0.0,0.0,0.0,0.0,0.0,0.0,0.0,0.0,0.0,0.0,0.0,0.0,0.0,0.0921,0.0,0.0,0.0,0.0,0.0,0.0,0.0,0.0,0.0,0.0,0.0,0.0,0.0,0.0,0.0,0.0,0.0,0.0,0.0,0.0,0.0,0.0,0.0,0.0,0.0,0.0,0.0,0.0,0.0,0.0,0.0,0.0,0.0,0.0,0.0,0.0,0.0,0.0,0.0,0.0,0.0,0.2725,0.3513,0.4502,0.5853,0.7174,0.7955,0.7988,0.7961,0.7624,0.6883,0.6586,0.0,0.0,0.0,0.0,0.0,0.0,0.0,0.0,0.0,0.0,0.0,0.0,0.0,0.0,0.0,0.0,0.0,0.0,0.0,0.0,0.0,0.0,0.0,0.0,0.0,0.0,0.0,0.0,0.0,0.0,0.0,0.0,0.0,0.0,0.0,0.0,0.0,0.0,0.0,0.0,0.0,0.0,0.0,0.0,0.0,0.0,0.0,0.0,0.0,0.0,0.0,0.0,0.0,0.0,0.0,0.0,0.0,0.0,0.0,0.0,0.1564,0.0,0.0,0.0,0.0,0.0,0.0,0.0,0.0,0.0,0.0,0.0,0.0,0.0,0.0,0.0,0.0,0.0,0.0,0.0,0.0,0.0,0.0,0.0,0.0,0.0,0.0,0.0,0.0,0.0,0.0,0.0,0.0,0.0,0.0,0.0,0.0,0.0,0.0,0.0,0.0,0.4049,0.4656,0.5489,0.6825,0.7595,0.7988,0.7988,0.7988,0.7793,0.738,0.6939,0.0,0.0,0.0,0.0,0.0,0.0,0.0,0.0,0.0,0.0,0.0,0.0,0.0,0.0,0.0,0.0,0.0,0.0,0.0,0.0,0.0,0.0,0.0,0.0,0.0,0.0,0.0,0.0,0.0,0.0,0.0,0.0,0.0,0.0,0.0,0.0,0.0,0.0,0.0,0.0,0.0,0.0,0.0,0.0,0.0,0.0,0.0,0.0,0.0,0.0,0.0,0.0,0.0,0.443,0.4672,0.4935,0.4946,0.5859,0.7261,0.579,0.4405,0.3088,0.2547,0.0,0.0,0.0,0.0,0.0,0.0,0.0,0.0,0.0,0.0,0.0,0.0,0.0,0.0,0.0,0.0,0.0,0.0,0.0,0.0,0.0,0.0,0.0,0.0,0.8906,0.8787,0.0,0.0,0.0,0.0,0.0,0.0,0.0,0.0,0.0,0.0,0.0,0.0,0.5474,0.586,0.6519,0.7875,0.7988,0.7988,0.7988,0.7988,0.7934,0.7862,0.7496,0.7161,0.0,0.0,0.0,0.0,0.0,0.0,0.0,0.0,0.0,0.0,0.0,0.0,0.0,0.0,0.0,0.0,0.0,0.0,0.0,0.0,0.0,0.0,0.0,0.0,0.0,0.0,0.0,0.0,0.0,0.0,0.0,0.0,0.0398,0.1441,0.0,0.0,0.0,0.0,0.0,0.0,0.0,0.0,0.0,0.0,0.0,0.0,0.0,0.3744,0.3732,0.4183,0.4462,0.4498,0.5852,0.6558,0.6607,0.7634,0.8902,1.0294,0.9945,0.0,0.7351,0.4798,0.0,0.0,0.0,0.0,0.0,0.0,0.0,0.0,0.0,0.0,0.0,0.0,0.0,0.0,0.0,0.0,0.0,0.0,0.0,0.0,0.0,0.0,0.6962,0.8758,1.012,1.0905,0.0,0.984,0.8712,0.7311,0.6944,0.0,0.0,0.0,0.0,0.0,0.0,0.0,0.6608,0.6372,0.6515,0.7839,0.7988,0.7988,0.7988,0.7988,0.7982,0.7961,0.8975,0.9338,0.8801,0.8411,0.0,0.0,0.0,0.0,0.0,0.0,0.0,0.0,0.0,0.0,0.0,0.0,0.0,0.0,0.0,0.0,0.0,0.0,0.0,0.0,0.0,0.0,0.0,0.0,0.0,0.0,0.0,0.0,0.0,0.0713,0.0961,0.0812,0.0921,0.0743,0.0,0.0,0.0,0.0,0.0,0.0,0.0,0.0,0.0,0.3511,0.4829,0.5561,0.5617,0.6537,0.7033,0.7155,0.7759,0.8108,0.8313,0.8659,0.964,1.1164,1.1672,1.1973,1.1905,0.9005,0.7373,0.6588,0.0,0.0,0.0,0.0,0.4882,0.5136,0.5153,0.5137,0.5152,0.5155,0.0,0.0,0.0,0.0,0.0,0.0,0.0,0.0,0.0,0.0,0.7402,0.9249,1.0211,1.0835,1.1487,1.1914,1.1592,0.0,0.8269,0.7023,0.5789,0.0,0.0,0.0,0.0,0.6068,0.7235,0.7307,0.7503,0.8116,0.8167,0.8133,0.7995,0.7988,0.7988,0.7988,0.8528,0.9081,0.9567,0.8424,0.7709,0.0,0.0,0.0,0.0,0.0,0.0,0.0,0.0,0.0,0.0,0.0,0.0,0.0,0.0,0.0,0.0,0.0,0.0,0.0,0.0,0.0,0.0,0.0,0.0,0.0,0.0,0.0,0.0,0.1249,0.1513,0.0559,0.1281,0.1487,0.0,0.0,0.0,0.0,0.0,0.0,0.2825,0.4112,0.4967,0.5269,0.6557,0.7333,0.7416,0.8514,0.9103,0.9268,0.9178,0.9279,0.9483,0.9184,0.9883,1.1422,1.2459,1.3762,1.492,1.2378,1.0733,0.9768,0.9067,0.866,0.8482,0.8505,0.8505,0.8483,0.8098,0.798,0.791,0.7533,0.6811,0.6033,0.5819,0.0,0.0,0.0,0.0,0.563,0.6491,0.7041,0.7734,0.9255,0.9936,1.05,1.1309,1.2893,1.3397,0.0,0.9567,0.8371,0.6946,0.0,0.0,0.0,0.6458,0.7278,0.7767,0.8119,0.8374,0.8374,0.834,0.8221,0.8106,0.8015,0.7988,0.7988,0.8336,0.8973,0.9953,0.8629,0.8074,0.8515,0.0,0.0,0.0,0.0,0.0,0.0,0.0,0.0,0.0,0.0,0.0,0.0,0.0,0.0,0.0,0.0,0.0,0.0,0.0,0.0,0.0,0.0,0.0,0.0,0.0,0.0,0.0,0.0,0.0,0.1726,0.189,0.0,0.0,0.0,0.0,0.3895,0.4221,0.4417,0.4566,0.5852,0.6645,0.6777,0.8116,0.8776,0.8803,0.9211,0.9361,0.9374,0.9646,0.9781,0.9788,0.9496,1.0156,1.156,1.2779,1.4051,1.5252,1.3413,1.2656,1.2339,0.9783,0.8781,0.8774,0.8784,0.9411,1.0096,0.8692,0.8175,0.7937,0.656,0.6127,0.6059,0.5368,0.5982,0.0,0.0,0.6695,0.6957,0.7705,0.7921,0.8072,0.8488,0.9495,1.0422,1.0466,1.2193,1.3023,0.0,1.1391,1.1331,0.8102,0.0,0.7489,0.7468,0.7522,0.778,0.8364,0.8459,0.8472,0.8472,0.835,0.832,0.8313,0.8126,0.7988,0.7988,0.9213,0.9953,1.0002,0.9911,0.9558,0.8886,0.727,0.0,0.0,0.0,0.0,0.0,0.0,0.0,0.0,0.0,0.0,0.0,0.0,0.0,0.0,0.0,0.0,0.0,0.0,0.0,0.0,0.0,0.0,0.0,0.0,0.0,0.0,0.0,0.0,0.3326,0.4091,0.0,0.3679,0.3666,0.3869,0.4346,0.535,0.5962,0.6102,0.7509,0.8394,0.8622,0.9083,0.9415,0.9503,0.9707,0.9808,0.9815,1.0019,1.0066,0.9896,0.9659,0.9762,1.0213,1.1372,1.2724,1.3997,1.3383,1.4231,1.5782,1.485,1.4352,1.4207,1.4208,1.4316,1.4267,1.2834,1.2299,1.1905,0.9588,0.8882,0.8847,0.8505,0.8079,0.7819,0.8504,0.8176,0.7678,0.8092,0.833,0.8499,0.8601,0.8994,0.9284,0.9175,1.1301,1.2751,1.0976,1.1401,1.1599,1.0324,0.9043,0.8004,0.7522,0.7862,0.8282,0.8587,0.8628,0.8628,0.8628,0.8581,0.8479,0.834,0.8221,0.8147,0.7995,0.8428,0.9122,0.9953,0.9164,0.897,0.9463,0.8064,0.6681,0.0,0.0,0.0,0.0,0.0,0.0,0.0,0.0,0.0,0.0,0.0,0.0,0.0,0.0,0.0,0.0,0.0,0.0,0.0,0.0,0.0,0.0,0.0,0.0,0.0,0.3573,0.455,0.4311,0.5416,0.5906,0.5228,0.5247,0.5493,0.5952,0.7004,0.769,0.7864,0.8869,0.9517,0.9829,0.9836,0.9883,0.9978,1.008,1.0127,1.0127,1.0229,1.0229,1.0114,0.9815,0.9598,0.9559,1.0691,1.1709,1.2615,1.3102,1.4449,1.618,1.6658,1.7029,1.734,1.734,1.7168,1.6739,1.4815,1.3507,1.2307,1.0473,1.0168,1.0402,0.9911,0.9364,0.9084,1.0012,0.9284,0.8467,0.9086,0.9009,0.8784,0.8784,0.8784,0.8865,0.929,1.1354,1.2989,1.251,1.274,1.2592,1.1568,1.0281,0.8997,0.7931,0.8255,0.8635,0.8635,0.8723,0.8784,0.8784,0.8743,0.8628,0.8438,0.8685,0.8621,0.8119,0.8414,0.8817,0.9312,0.8664,0.8531,0.8973,0.8027,0.6973,0.5767,0.0,0.0,0.0,0.0,0.0,0.0,0.0,0.0,0.0,0.0,0.0,0.0,0.0,0.0,0.0,0.0,0.0,0.0,0.0,0.0,0.0,0.0,0.0,0.2314,0.461,0.5873,0.4777,0.5763,0.6558,0.6572,0.685,0.7511,0.8823,0.9232,0.953,0.9815,0.9836,0.9971,1.027,1.0283,1.0283,1.0283,1.0283,1.029,1.029,1.029,1.029,1.0276,0.9964,0.9747,0.9657,1.0752,1.1167,1.1236,1.258,1.3231,1.3447,1.4835,1.6221,1.7529,1.7529,1.7477,1.7041,1.4234,1.1319,0.8885,0.8885,0.9704,1.0452,0.9325,0.9806,1.0774,1.1059,1.0131,0.9375,1.0781,1.0076,0.8995,0.8995,0.894,0.932,1.0726,1.2245,1.3696,1.5091,1.5358,1.4502,1.1647,1.1109,1.045,0.8751,0.875,0.0,0.8533,0.8757,0.8878,0.8865,0.8791,0.8703,0.8689,0.9399,0.939,0.8415,0.9272,0.932,0.8151,0.8622,0.842,0.7446,0.7224,0.6919,0.6518,0.0,0.0,0.0,0.0,0.0,0.0,0.0,0.0,0.0,0.0,0.0,0.0,0.0,0.0,0.0,0.0,0.0,0.0,0.0,0.0,0.0,0.3834,0.516,0.516,0.5898,0.67,0.7471,0.7967,0.8319,0.8453,0.8676,0.8987,0.9357,0.97,0.9842,0.9923,1.0093,1.0195,1.0276,1.0283,1.0283,1.0283,1.0385,1.0432,1.0432,1.0548,1.0541,1.0426,1.0127,0.9842,0.9747,0.9851,1.0482,1.1337,1.0721,1.1668,1.3598,1.3821,1.477,1.6009,1.6009,1.537,1.4234,1.2354,1.046,0.8885,0.8885,0.9127,0.953,1.028,1.0748,1.1205,1.2389,1.2398,1.2181,1.2561,1.1592,1.0507,1.0507,0.9699,0.8995,0.943,1.1483,1.3426,1.3804,1.4716,1.4824,1.2994,1.0945,0.934,0.8879,0.8831,0.0,0.8825,0.8831,0.8811,0.8486,0.8506,0.8459,0.819,0.9458,1.0171,1.0046,1.0314,1.0288,0.9981,0.9086,0.8419,0.8074,0.7339,0.6871,0.0,0.0,0.0,0.0,0.0,0.0,0.0,0.0,0.0,0.0,0.0,0.0,0.0,0.0,0.0,0.0,0.0,0.0,0.0,0.0,0.0,0.0,0.4949,0.6665,0.7217,0.7389,0.7771,0.879,0.9028,0.9184,0.9327,0.9618,0.9795,0.9795,1.0012,1.0175,1.0229,1.0317,1.0399,1.0466,1.0466,1.0466,1.0466,1.0548,1.0588,1.0588,1.0677,1.067,1.0575,1.0283,1.0059,0.9835,0.9605,0.9895,1.0574,0.9722,1.0409,0.0,0.0,0.0,0.0,0.0,1.3588,1.2236,1.1374,1.0131,0.8885,0.8885,0.8885,0.9044,0.9911,1.0617,1.1265,1.2136,1.2398,1.2398,1.2398,1.1265,1.0186,1.0186,0.9533,0.9044,0.9699,1.1164,1.2724,1.3965,1.3857,0.0,1.3318,1.1374,0.96,0.8818,0.8804,0.8838,0.8764,0.8804,0.8784,0.8581,0.8621,0.8814,0.925,1.0467,0.0,0.0,0.0,1.1955,1.1075,0.9785,0.0,0.0,0.0,0.0,0.0,0.0,0.0,0.0,0.6179,0.5992,0.0,0.0,0.0,0.0,0.0,0.0,0.0,0.0,0.0,0.0,0.0,0.0,0.0,0.0,0.0,0.0,0.5771,0.7386,0.8581,0.8798,0.8899,0.9207,0.9327,0.949,0.9646,0.9862,1.0038,1.0038,1.0243,1.0385,1.0514,0.0,0.0,0.0,0.0,1.0717,1.0717,1.0717,1.0717,1.0717,1.0717,1.0711,1.0683,1.0405,1.0195,0.997,0.9754,0.9557,0.9429,0.9429,0.9422,0.9562,1.0803,1.2125,1.3285,1.3143,1.2256,1.1114,1.0949,0.0,0.0,0.8932,0.8932,0.8932,0.8912,0.9941,1.1135,1.1328,1.15,1.1673,1.181,1.0649,0.9473,0.9404,0.9182,0.9293,1.0594,1.1017,1.1864,1.4449,1.2832,1.1538,1.2832,1.181,1.0349,0.8786,0.8764,0.8838,0.8567,0.8771,0.8865,0.8811,0.0,0.0,1.0908,1.1878,1.2657,1.3257,1.4138,1.3724,1.1519,1.056,0.9709,0.8894,0.808,0.7828,0.8035,0.8035,0.8035,0.8002,0.6559,0.622,0.0,0.0,0.0,0.0,0.0,0.0,0.0,0.0,0.0,0.0,0.0,0.0,0.0,0.0,0.0,0.4365,0.6726,0.8631,0.9211,0.9361,0.9408,0.9347,0.9571,0.9795,0.9889,1.0229,1.0405,1.0405,1.0548,1.0643,1.0677,1.0677,1.069,1.0717,1.0717,1.0717,1.0717,1.0717,1.0717,1.0717,0.0,0.0,1.0527,1.0358,1.0195,0.9977,0.9856,0.9761,0.9734,0.9734,0.9666,0.9662,1.0936,1.1657,1.1876,1.1842,1.1663,1.1265,1.0139,0.9523,0.9293,0.9293,0.9293,0.9273,0.915,1.0107,0.0,1.2555,1.3886,1.5192,1.6123,1.4625,1.2862,1.2636,1.0835,0.9222,0.9497,1.039,1.1265,1.181,1.1483,1.1219,1.1483,1.0296,0.9189,0.8859,0.8844,0.8865,0.8804,0.8844,0.8798,0.8438,0.8506,0.9091,1.0441,1.1891,1.335,1.4828,1.5135,1.3996,1.1264,1.087,1.0072,0.8755,0.8474,0.8336,0.8397,0.8397,0.8397,0.8384,0.7828,0.7597,0.0,0.0,0.0,0.0,0.0,0.0,0.0,0.0,0.0,0.0,0.0,0.3292,0.3291,0.0,0.5542,0.5756,0.7678,0.9266,0.9557,0.9734,0.9802,0.9727,0.9917,1.0107,1.0256,1.0473,1.0609,1.0609,1.0677,1.0717,1.0717,1.0717,1.0717,1.0717,1.0717,1.0683,1.0609,1.0683,1.0683,1.0609,1.0609,1.0568,1.0487,1.0263,1.012,0.9977,0.989,0.9822,0.9822,0.9822,0.9781,0.9767,1.0391,1.0552,1.0459,1.0459,1.0978,1.1429,0.9896,0.9954,1.0466,0.9664,0.9381,0.9367,0.935,1.0842,1.2618,1.2581,1.4291,1.6074,1.5889,1.4932,1.3958,1.3846,1.2081,1.0509,1.0509,1.0321,1.0366,1.107,1.0571,1.0241,1.0945,0.9864,0.8885,0.8885,0.8885,0.8885,0.8885,0.8885,0.8797,0.8628,0.8669,0.9265,1.0643,1.2818,1.4774,1.6421,1.6499,1.5198,1.2299,1.2142,1.1031,0.8763,0.8635,0.856,0.8479,0.8479,0.8479,0.8479,0.833,0.8221,0.0,0.0,0.0,0.0,0.0,0.0,0.0,0.5292,0.5958,0.677,0.6583,0.621,0.6236,0.6551,0.6848,0.7078,0.8419,0.9557,0.9829,0.9957,1.0085,1.0112,1.0263,1.0365,1.048,1.0602,1.0663,1.0636,1.0636,1.0636,1.0636,1.0636,1.0636,1.0636,1.0636,1.0575,1.0453,1.0575,1.0575,1.0453,1.0453,1.0432,1.0399,1.0098,0.997,0.9936,0.9876,0.9822,0.9822,0.9822,0.9822,0.9822,0.9822,0.9673,0.9469,0.9469,1.0507,1.1661,1.0047,1.0507,1.1603,0.9989,0.9469,0.9462,0.9435,1.1372,1.3365,1.247,1.4246,1.6133,1.5186,1.4788,1.4671,1.4561,1.3193,1.1833,1.1833,1.0467,0.9539,1.0651,0.9802,0.9265,1.046,0.9699,0.8885,0.8885,0.8885,0.8885,0.8885,0.8885,0.8885,0.8885,0.8885,0.9588,1.1374,1.3911,1.6009,1.7529,1.7582,1.6287,1.3426,1.3318,1.1837,0.8811,0.8757,0.8696,0.8574,0.8574,0.8574,0.8567,0.854,0.8452,0.557,0.5766,0.5833,0.5694,0.6038,0.6971,0.0,0.7467,0.623,0.7883,0.647,0.4922,0.4892,0.6071,0.7078,0.7077,0.858,0.9829,0.9936,1.0263,1.0493,1.0629,1.0541,1.0473,1.0487,1.0507,1.0466,1.0337,1.0331,1.0331,1.0331,1.0331,1.0331,1.0331,1.0331,1.0324,1.0304,1.0324,1.0324,1.0304,1.0304,1.0229,1.0038,1.0004,0.9916,0.9842,0.9829,0.9822,0.9822,0.9822,0.9822,0.9822,0.9822,0.9802,0.9774,0.9774,1.0786,1.1918,1.0311,1.0786,1.1918,1.0311,0.9774,0.9747,0.9625,1.0804,1.2445,1.3422,1.5091,1.6879,1.7751,1.735,1.6588,1.6299,1.4041,1.1963,1.1963,1.0494,0.9264,0.9433,0.9147,0.894,0.9099,0.8989,0.8885,0.8885,0.8885,0.8885,0.8885,0.8885,0.8885,0.8885,0.8885,1.0021,1.2832,1.4502,1.6009,1.7529,1.7582,1.6287,1.3426,1.3318,1.191,0.8913,0.8858,0.8851,0.8831,0.8831,0.8831,0.8831,0.875,0.8601,0.7223,0.7109,0.6912,0.7177,0.8221,0.9388,1.0311,1.027,1.0322,1.1398,1.0016,0.8653,0.8653,0.8538,0.8495,0.8651,0.9294,0.993,1.0263,1.0412,1.0548,1.0704,1.0663,1.0588,1.05,1.0493,1.0432,1.029,1.0283,1.0283,1.0283,1.0283,1.0283,1.0283,1.0283,1.0236,1.0148,1.0236,1.0236,1.0148,1.0148,1.0051,0.9984,0.9896,0.9883,0.9822,0.9822,0.9822,0.9822,0.9822,0.9822,0.9822,0.9822,0.9822,0.9822,0.9822,1.1442,1.3347,1.1736,1.2277,1.3347,1.1736,1.0543,0.999,1.0823,1.2218,1.379,1.5278,1.6958,1.8372,1.8911,1.8711,1.8131,1.7065,1.5104,1.3277,1.2337,1.0671,0.9395,0.9306,0.9164,0.9035,0.8898,0.8885,0.8885,0.8885,0.8885,0.8885,0.8885,0.8885,0.8885,0.8885,0.8885,1.0076,1.3048,1.3048,1.4234,1.7411,1.6764,1.5423,1.3372,1.3318,1.1919,0.894,0.8885,0.8885,0.8885,0.8885,0.8885,0.8885,0.8817,0.8811,0.7848,0.7767,0.7706,0.8211,0.9422,1.0655,1.0971,1.1585,1.2307,1.3078,1.2038,1.0991,1.0991,1.0164,0.9571,0.9788,0.9856,0.9998,1.0324,1.0439,1.0534,1.0643,1.0697,1.0663,1.0507,1.046,1.0371,1.0229,1.0175,1.0154,1.0154,1.0154,1.0154,1.0154,1.0154,1.01,0.9923,1.01,1.01,0.9923,0.9923,0.9923,0.9923,0.9869,0.9822,0.9822,0.9822,0.9822,0.9822,0.9822,0.9822,0.9822,0.9822,0.9822,0.9822,0.9822,1.1555,1.3765,1.2569,1.3228,1.4421,1.3228,1.2097,1.1314,1.2509,1.4004,1.5488,1.6668,1.8169,1.943,1.943,1.943,1.8997,1.7384,1.5784,1.4183,1.2569,1.0838,0.9564,0.9408,0.9316,0.9166,0.8905,0.8885,0.8885,0.8885,0.8885,0.8885,0.8885,0.8885,0.8885,0.8885,0.8885,0.9919,1.2453,1.2082,1.321,1.6764,1.6393,1.5358,1.3965,1.3534,1.2082,0.9533,0.9099,0.8885,0.8885,0.8885,0.8885,0.8885,0.8885,0.8885,0.6607,0.7054,0.7706,0.8211,0.8982,0.9943,1.1208,1.0557,1.006,1.129,1.0537,0.9657,0.9657,0.9713,0.9808,0.9822,0.9883,0.9984,0.9997,1.031,1.0493,1.05,1.0629,1.0663,1.0507,1.0365,1.0222,1.0004,0.9917,0.9836,0.9836,0.9836,0.9836,0.9836,0.9836,0.9836,0.9829,0.9836,0.9836,0.9829,0.9829,0.9829,0.9829,0.9822,0.9822,0.9822,0.9822,0.9822,0.9822,0.9822,0.9822,0.9822,0.9822,0.9822,0.9822,0.9822,1.0838,1.2277,1.2217,1.3228,1.4599,1.454,1.448,1.448,1.448,1.5666,1.6962,1.6962,1.8169,1.943,1.943,1.943,1.8997,1.7384,1.5784,1.4183,1.2569,1.0838,0.9564,0.9408,0.9316,0.9166,0.8905,0.8885,0.8885,0.8885,0.8885,0.8885,0.8885,0.8885,0.8885,0.8885,0.8885,0.9533,1.1055,1.2462,1.3857,1.5358,1.6764,1.6882,1.5411,1.4019,1.2561,1.1055,0.9644,0.8885,0.8885,0.8885,0.8885,0.8885,0.8885,0.8885,0.7394,0.7916,0.8472,0.9022,1.0266,1.1459,1.1862,1.1606,1.1459,1.1862,1.0573,0.9364,0.9364,0.9347,0.9381,0.9381,0.9673,0.9869,0.997,1.0222,1.0385,1.048,1.0629,1.0697,1.0649,1.0507,1.0358,1.0215,1.0059,0.9909,0.9909,0.9876,0.9822,0.9822,0.9822,0.9822,0.9822,0.9822,0.9822,0.9822,0.9822,0.9822,0.9822,0.9822,0.9822,0.9822,0.9822,0.9822,0.9822,0.9822,0.9822,0.9822,0.9822,0.9822,0.9822,0.9822,1.0119,1.0899,1.3048,1.4123,1.4777,1.5843,1.5488,1.4777,1.5843,1.5843,1.5607,1.6668,1.7384,1.7806,1.7806,1.859,1.8706,1.602,1.5015,1.3885,1.1201,1.0144,0.9707,0.9557,0.9408,0.9259,0.9103,0.9001,0.8885,0.8885,0.8885,0.8885,0.8885,0.8885,0.8885,0.8885,0.8885,0.9478,1.0945,1.1538,1.2886,1.5251,1.5849,1.5902,1.5411,1.4931,1.3534,1.1164,1.0617,0.9864,0.8885,0.8885,0.8885,0.8885,0.8885,0.8885,0.7995,0.8492,0.8866,0.9523,1.0523,1.1314,1.1314,1.1314,1.1298,1.1303,1.0135,0.9062,0.9001,0.9002,0.8968,0.8968,0.9245,0.9578,0.9781,0.9944,1.0114,1.031,1.0473,1.0561,1.0561,1.0473,1.0378,1.029,1.0134,0.9963,0.9909,0.9876,0.9822,0.9822,0.9822,0.9822,0.9822,0.9822,0.9822,0.9822,0.9822,0.9822,0.9822,0.9822,0.9822,0.9822,0.9822,0.9822,0.9822,0.9822,0.9822,0.9822,0.9822,0.9822,0.9822,0.9822,0.9822,1.0179,1.2808,1.3765,1.4123,1.6315,1.6315,1.5784,1.7384,1.6738,1.5666,1.6727,1.6609,1.6256,1.6844,1.7325,1.7161,1.5074,1.4183,1.2988,1.0361,0.9822,0.9781,0.9639,0.949,0.9334,0.9234,0.9035,0.8885,0.8885,0.8885,0.8885,0.8885,0.8885,0.8885,0.8885,0.8885,0.9265,1.0241,1.1265,1.267,1.4556,1.5636,1.5956,1.5411,1.4931,1.3534,1.1164,1.0562,0.9864,0.8885,0.8885,0.8885,0.8885,0.8885,0.8885,0.8445,0.8743,0.8933,0.9646,0.9822,0.9822,0.9822,0.9822,0.9774,0.9598,0.9198,0.877,0.8642,0.852,0.8445,0.8445,0.875,0.9083,0.9361,0.9537,0.9734,0.9957,1.0188,1.0283,1.0283,1.0283,1.0276,1.027,1.0134,0.9923,0.9842,0.9822,0.9822,0.9822,0.9822,0.9822,0.9822,0.9822,0.9822,0.9822,0.9822,0.9822,0.9822,0.9822,0.9822,0.9822,0.9822,0.9822,0.9822,0.9822,0.9822,0.9822,0.9822,0.9822,0.9822,0.9822,0.9822,1.0004,1.1555,1.2157,1.2689,1.5832,1.6903,1.7267,1.8823,1.8227,1.702,1.702,1.5843,1.4955,1.655,1.5784,1.4599,1.4599,1.3347,1.1736,1.0179,0.9822,0.9781,0.9639,0.9483,0.932,0.9228,0.9028,0.8885,0.8885,0.8885,0.8885,0.8885,0.8885,0.8885,0.8885,0.8885,0.8885,0.8885,1.1592,1.3318,1.3318,1.5902,1.6869,1.5464,1.4073,1.2615,1.1109,0.9754,0.8995,0.8885,0.8885,0.8885,0.8885,0.8885,0.8885,0.8743,0.9205,0.9585,0.9774,0.9822,0.9822,0.9822,0.9822,0.9652,0.9062,0.8492,0.7916,0.7326,0.7638,0.7984,0.7984,0.8893,0.9618,0.97,0.9842,0.9903,0.9977,1.0188,1.0283,1.0283,1.0283,1.0236,1.0114,1.0011,0.997,0.993,0.9883,0.9822,0.9822,0.9822,0.9822,0.9822,0.9822,0.9822,0.9822,0.9822,0.9822,0.9822,0.9822,0.9822,0.9822,0.9822,0.9822,0.9822,0.9822,0.9822,0.9822,0.9822,0.9822,0.9822,0.9822,0.9822,0.9883,1.0301,1.1201,1.2509,1.454,1.602,1.7091,1.7501,1.7325,1.702,1.702,1.5843,1.4955,1.655,1.5784,1.4599,1.4599,1.3347,1.1736,1.0179,0.9822,0.9781,0.9639,0.9395,0.9221,0.9022,0.8905,0.8885,0.8885,0.8885,0.8885,0.8885,0.8885,0.8885,0.8885,0.8885,0.8885,0.8885,1.1592,1.3318,1.3318,1.4984,1.5796,1.5423,1.4073,1.2615,1.1109,1.0726,1.0021,0.8885,0.8885,0.8885,0.8885,0.8885,0.8885,0.9191,0.9571,0.9836,0.9903,0.9869,0.9754,0.949,0.9381,0.9083,0.8201,0.7597,0.7054,0.6505,0.7068,0.7617,0.7617,0.8696,0.9578,0.9707,0.9747,0.9802,0.9869,1.0025,1.008,1.008,1.008,1.0046,0.9896,0.995,0.9957,0.9889,0.9869,0.9822,0.9822,0.9822,0.9822,0.9822,0.9822,0.9822,0.9822,0.9822,0.9822,0.9822,0.9822,0.9822,0.9822,0.0,0.9822,0.9822,0.9822,0.9822,0.9829,0.9897,0.9883,0.9829,0.9897,0.9876,0.9822,0.9822,1.0422,1.1442,1.3048,1.4658,1.6079,1.6786,1.6492,1.6079,1.6786,1.5843,1.4777,1.5725,1.4777,1.3526,1.3526,1.2337,1.0899,0.9997,0.9822,0.9781,0.9639,0.9415,0.9205,0.9055,0.9035,0.9015,0.8892,0.8994,0.9008,0.8892,0.8885,0.8885,0.8885,0.8885,0.8885,0.8885,1.1,1.2344,1.2344,1.3696,1.418,1.3534,1.2724,1.1647,1.0131,1.0131,0.9754,0.8885,0.8885,0.8885,0.8885,0.8885,0.8885,0.9612,0.9808,0.9849,0.9923,0.9842,0.9639,0.8986,0.8777,0.8343,0.7206,0.6681,0.6274,0.5915,0.6586,0.7276,0.7398,0.8408,0.9252,0.9618,0.9551,0.9557,0.9795,0.9822,0.9822,0.9822,0.9822,0.9822,0.9822,0.9883,0.9903,0.9829,0.9822,0.9822,0.9822,0.9822,0.9822,0.9822,0.9822,0.9822,0.9822,0.9822,0.9822,0.9822,0.9822,0.9822,0.9822,0.9822,0.9822,0.9822,0.9822,0.9822,0.9836,0.9903,0.9876,0.9836,0.9909,0.9876,0.9822,0.9822,0.9943,1.0301,1.1495,1.2988,1.4599,1.6197,1.5843,1.5252,1.6856,1.602,1.4658,1.4837,1.3407,1.1916,1.2157,1.0959,0.9822,0.9822,0.9808,0.9754,0.9632,0.949,0.934,0.9262,0.9241,0.9137,0.8988,0.9076,0.9103,0.8898,0.8885,0.8885,0.8885,0.8885,0.8885,0.8885,1.0241,1.1109,1.1109,1.229,1.2408,1.1164,1.0891,1.0186,0.894,0.8885,0.8885,0.8885,0.8885,0.8885,0.8885,0.8885,0.8885,0.9578,0.9734,0.9829,0.9856,0.9754,0.949,0.8886,0.854,0.7977,0.6723,0.6152,0.5711,0.5047,0.5657,0.6505,0.7296,0.8275,0.9211,0.9815,0.9889,0.9842,0.9829,0.9822,0.9822,0.9822,0.9822,0.9822,0.9822,0.9842,0.9849,0.9822,0.9822,0.9822,0.9822,0.9822,0.9822,0.9822,0.9822,0.9822,0.9822,0.9822,0.9822,0.9822,0.9822,0.9822,0.9822,0.9822,0.0,0.9822,0.9822,0.9822,0.9822,0.9849,0.9842,0.9822,0.9849,0.9842,0.9822,0.9822,1.0657,1.1615,1.0543,1.1314,1.2928,1.454,1.5725,1.6915,1.8519,1.6856,1.4896,1.6256,1.3398,1.0536,1.1856,1.0959,0.9822,0.9822,0.9727,0.9639,0.9612,0.949,0.9374,0.9347,0.934,0.9293,0.9193,0.9193,0.9103,0.8898,0.8885,0.8885,0.8885,0.8885,0.8885,0.8885,1.0241,1.1109,1.1109,1.1319,1.1374,1.1109,0.9919,0.9154,0.8885,0.8885,0.8885,0.8885,0.8885,0.8885,0.8885,0.8885,0.8885,0.9564,0.9713,0.9842,0.9856,0.9829,0.9462,0.8465,0.8018,0.7419,0.5874,0.5379,0.5087,0.4682,0.5372,0.62,0.675,0.7997,0.9006,0.9363,0.9741,0.993,0.9836,0.9822,0.9822,0.9822,0.9822,0.9822,0.9822,0.9822,0.9822,0.9822,0.9822,0.9822,0.9822,0.9822,0.9822,0.9822,0.9822,0.9822,0.9822,0.9822,0.9822,0.9822,0.9822,0.9822,0.9822,0.9822,0.9822,0.9822,0.9822,0.9822,0.9829,0.9849,0.989,0.9829,0.9849,0.989,0.9822,0.9822,1.0301,1.0838,1.0058,1.0899,1.2337,1.3108,1.3885,1.4826,1.6444,1.5795,1.4599,1.4529,1.2808,1.102,1.0959,1.0361,0.9822,0.9822,0.9768,0.972,0.972,0.9598,0.9503,0.9503,0.9503,0.9449,0.935,0.933,0.9218,0.9069,0.8988,0.8885,0.8885,0.8885,0.8885,0.8885,0.9533,0.9966,0.9966,0.9966,0.9966,0.9966,0.9265,0.8885,0.8885,0.8885,0.8885,0.8885,0.8885,0.8885,0.8885,0.8885,0.8885,0.9503,0.9666,0.9815,0.9903,0.9863,0.9374,0.8024,0.7461,0.6776,0.5196,0.4748,0.4634,0.4511,0.5162,0.5854,0.6245,0.7495,0.8521,0.8838,0.9411,0.9849,0.9822,0.9822,0.9822,0.9822,0.9822,0.9822,0.9822,0.9822,0.9822,0.9822,0.9822,0.9822,0.9822,0.9822,0.9822,0.9822,0.9822,0.9822,0.9822,0.9822,0.9822,0.9822,0.9822,0.9822,0.9822,0.9822,0.9822,0.0,0.9822,0.9822,0.9836,0.9889,0.9862,0.9836,0.9896,0.9862,0.9822,0.9822,0.9822,0.9822,0.9822,1.0664,1.1736,1.2097,1.2217,1.2517,1.4123,1.4361,1.3765,1.2517,1.1916,1.1382,1.0119,0.9822,0.9822,0.9822,0.9822,0.9815,0.9781,0.9707,0.9646,0.9612,0.9632,0.9591,0.9408,0.9381,0.9313,0.913,0.9008,0.8885,0.8885,0.8885,0.8885,0.8885,0.8885,0.8885,0.8885,0.8885,0.8885,0.8885,0.8885,0.8885,0.8885,0.8885,0.8885,0.8885,0.8885,0.8885,0.8885,0.8885,0.8885,0.9286,0.951,0.9659,0.9808,0.9632,0.9069,0.7719,0.7075,0.6369,0.4992,0.4621,0.4505,0.4491,0.4682,0.5135,0.6143,0.662,0.738,0.8689,0.911,0.9381,0.9774,0.9822,0.9822,0.9822,0.9822,0.9822,0.9822,0.9822,0.9822,0.9822,0.9822,0.9822,0.9822,0.9822,0.9822,0.9822,0.9822,0.9822,0.9822,0.9822,0.9822,0.9822,0.9822,0.9822,0.9822,0.9822,0.9822,0.0,0.9822,0.9822,0.9822,0.9836,0.9836,0.9822,0.9836,0.9836,0.9822,0.9822,0.9822,0.9822,0.9822,0.9883,1.0301,1.1736,1.2217,1.2517,1.4123,1.3526,1.2397,1.2217,1.114,0.9997,0.9822,0.9822,0.9822,0.9822,0.9822,0.9781,0.9652,0.972,0.9761,0.9632,0.972,0.9707,0.9422,0.9381,0.9279,0.8994,0.8892,0.8885,0.8885,0.8885,0.8885,0.8885,0.8885,0.8885,0.8885,0.8885,0.8885,0.8885,0.8885,0.8885,0.8885,0.8885,0.8885,0.8885,0.8885,0.8885,0.8885,0.8885,0.8885,0.9144,0.9354,0.9483,0.9544,0.9266,0.8696,0.7665,0.6927,0.6132,0.5047,0.4662,0.4491,0.4491,0.4539,0.4601,0.4649,0.5216,0.5812,0.6424,0.7192,0.8021,0.8919,0.9178,0.9429,0.9788,0.9822,0.9822,0.9822,0.9822,0.9822,0.9822,0.9822,0.9822,0.9822,0.9822,0.9822,0.9822,0.9822,0.9822,0.9822,0.9822,0.9822,0.9822,0.9822,0.9822,0.9822,0.9822,0.9822,0.0,0.9822,0.9822,0.9822,0.9822,0.9822,0.9822,0.9822,0.9822,0.9822,0.9822,0.9822,0.9822,0.9822,0.9822,0.9943,1.0543,1.0778,1.0899,1.1555,1.1261,1.0778,1.0778,1.0301,0.9822,0.9822,0.9822,0.9822,0.9822,0.9822,0.9802,0.9747,0.9781,0.9802,0.9747,0.9781,0.9754,0.9551,0.9442,0.9306,0.9096,0.8994,0.8885,0.8885,0.8885,0.8885,0.8885,0.8885,0.8885,0.8885,0.8885,0.8885,0.8885,0.8885,0.8885,0.8885,0.8885,0.8885,0.8885,0.8885,0.8885,0.8885,0.8885,0.8885,0.8974,0.9198,0.9327,0.9367,0.9008,0.8397,0.7455,0.6695,0.5922,0.4979,0.4641,0.4491,0.4491,0.4491,0.4304,0.3711,0.4144,0.4672,0.4993,0.5536,0.6485,0.8142,0.8309,0.8559,0.9444,0.972,0.9822,0.9822,0.9822,0.9822,0.9822,0.9822,0.9822,0.9822,0.9822,0.9822,0.9822,0.9822,0.9822,0.9822,0.9822,0.9822,0.9822,0.9822,0.9822,0.9822,0.9822,0.9822,0.0,0.9822,0.9822,0.9822,0.9822,0.9822,0.9822,0.9822,0.9822,0.9822,0.9822,0.9822,0.9822,0.9822,0.9822,0.9822,0.9822,0.9822,0.9822,0.9822,0.9822,0.9822,0.9822,0.9822,0.9822,0.9822,0.9822,0.9822,0.9822,0.9822,0.9808,0.9768,0.9795,0.9808,0.9768,0.9795,0.9754,0.9571,0.9449,0.9313,0.9117,0.9001,0.8885,0.8885,0.8885,0.8885,0.8885,0.8885,0.8885,0.8885,0.8885,0.8885,0.8885,0.8885,0.8885,0.8885,0.8885,0.8885,0.8885,0.8885,0.8885,0.8885,0.8885,0.8885,0.8683,0.9049,0.9248,0.934,0.8927,0.8214,0.717,0.6424,0.5732,0.4716,0.4491,0.4491,0.4491,0.4491,0.4304,0.3711,0.3715,0.4193,0.5235,0.461,0.4997,0.7704,0.7256,0.7282,0.8789,0.9476,0.9822,0.9822,0.9822,0.0,0.9822,0.9822,0.9822,0.9822,0.9822,0.9822,0.9822,0.9822,0.9822,0.9822,0.9822,0.9822,0.9822,0.9822,0.9822,0.9822,0.9822,0.9822,0.0,0.9822,0.9822,0.9822,0.9822,0.9822,0.9822,0.9822,0.9822,0.9822,0.9822,0.9822,0.9822,0.9822,0.9822,0.9822,0.9822,0.9822,0.9822,0.9822,0.9822,0.9822,0.9822,0.9822,0.9822,0.9822,0.9822,0.9822,0.9822,0.9822,0.9781,0.9639,0.9727,0.9774,0.9639,0.9727,0.972,0.9429,0.9381,0.9273,0.8925,0.8885,0.8885,0.8885,0.8885,0.8885,0.8885,0.8885,0.8885,0.8885,0.8885,0.8885,0.8885,0.8885,0.8885,0.8885,0.8885,0.8885,0.8885,0.8885,0.8885,0.8885,0.8885,0.8885,0.7773,0.7977,0.8052,0.7889,0.7475,0.6966,0.6397,0.5811,0.5231,0.4728,0.4559,0.4491,0.4491,0.4491,0.44,0.4055,0.4059,0.4007,0.3853,0.4723,0.5694,0.6536,0.7917,0.9033,0.9471,0.9713,0.9822,0.9822,0.9822,0.9822,0.9822,0.9822,0.9822,0.9822,0.9822,0.9822,0.9822,0.9822,0.9822,0.9822,0.9822,0.9822,0.9822,0.9822,0.9822,0.9822,0.9822,0.0,0.0,0.9822,0.9822,0.9822,0.9822,0.9822,0.9822,0.9822,0.9822,0.9822,0.9822,0.9822,0.9822,0.9822,0.9822,0.9822,0.9822,0.9822,0.9822,0.9822,0.9822,0.9822,0.9822,0.9822,0.9822,0.9822,0.9822,0.9822,0.9822,0.9822,0.9808,0.9761,0.9788,0.9808,0.9761,0.9713,0.9612,0.9408,0.935,0.9157,0.8905,0.8885,0.8885,0.8885,0.8885,0.8885,0.8885,0.8885,0.8885,0.8885,0.8885,0.8885,0.8885,0.8885,0.8885,0.8885,0.8885,0.8885,0.8885,0.8885,0.8885,0.8885,0.8885,0.8885,0.7068,0.7312,0.738,0.7146,0.6763,0.6354,0.601,0.5447,0.4935,0.4667,0.4559,0.4491,0.4491,0.4263,0.4024,0.3902,0.3704,0.3634,0.3823,0.4624,0.5426,0.6176,0.8156,0.951,0.9564,0.972,0.9822,0.9822,0.9822,0.9822,0.9822,0.9822,0.9822,0.9822,0.9822,0.9822,0.9822,0.9822,0.9822,0.9822,0.9822,0.9822,0.9822,0.9822,0.9822,0.9822,0.0,0.0,0.0,0.9822,0.9822,0.9822,0.9822,0.9822,0.9822,0.9822,0.9822,0.9822,0.9822,0.9822,0.9822,0.9822,0.9822,0.9822,0.9822,0.9822,0.9822,0.9822,0.9822,0.9822,0.9822,0.9822,0.9822,0.9822,0.9822,0.9822,0.9822,0.9822,0.9822,0.9822,0.9822,0.9802,0.9747,0.9666,0.9537,0.9327,0.9268,0.9103,0.8898,0.8885,0.8885,0.8885,0.8885,0.8885,0.8885,0.8885,0.8885,0.8885,0.8885,0.8885,0.8885,0.8885,0.8885,0.8885,0.8885,0.8885,0.8885,0.8885,0.8885,0.8885,0.8885,0.8885,0.0,0.6856,0.6964,0.6943,0.6573,0.6122,0.5793,0.5298,0.0,0.4552,0.4491,0.4498,0.4518,0.3916,0.3424,0.347,0.3031,0.3247,0.4907,0.4536,0.4755,0.6713,0.8148,0.9055,0.9262,0.9585,0.9822,0.9822,0.9822,0.9822,0.9822,0.9822,0.9822,0.9822,0.9822,0.9822,0.9822,0.9822,0.9822,0.9822,0.9822,0.9822,0.9822,0.9822,0.9822,0.0,0.0,0.0,0.0,0.9822,0.9822,0.9822,0.9822,0.9822,0.9822,0.9822,0.9822,0.9822,0.9822,0.9822,0.9822,0.9822,0.9822,0.9822,0.9822,0.9822,0.9822,0.9822,0.9822,0.9822,0.9822,0.9822,0.9822,0.9822,0.9822,0.9822,0.9822,0.9822,0.9822,0.9822,0.9815,0.9768,0.9632,0.9591,0.9483,0.9255,0.92,0.9089,0.8898,0.8885,0.8885,0.8885,0.8885,0.8885,0.8885,0.8885,0.8885,0.8885,0.8885,0.8885,0.8885,0.8885,0.8885,0.8885,0.8885,0.8885,0.8885,0.8885,0.8885,0.8885,0.8885,0.8885,0.5292,0.0,0.5725,0.5494,0.5338,0.5182,0.0,0.4843,0.4694,0.4532,0.4491,0.4559,0.4769,0.3983,0.3784,0.5155,0.4772,0.4644,0.5529,0.6149,0.724,0.8993,0.944,0.9673,0.9822,0.9829,0.9822,0.9822,0.9822,0.9822,0.9822,0.9822,0.9822,0.9822,0.9822,0.9822,0.9822,0.9822,0.9822,0.9822,0.9822,0.9822,0.9822,0.9822,0.9822,0.0,0.0,0.0,0.9822,0.9822,0.9822,0.9822,0.9822,0.9822,0.9822,0.9822,0.9822,0.9822,0.9822,0.9822,0.9822,0.9822,0.9822,0.9822,0.9822,0.9822,0.9822,0.9822,0.9822,0.9822,0.9822,0.9822,0.9822,0.9822,0.9822,0.9822,0.9822,0.9822,0.9822,0.9822,0.9734,0.9646,0.9612,0.9415,0.9296,0.9221,0.9062,0.8974,0.8885,0.8885,0.8885,0.8885,0.8885,0.8885,0.8885,0.8885,0.8885,0.8885,0.8885,0.8885,0.8885,0.8885,0.8885,0.8885,0.8885,0.8885,0.8885,0.8885,0.8885,0.8885,0.8885,0.8885,0.4707,0.5057,0.5358,0.5162,0.5067,0.4961,0.4911,0.4735,0.4593,0.4505,0.4491,0.4559,0.4769,0.4207,0.4139,0.5491,0.5474,0.5697,0.6792,0.7602,0.8508,0.962,0.9673,0.9707,0.0,0.9869,0.9822,0.9822,0.9822,0.9822,0.9822,0.9822,0.9822,0.9822,0.9822,0.9822,0.9822,0.9822,0.9822,0.9822,0.9822,0.9822,0.9822,0.9822,0.9822,0.0,0.0,0.0,0.9822,0.9822,0.9822,0.9822,0.9822,0.9822,0.9822,0.9822,0.9822,0.9822,0.9822,0.9822,0.9822,0.9822,0.9822,0.9822,0.9822,0.9822,0.9822,0.9822,0.9822,0.9822,0.9822,0.9822,0.9822,0.9822,0.9822,0.9822,0.9822,0.9822,0.9822,0.9822,0.9707,0.9585,0.9517,0.9306,0.9187,0.9062,0.8988,0.8885,0.8885,0.8885,0.8885,0.8885,0.8885,0.8885,0.8885,0.8885,0.8885,0.8885,0.8885,0.8885,0.8885,0.8885,0.8885,0.8885,0.8885,0.8885,0.8885,0.8885,0.8885,0.8885,0.8885,0.8885,0.46,0.5071,0.5487,0.5303,0.5162,0.5056,0.5009,0.4735,0.4491,0.4491,0.4511,0.46,0.4816,0.4345,0.4315,0.5438,0.5938,0.6731,0.8231,0.8791,0.9178,0.9449,0.9462,0.0,0.9829,0.9836,0.9822,0.9822,0.9822,0.9822,0.9822,0.9822,0.9822,0.9822,0.9822,0.9822,0.9822,0.9822,0.9822,0.9822,0.9822,0.9822,0.9822,0.9822,0.9822,0.9822,0.0,0.0,0.9822,0.9822,0.9822,0.9822,0.9822,0.9822,0.9822,0.9822,0.9822,0.9822,0.9822,0.9822,0.9822,0.9822,0.9822,0.9822,0.9822,0.9822,0.9822,0.9822,0.9822,0.9822,0.9822,0.9822,0.9822,0.9822,0.9822,0.9822,0.9822,0.9822,0.9822,0.9822,0.9686,0.9537,0.9401,0.9239,0.9083,0.8898,0.8885,0.8885,0.8885,0.8885,0.8885,0.8885,0.8885,0.8885,0.8885,0.8885,0.8885,0.8885,0.8885,0.8885,0.8885,0.8885,0.8885,0.8885,0.8885,0.8885,0.8885,0.8885,0.8885,0.8885,0.8885,0.8885,0.5119,0.5699,0.5917,0.4887,0.4775,0.4884,0.4655,0.4539,0.4491,0.4491,0.4593,0.4857,0.5508,0.4047,0.3619,0.6234,0.7369,0.8186,0.8927,0.9401,0.9747,0.9862,0.9836,0.9822,0.9936,0.9897,0.9822,0.9822,0.0,0.9822,0.9822,0.9822,0.9822,0.9822,0.9822,0.9822,0.9822,0.9822,0.9822,0.9822,0.9822,0.9822,0.9822,0.9822,0.9822,0.9822,0.0,0.9822,0.9822,0.9822,0.9822,0.9822,0.9822,0.9822,0.9822,0.9822,0.9822,0.9822,0.9822,0.9822,0.9822,0.9822,0.9822,0.9822,0.9822,0.9822,0.9822,0.9822,0.9822,0.9822,0.9822,0.9822,0.9822,0.9822,0.9822,0.9822,0.9822,0.9822,0.9822,0.9822,0.9598,0.9408,0.9388,0.915,0.896,0.8885,0.8885,0.8885,0.8885,0.8885,0.8885,0.8885,0.8885,0.8885,0.8885,0.8885,0.8885,0.8885,0.8885,0.8885,0.8885,0.8885,0.8885,0.8885,0.8885,0.8885,0.8885,0.8885,0.8885,0.8885,0.8885,0.8885,0.4832,0.5289,0.5576,0.5264,0.5779,0.6329,0.6186,0.603,0.584,0.5631,0.5576,0.5678,0.6027,0.5467,0.5712,0.7902,0.8397,0.8689,0.9262,0.9313,0.9429,0.9659,0.0,0.9673,0.9842,0.9863,0.9822,0.0,0.0,0.0,0.9822,0.9822,0.9822,0.9822,0.9822,0.9822,0.9822,0.9822,0.9822,0.9822,0.9822,0.9822,0.9822,0.9822,0.9822,0.9822,0.0,0.9822,0.9822,0.9822,0.9822,0.9822,0.9822,0.9822,0.9822,0.9822,0.9822,0.9822,0.9822,0.9822,0.9822,0.9822,0.9822,0.9822,0.9822,0.9822,0.9822,0.9822,0.9822,0.9822,0.9822,0.9822,0.9822,0.9822,0.9822,0.9822,0.9822,0.9822,0.9822,0.9822,0.9585,0.9381,0.9381,0.9137,0.8885,0.8885,0.8885,0.8885,0.8885,0.8885,0.8885,0.8885,0.8885,0.8885,0.8885,0.8885,0.8885,0.8885,0.8885,0.8885,0.8885,0.8885,0.8885,0.8885,0.8885,0.8885,0.8885,0.8885,0.8885,0.8885,0.8885,0.8885,0.4716,0.5026,0.5413,0.5901,0.6546,0.7149,0.7428,0.7132,0.6788,0.6661,0.6613,0.6559,0.6559,0.7007,0.7704,0.8631,0.8798,0.9001,0.9381,0.9239,0.9178,0.9408,0.9435,0.9537,0.9795,0.0,0.0,0.0,0.0,0.0,0.9822,0.9822,0.9822,0.9822,0.9822,0.9822,0.9822,0.9822,0.9822,0.9822,0.9822,0.9822,0.9822,0.9822,0.9822,0.9822,0.9822,0.9822,0.9822,0.9822,0.9822,0.9822,0.9822,0.9822,0.9822,0.9822,0.9822,0.9822,0.9822,0.9822,0.9822,0.9822,0.9822,0.9822,0.9822,0.9822,0.9822,0.9822,0.9822,0.9822,0.9822,0.9822,0.9822,0.9822,0.9822,0.9822,0.9822,0.9822,0.9822,0.9822,0.9585,0.9381,0.9381,0.9137,0.8885,0.8885,0.8885,0.8885,0.8885,0.8885,0.8885,0.8885,0.8885,0.8885,0.8885,0.8885,0.8885,0.8885,0.8885,0.8885,0.8885,0.8885,0.8885,0.8885,0.8885,0.8885,0.8885,0.8885,0.8885,0.8885,0.8885,0.8885,0.5359,0.5732,0.6033,0.6525,0.6078,0.5849,0.6876,0.6579,0.6256,0.6916,0.7197,0.7337,0.7337,0.7835,0.7949,0.7067,0.8283,0.9395,0.9571,0.9571,0.9571,0.9591,0.9591,0.9652,0.0,0.0,0.0,0.0,0.0,0.0,0.9822,0.9822,0.9822,0.9822,0.9822,0.9822,0.9822,0.9822,0.9822,0.9822,0.9822,0.9822,0.9822,0.9822,0.9822,0.9822,0.9822,0.9822,0.9822,0.9822,0.9822,0.9822,0.9822,0.9822,0.9822,0.9822,0.9822,0.9822,0.9822,0.9822,0.9822,0.9822,0.9822,0.9822,0.9822,0.9822,0.9822,0.9822,0.9822,0.9822,0.9822,0.9822,0.9822,0.9822,0.9822,0.9822,0.9822,0.9822,0.9822,0.9822,0.9585,0.9381,0.9381,0.9137,0.8885,0.8885,0.8885,0.8885,0.8885,0.8885,0.8885,0.8885,0.8885,0.8885,0.8885,0.8885,0.8885,0.8885,0.8885,0.8885,0.8885,0.8885,0.8885,0.8885,0.8885,0.8885,0.8885,0.8885,0.8885,0.8885,0.8885,0.8885,0.4972,0.5521,0.6054,0.6363,0.6383,0.6627,0.7726,0.7902,0.7894,0.8316,0.8364,0.8262,0.7984,0.8545,0.8768,0.8145,0.8882,0.951,0.9469,0.9469,0.9469,0.9469,0.9551,0.0,0.0,0.0,0.0,0.0,0.0,0.0,0.9822,0.9822,0.9822,0.9822,0.9822,0.9329,0.8343,0.8282,0.8282,0.8343,0.9329,0.9822,0.9822,0.9822,0.9822,0.9822,0.9822,0.9822,0.9822,0.9822,0.9822,0.9822,0.9822,0.9822,0.9822,0.9822,0.9822,0.9822,0.9822,0.9822,0.9822,0.9822,0.9822,0.9822,0.9822,0.9822,0.9822,0.9822,0.9822,0.9822,0.9822,0.9822,0.9822,0.9822,0.9822,0.9822,0.9822,0.9822,0.9822,0.9822,0.9585,0.9381,0.9381,0.9137,0.8885,0.8885,0.8885,0.8885,0.8885,0.8885,0.8885,0.8885,0.8885,0.8885,0.8885,0.8885,0.8885,0.8885,0.8885,0.8885,0.8885,0.8885,0.8885,0.8885,0.8885,0.8885,0.8885,0.8885,0.8885,0.8885,0.8885,0.8885,0.4935,0.5386,0.5962,0.6293,0.6593,0.7143,0.8235,0.8574,0.8791,0.9266,0.9137,0.879,0.854,0.8859,0.9103,0.8899,0.9245,0.9483,0.9334,0.9306,0.9306,0.9306,0.0,0.0,0.0,0.0,0.0,0.0,0.0,0.0,0.0,0.9822,0.9822,0.9822,0.9822,0.9019,0.7423,0.7423,0.7113,0.6625,0.8282,0.9329,0.9822,0.9822,0.9822,0.9822,0.9822,0.9822,0.9822,0.9822,0.9822,0.9822,0.9822,0.9822,0.9822,0.9822,0.9822,0.9822,0.9822,0.9822,0.9822,0.9822,0.9822,0.9822,0.9822,0.9822,0.9822,0.9822,0.9822,0.9822,0.9822,0.9822,0.9822,0.9822,0.9822,0.9822,0.9822,0.9822,0.9822,0.9822,0.9625,0.9456,0.9456,0.9205,0.9008,0.9008,0.8967,0.8885,0.8885,0.8885,0.8885,0.8885,0.8885,0.8885,0.8885,0.8885,0.8885,0.8885,0.8885,0.8885,0.8885,0.8885,0.8885,0.8885,0.8885,0.8885,0.8885,0.8885,0.8885,0.8885,0.8885,0.8885,0.5392,0.5515,0.5745,0.6368,0.66,0.7034,0.8214,0.8255,0.8332,0.9571,0.9296,0.8892,0.8885,0.8818,0.8716,0.871,0.9089,0.9327,0.9228,0.9207,0.9207,0.0,0.0,0.0,0.0,0.0,0.0,0.0,0.0,0.0,0.0,0.9822,0.9822,0.9822,0.9822,0.9019,0.7418,0.7357,0.6503,0.4916,0.6564,0.8221,0.9761,0.9822,0.9822,0.9822,0.9822,0.9822,0.9822,0.9822,0.9822,0.9822,0.9822,0.9822,0.9761,0.9761,0.9761,0.9761,0.9761,0.9761,0.9822,0.9822,0.9822,0.9822,0.9822,0.9822,0.9822,0.9822,0.9822,0.9822,0.9822,0.9822,0.9822,0.9822,0.9822,0.9822,0.9822,0.9822,0.9822,0.9822,0.9707,0.9612,0.9612,0.9354,0.9214,0.9207,0.9028,0.8885,0.8885,0.8885,0.8885,0.8885,0.8885,0.8885,0.8885,0.8885,0.8885,0.8885,0.8885,0.8885,0.8885,0.8885,0.8885,0.8885,0.8885,0.8885,0.8885,0.8885,0.8885,0.8885,0.8885,0.8885,0.4945,0.5766,0.662,0.6422,0.7426,0.8492,0.8743,0.8648,0.8703,0.9374,0.9456,0.9279,0.8859,0.9089,0.9171,0.8635,0.8927,0.9171,0.9022,0.9001,0.0,0.0,0.0,0.0,0.0,0.0,0.0,0.0,0.0,0.0,0.0,0.9822,0.9822,0.9822,0.9822,0.8471,0.5651,0.5651,0.4855,0.3262,0.4855,0.6508,0.816,0.9268,0.9822,0.9822,0.9822,0.9822,0.9822,0.9822,0.9822,0.9822,0.9822,0.9079,0.8099,0.8099,0.8099,0.8099,0.8099,0.8836,0.9822,0.9822,0.9822,0.9822,0.9822,0.9822,0.9822,0.9822,0.9822,0.9822,0.9822,0.9822,0.9822,0.9822,0.9822,0.9822,0.9822,0.9822,0.9822,0.9822,0.9707,0.9612,0.9612,0.9442,0.9337,0.9228,0.9173,0.9055,0.8898,0.8885,0.8885,0.8885,0.8885,0.8885,0.8885,0.8885,0.8885,0.8885,0.8885,0.8885,0.8885,0.8885,0.8885,0.8885,0.8885,0.8885,0.8885,0.8885,0.8885,0.8885,0.8885,0.8885,0.5603,0.643,0.7258,0.7426,0.8252,0.9001,0.9096,0.9089,0.9144,0.9415,0.9449,0.932,0.8954,0.9137,0.9191,0.8737,0.8893,0.9035,0.8898,0.0,0.0,0.0,0.0,0.0,0.0,0.0,0.0,0.0,0.0,0.0,0.0,0.9822,0.9822,0.9822,0.9822,0.8221,0.4916,0.4916,0.3751,0.154,0.3812,0.5406,0.6503,0.8775,0.9822,0.9822,0.9822,0.9822,0.9761,0.9079,0.8836,0.8775,0.8099,0.724,0.6381,0.6381,0.6808,0.7423,0.7423,0.8465,0.9822,0.9822,0.9822,0.9822,0.9822,0.9822,0.9822,0.9822,0.9822,0.9822,0.9822,0.9822,0.9822,0.9822,0.9822,0.9822,0.9822,0.9822,0.9822,0.9822,0.9754,0.9693,0.9693,0.9571,0.9422,0.9323,0.9144,0.9035,0.8892,0.8885,0.8885,0.8885,0.8885,0.8885,0.8885,0.8885,0.8885,0.8885,0.8885,0.8885,0.8885,0.8885,0.8885,0.8885,0.8885,0.8885,0.8885,0.8885,0.8885,0.8885,0.8885,0.8885,0.6721,0.7238,0.7781,0.8873,0.894,0.8899,0.9306,0.949,0.9564,0.9551,0.934,0.9207,0.9193,0.9035,0.8898,0.8885,0.8885,0.8885,0.0,0.0,0.0,0.0,0.0,0.0,0.0,0.0,0.0,0.0,0.0,0.0,0.0,0.9822,0.9822,0.9822,0.9633,0.816,0.5161,0.4855,0.32,0.0247,0.3259,0.4671,0.4794,0.8099,0.9511,0.939,0.9511,0.9511,0.9268,0.7911,0.7296,0.6996,0.5468,0.4794,0.4671,0.4671,0.5647,0.693,0.693,0.8039,0.9329,0.9329,0.9329,0.939,0.9511,0.9572,0.964,0.9761,0.9822,0.9822,0.9822,0.9822,0.9822,0.9822,0.9822,0.9822,0.9822,0.9822,0.9822,0.9822,0.9822,0.9822,0.9822,0.97,0.9551,0.9388,0.9117,0.8885,0.8885,0.8885,0.8885,0.8885,0.8885,0.8885,0.8885,0.8885,0.8885,0.8885,0.8885,0.8885,0.8885,0.8885,0.8885,0.8885,0.8885,0.8885,0.8885,0.8885,0.8885,0.8885,0.8885,0.8885,0.6064,0.7143,0.8303,0.856,0.9022,0.9442,0.9537,0.9401,0.9218,0.911,0.9123,0.9173,0.9008,0.9049,0.9069,0.8898,0.8885,0.0,0.0,0.0,0.0,0.0,0.0,0.0,0.0,0.0,0.0,0.0,0.0,0.0,0.9822,0.9822,0.9822,0.9822,0.8587,0.7606,0.6869,0.4303,0.2647,0.0,0.2708,0.3016,0.3139,0.6442,0.7179,0.6018,0.7362,0.7179,0.6018,0.6991,0.6625,0.5406,0.5039,0.4119,0.3016,0.3016,0.3259,0.3566,0.3566,0.461,0.5957,0.5957,0.5957,0.6202,0.7545,0.7911,0.816,0.9451,0.9822,0.9822,0.9822,0.9822,0.9822,0.9822,0.9822,0.9822,0.9822,0.9822,0.9822,0.9822,0.9822,0.9822,0.9822,0.97,0.9517,0.9303,0.9055,0.8885,0.8885,0.8885,0.8885,0.8885,0.8885,0.8885,0.8885,0.8885,0.8885,0.8885,0.8885,0.8885,0.8885,0.8885,0.8885,0.8885,0.8885,0.8885,0.8885,0.8885,0.8885,0.8885,0.8885,0.8885,0.6512,0.7448,0.8316,0.896,0.9367,0.9612,0.9612,0.9374,0.9187,0.9055,0.9049,0.9028,0.8898,0.9001,0.9028,0.8898,0.0,0.0,0.0,0.0,0.0,0.0,0.0,0.0,0.0,0.0,0.0,0.0,0.0,0.9822,0.9822,0.9822,0.9822,0.9822,0.8221,0.6996,0.6198,0.3751,0.2094,0.1295,0.2094,0.2524,0.2585,0.5096,0.5712,0.4977,0.5835,0.5712,0.4916,0.5035,0.4545,0.3689,0.2893,0.2033,0.1295,0.1295,0.1787,0.2524,0.2524,0.3566,0.4916,0.4916,0.4916,0.5039,0.5957,0.6752,0.7545,0.8404,0.9207,0.9822,0.9822,0.9822,0.9822,0.9822,0.9822,0.9822,0.9822,0.9822,0.9822,0.9822,0.9822,0.9822,0.9822,0.9646,0.9449,0.9344,0.9076,0.8885,0.8885,0.8885,0.8885,0.8885,0.8885,0.8885,0.8885,0.8885,0.8885,0.8885,0.8885,0.8885,0.8885,0.8885,0.8885,0.8885,0.8885,0.8885,0.8885,0.8885,0.8885,0.8885,0.8885,0.8885,0.6919,0.7631,0.8201,0.9496,0.9713,0.9612,0.9612,0.9395,0.9241,0.9214,0.9042,0.8885,0.8885,0.8885,0.8885,0.0,0.0,0.0,0.0,0.0,0.0,0.0,0.0,0.0,0.0,0.0,0.0,0.0,0.0,0.9822,0.9822,0.9822,0.97,0.939,0.7789,0.632,0.4916,0.3016,0.154,0.0432,0.154,0.2094,0.2094,0.3444,0.4057,0.4057,0.4364,0.4303,0.3996,0.2954,0.2339,0.191,0.0555,0.0,0.0,0.0,0.0863,0.2094,0.2094,0.2954,0.4057,0.4057,0.4057,0.4119,0.4426,0.5464,0.6625,0.6869,0.816,0.939,0.939,0.9572,0.9761,0.9451,0.939,0.939,0.939,0.9147,0.9025,0.9329,0.9633,0.9815,0.9788,0.9557,0.9374,0.9347,0.911,0.8885,0.8885,0.8885,0.8885,0.8885,0.8885,0.8885,0.8885,0.8885,0.8885,0.8885,0.8885,0.8885,0.8885,0.8885,0.8885,0.8885,0.8885,0.8885,0.8885,0.8885,0.8885,0.8885,0.8885,0.8885,0.5651,0.6962,0.8472,0.9551,0.9713,0.9612,0.9612,0.9476,0.9313,0.9234,0.9042,0.8885,0.8885,0.8885,0.8885,0.0,0.0,0.0,0.0,0.0,0.0,0.0,0.0,0.0,0.0,0.0,0.0,0.0,0.9822,0.9822,0.9822,0.9822,0.914,0.7789,0.608,0.51,0.4916,0.1848,0.0925,0.2156,0.0925,0.0308,0.037,0.0555,0.0679,0.074,0.2216,0.1971,0.074,0.1971,0.1663,0.0308,0.0062,0.0,0.0,0.0,0.0123,0.0308,0.0308,0.0494,0.0679,0.0679,0.0679,0.0925,0.2401,0.2954,0.3444,0.4855,0.6446,0.7728,0.7728,0.8775,0.9451,0.8039,0.7728,0.7728,0.7728,0.6569,0.5957,0.7423,0.8836,0.9781,0.9659,0.9496,0.9334,0.9262,0.9042,0.8885,0.8885,0.8885,0.8885,0.8885,0.8885,0.8885,0.8885,0.8885,0.8885,0.8885,0.8885,0.8885,0.8885,0.8885,0.8885,0.8885,0.8885,0.8885,0.8885,0.8885,0.8885,0.8885,0.8885,0.8885,0.5922,0.7292,0.8621,0.9585,0.9774,0.9727,0.9727,0.9612,0.949,0.9422,0.9293,0.9137,0.8912,0.8885,0.0,0.0,0.0,0.0,0.0,0.0,0.0,0.0,0.0,0.0,0.0,0.0,0.0,0.0,0.9822,0.9822,0.9822,0.9822,0.9079,0.7423,0.5774,0.4487,0.3566,0.1171,0.037,0.111,0.037,0.0,0.0,0.0,0.0,0.0062,0.0802,0.0679,0.0062,0.0802,0.0679,0.0,0.0,0.0,0.0,0.0,0.0,0.0,0.0,0.0,0.0,0.0,0.0,0.0123,0.0863,0.1725,0.2647,0.3384,0.4732,0.6018,0.6018,0.6508,0.6874,0.6141,0.528,0.4668,0.4668,0.4794,0.5406,0.7052,0.7972,0.8696,0.9553,0.9537,0.9361,0.935,0.9083,0.8885,0.8885,0.8885,0.8885,0.8885,0.8885,0.8885,0.8885,0.8885,0.8885,0.8885,0.8885,0.8885,0.8885,0.8885,0.8885,0.8885,0.8885,0.8885,0.8885,0.8885,0.8885,0.8885,0.8885,0.8885,0.6071,0.7129,0.7977,0.9184,0.9483,0.9544,0.9768,0.9741,0.9652,0.9618,0.9517,0.9361,0.9103,0.9049,0.0,0.0,0.0,0.0,0.0,0.0,0.0,0.0,0.0,0.0,0.0,0.0,0.0,0.0,0.9822,0.9822,0.9822,0.9822,0.9079,0.7423,0.5774,0.4119,0.2524,0.0863,0.0,0.0,0.0,0.0,0.0,0.0,0.0,0.0,0.0,0.0,0.0,0.0,0.0,0.0,0.0,0.0,0.0,0.0,0.0,0.0,0.0,0.0,0.0,0.0,0.0,0.0,0.0,0.0863,0.1848,0.1848,0.3016,0.4303,0.4303,0.461,0.4794,0.4364,0.3384,0.2401,0.1971,0.3139,0.4671,0.5892,0.6503,0.7301,0.8897,0.8972,0.891,0.9323,0.913,0.8885,0.8885,0.8885,0.8885,0.8885,0.8885,0.8885,0.8885,0.8885,0.8885,0.8885,0.8974,0.8974,0.8885,0.8974,0.8974,0.8885,0.8885,0.8885,0.8885,0.8885,0.8885,0.8885,0.8885,0.8885,0.5284,0.5631,0.6047,0.8045,0.8554,0.8777,0.9625,0.9815,0.9774,0.9639,0.9605,0.9551,0.9388,0.0,0.0,0.0,0.0,0.0,0.0,0.0,0.0,0.0,0.0,0.0,0.0,0.0,0.0,0.0,0.9822,0.9822,0.9822,0.9822,0.9079,0.7423,0.5774,0.4119,0.2524,0.0863,0.0,0.0,0.0,0.0,0.0,0.0,0.0,0.0,0.0,0.0,0.0,0.0,0.0,0.0,0.0,0.0,0.0,0.0,0.0,0.0,0.0,0.0,0.0,0.0,0.0,0.0,0.0,0.0062,0.0123,0.0123,0.1356,0.2647,0.2647,0.3751,0.4487,0.3016,0.2585,0.2094,0.0494,0.1417,0.2647,0.2708,0.3996,0.559,0.7235,0.7233,0.7555,0.9142,0.913,0.8885,0.8885,0.8885,0.8885,0.8885,0.8885,0.8885,0.8885,0.8885,0.8885,0.8885,0.9069,0.9083,0.8892,0.9069,0.9076,0.8885,0.8885,0.8885,0.8885,0.8885,0.8885,0.8885,0.8885,0.8885,0.487,0.5257,0.574,0.7129,0.7916,0.8452,0.8866,0.9408,0.9808,0.9754,0.9747,0.9727,0.0,0.0,0.0,0.0,0.0,0.0,0.0,0.0,0.0,0.0,0.0,0.0,0.0,0.0,0.0,0.0,0.0,0.9822,0.9822,0.9822,0.8593,0.5896,0.5223,0.3628,0.0925,0.0308,0.0,0.0,0.0,0.0,0.0,0.0,0.0,0.0,0.0,0.0,0.0,0.0,0.0,0.0,0.0,0.0,0.0,0.0,0.0,0.0,0.0,0.0,0.0,0.0,0.0,0.0,0.0,0.0,0.0,0.0,0.0432,0.0925,0.0925,0.1295,0.1602,0.1048,0.0925,0.074,0.0123,0.0494,0.1233,0.2279,0.2954,0.3873,0.5529,0.64,0.7089,0.7735,0.8439,0.8885,0.8885,0.8885,0.8885,0.8885,0.8885,0.8885,0.8885,0.8885,0.8981,0.9069,0.9042,0.9035,0.9076,0.9035,0.8988,0.8885,0.8885,0.8885,0.8885,0.8885,0.8885,0.8885,0.8885,0.8885,0.4233,0.46,0.5085,0.6247,0.6885,0.7468,0.8418,0.8981,0.9401,0.9747,0.9822,0.9822,0.0,0.0,0.0,0.0,0.0,0.0,0.0,0.0,0.0,0.0,0.0,0.0,0.0,0.0,0.0,0.0,0.0,0.0,0.9822,0.9822,0.8282,0.4977,0.4364,0.277,0.0,0.0,0.0,0.0,0.0,0.0,0.0,0.0,0.0,0.0,0.0,0.0,0.0,0.0,0.0,0.0,0.0,0.0,0.0,0.0,0.0,0.0,0.0,0.0,0.0,0.0,0.0,0.0,0.0,0.0,0.0,0.0,0.0,0.0,0.0,0.0,0.0,0.0,0.0,0.0,0.0,0.0,0.0308,0.1417,0.1663,0.2152,0.3786,0.4773,0.5673,0.6744,0.7613,0.8325,0.883,0.8885,0.8885,0.8885,0.8885,0.8885,0.8885,0.8885,0.9001,0.92,0.9062,0.9055,0.9207,0.9062,0.8988,0.8885,0.8885,0.8885,0.8885,0.8885,0.8885,0.8885,0.8885,0.8885,0.0,0.0,0.0,0.5372,0.5433,0.5743,0.8217,0.852,0.852,0.9564,0.9781,0.9781,0.0,0.0,0.0,0.0,0.0,0.0,0.0,0.0,0.0,0.0,0.0,0.0,0.0,0.0,0.0,0.0,0.9822,0.9822,0.9822,0.97,0.8221,0.4977,0.3262,0.1663,0.0,0.0,0.0,0.0,0.0,0.0,0.0,0.0,0.0,0.0,0.0,0.0,0.0,0.0,0.0,0.0,0.0,0.0,0.0,0.0,0.0,0.0,0.0,0.0,0.0,0.0,0.0,0.0,0.0,0.0,0.0,0.0,0.0,0.0,0.0,0.0,0.0,0.0,0.0,0.0,0.0,0.0,0.0,0.0,0.0,0.0491,0.2172,0.2314,0.3209,0.6303,0.6715,0.7204,0.8657,0.8885,0.8885,0.8885,0.8885,0.8885,0.883,0.883,0.8946,0.9144,0.915,0.915,0.9207,0.9207,0.9089,0.8892,0.8892,0.8898,0.8898,0.8885,0.8885,0.8885,0.8885,0.8885,0.333,0.0,0.0,0.0,0.0,0.0,0.6166,0.6756,0.7461,0.8615,0.8771,0.8927,0.0,0.0,0.0,0.0,0.0,0.0,0.0,0.0,0.0,0.0,0.0,0.0,0.0,0.0,0.0,0.0,0.9822,0.9822,0.9822,0.7551,0.5835,0.4916,0.2155,0.0494,0.0,0.0,0.0,0.0,0.0,0.0,0.0,0.0,0.0,0.0,0.0,0.0,0.0,0.0,0.0,0.0,0.0,0.0,0.0,0.0,0.0,0.0,0.0,0.0,0.0,0.0,0.0,0.0,0.0,0.0,0.0,0.0,0.0,0.0,0.0,0.0,0.0,0.0,0.0,0.0,0.0,0.0,0.0,0.0,0.0,0.0123,0.0604,0.1544,0.2511,0.3387,0.5302,0.6871,0.726,0.8263,0.8885,0.8885,0.8885,0.8491,0.7371,0.7315,0.7365,0.7539,0.7466,0.7909,0.915,0.9207,0.9193,0.9096,0.9205,0.9259,0.9259,0.9042,0.8885,0.8885,0.8885,0.8885,0.3364,0.3507,0.3697,0.3826,0.0,0.0,0.5972,0.6458,0.7143,0.0,0.8974,0.9123,0.0,0.0,0.0,0.0,0.0,0.0,0.0,0.0,0.0,0.0,0.0,0.0,0.0,0.9822,0.0,0.9822,0.9822,0.9511,0.8836,0.6324,0.461,0.3935,0.1356,0.0,0.0,0.0,0.0,0.0,0.0,0.0,0.0,0.0,0.0,0.0,0.0,0.0,0.0,0.0,0.0,0.0,0.0,0.0,0.0,0.0,0.0,0.0,0.0,0.0,0.0,0.0,0.0,0.0,0.0,0.0,0.0,0.0,0.0,0.0,0.0,0.0,0.0,0.0,0.0,0.0,0.0,0.0,0.0,0.0,0.0,0.0,0.0,0.0717,0.1473,0.2128,0.3692,0.529,0.6538,0.7426,0.7986,0.7986,0.7979,0.7668,0.6878,0.6186,0.6118,0.6929,0.62,0.6247,0.7273,0.7288,0.7567,0.8202,0.8338,0.8678,0.9381,0.9205,0.9123,0.9123,0.9055,0.8686,0.3571,0.3651,0.39,0.4112,0.3948,0.0,0.6511,0.6688,0.698,0.0,0.9313,0.9381,0.0,0.0,0.0,0.0,0.0,0.0,0.0,0.0,0.0,0.0,0.0,0.0,0.9822,0.9822,0.9822,0.9822,0.9633,0.8836,0.724,0.5529,0.3996,0.2524,0.0863,0.0,0.0,0.0,0.0,0.0,0.0,0.0,0.0,0.0,0.0,0.0,0.0,0.0,0.0,0.0,0.0,0.0,0.0,0.0,0.0,0.0,0.0,0.0,0.0,0.0,0.0,0.0,0.0,0.0,0.0,0.0,0.0,0.0,0.0,0.0,0.0,0.0,0.0,0.0,0.0,0.0,0.0,0.0,0.0,0.0,0.0,0.0,0.0,0.0,0.0418,0.1733,0.2069,0.3196,0.5837,0.6335,0.6456,0.6456,0.6478,0.6417,0.6365,0.5056,0.4918,0.6488,0.5131,0.4377,0.4674,0.4562,0.5199,0.6633,0.6823,0.7716,0.9195,0.9336,0.9381,0.9374,0.9303,0.8369,0.4104,0.3998,0.4092,0.3927,0.4178,0.0,0.449,0.4613,0.4982,0.0,0.6132,0.6276,0.0,0.0,0.0,0.0,0.0,0.0,0.0,0.0,0.0,0.0,0.0,0.0,0.0,0.9822,0.9822,0.9822,0.8587,0.7118,0.5468,0.3873,0.2831,0.2524,0.0863,0.0,0.0,0.0,0.0,0.0,0.0,0.0,0.0,0.0,0.0,0.0,0.0,0.0,0.0,0.0,0.0,0.0,0.0,0.0,0.0,0.0,0.0,0.0,0.0,0.0,0.0,0.0,0.0,0.0,0.0,0.0,0.0,0.0,0.0,0.0,0.0,0.0,0.0,0.0,0.0,0.0,0.0,0.0,0.0,0.0,0.0,0.0,0.0,0.0,0.0122,0.0412,0.1462,0.244,0.3027,0.415,0.4933,0.4933,0.4948,0.4432,0.3211,0.2811,0.2801,0.3109,0.2811,0.321,0.4481,0.464,0.4819,0.5137,0.6589,0.7478,0.778,0.8902,0.9381,0.9381,0.9354,0.846,0.4368,0.4213,0.4321,0.4191,0.43,0.0,0.0,0.4748,0.506,0.5956,0.5962,0.601,0.6688,0.0,0.0,0.0,0.0,0.0,0.0,0.0,0.0,0.0,0.0,0.0,0.0,0.9822,0.9451,0.8647,0.7057,0.5464,0.3812,0.2954,0.2094,0.1295,0.0432,0.0,0.0,0.0,0.0,0.0,0.0,0.0,0.0,0.0,0.0,0.0,0.0,0.0,0.0,0.0,0.0,0.0,0.0,0.0,0.0,0.0,0.0,0.0,0.0,0.0,0.0,0.0,0.0,0.0,0.0,0.0,0.0,0.0,0.0,0.0,0.0,0.0,0.0,0.0,0.0,0.0,0.0,0.0,0.0,0.0,0.0,0.0,0.0,0.0,0.0,0.0,0.0607,0.1389,0.2121,0.2895,0.3324,0.3324,0.3348,0.3065,0.2406,0.1576,0.1452,0.2319,0.1594,0.147,0.2231,0.2308,0.2753,0.3585,0.5262,0.6564,0.7423,0.8096,0.8819,0.9598,0.953,0.8184,0.4712,0.4565,0.4716,0.4573,0.4504,0.4618,0.0,0.0,0.0,0.6159,0.6105,0.5996,0.6274,0.0,0.0,0.0,0.0,0.0,0.0,0.0,0.0,0.0,0.0,0.0,0.0,0.951,0.8735,0.7043,0.5466,0.3956,0.2582,0.2216,0.1418,0.0062,0.0,0.0,0.0,0.0,0.0,0.0,0.0,0.0,0.0,0.0,0.0,0.0,0.0,0.0,0.0,0.0,0.0,0.0,0.0,0.0,0.0,0.0,0.0,0.0,0.0,0.0,0.0,0.0,0.0,0.0,0.0,0.0,0.0,0.0,0.0,0.0,0.0,0.0,0.0,0.0,0.0,0.0,0.0,0.0,0.0,0.0,0.0,0.0,0.0,0.0,0.0,0.0,0.0,0.0439,0.1646,0.1766,0.1769,0.1769,0.1789,0.1863,0.1989,0.0755,0.0566,0.1912,0.0732,0.0,0.0,0.0,0.0609,0.1971,0.3628,0.51,0.6442,0.7113,0.8221,0.9815,0.94,0.7654,0.546,0.5332,0.5494,0.483,0.5053,0.5216,0.4389,0.0,0.4308,0.4178,0.0,0.3979,0.4117,0.0,0.0,0.0,0.0,0.0,0.5359,0.6418,0.726,0.0,0.0,0.0,0.0,0.0,0.7379,0.5361,0.4036,0.305,0.251,0.111,0.0185,0.0,0.0,0.0,0.0,0.0,0.0,0.0,0.0,0.0,0.0,0.0,0.0,0.0,0.0,0.0,0.0,0.0,0.0,0.0,0.0,0.0,0.0,0.0,0.0,0.0,0.0,0.0,0.0,0.0,0.0,0.0,0.0,0.0,0.0,0.0,0.0,0.0,0.0,0.0,0.0,0.0,0.0,0.0,0.0,0.0,0.0,0.0,0.0,0.0,0.0,0.0,0.0,0.0,0.0,0.0064,0.0252,0.0254,0.0256,0.0256,0.0257,0.0257,0.0257,0.0129,0.0064,0.0247,0.0123,0.0,0.0,0.0,0.0062,0.0308,0.191,0.2893,0.3075,0.5953,0.8221,0.9761,0.8332,0.6672,0.5467,0.565,0.5949,0.4938,0.5203,0.5413,0.4254,0.3977,0.3948,0.3819,0.0,0.0,0.0,0.0,0.0,0.0,0.445,0.0,0.0,0.0,0.6876,0.0,0.0,0.0,0.0,0.0,0.0,0.0,0.0,0.1579,0.1055,0.0372,0.0,0.0,0.0,0.0,0.0,0.0,0.0,0.0,0.0,0.0,0.0,0.0,0.0,0.0,0.0,0.0,0.0,0.0,0.0,0.0,0.0,0.0,0.0,0.0,0.0,0.0,0.0,0.0,0.0,0.0,0.0,0.0,0.0,0.0,0.0,0.0,0.0,0.0,0.0,0.0,0.0,0.0,0.0,0.0,0.0,0.0,0.0,0.0,0.0,0.0,0.0,0.0,0.0,0.0,0.0,0.0,0.0,0.0,0.0,0.0,0.0,0.0,0.0,0.0,0.0,0.0,0.0,0.0,0.0,0.0,0.0,0.0,0.0681,0.154,0.2524,0.3873,0.5403,0.6935,0.724,0.6014,0.5925,0.6159,0.6429,0.5033,0.5128,0.5291,0.4227,0.3944,0.3914,0.3914,0.3755,0.0,0.0,0.0,0.0,0.0,0.0,0.4429,0.0,0.4887,0.0,0.0,0.0,0.0,0.0,0.0,0.0,0.0,0.0,0.0,0.0689,0.025,0.0,0.0,0.0,0.0,0.0,0.0,0.0,0.0,0.0,0.0,0.0,0.0,0.0,0.0,0.0,0.0,0.0,0.0,0.0,0.0,0.0,0.0,0.0,0.0,0.0,0.0,0.0,0.0,0.0,0.0,0.0,0.0,0.0,0.0,0.0,0.0,0.0,0.0,0.0,0.0,0.0,0.0,0.0,0.0,0.0,0.0,0.0,0.0,0.0,0.0,0.0,0.0,0.0,0.0,0.0,0.0,0.0,0.0,0.0,0.0,0.0,0.0,0.0,0.0,0.0,0.0,0.0,0.0,0.0,0.0,0.0,0.0,0.0,0.0623,0.1798,0.2292,0.2843,0.3566,0.528,0.479,0.7307,0.7102,0.6962,0.5135,0.4823,0.4753,0.4132,0.4105,0.418,0.418,0.4334,0.4416,0.4227,0.395,0.0,0.0,0.0,0.0,0.0,0.0,0.0,0.0,0.0,0.0,0.0,0.0,0.0,0.0,0.0,0.0,0.2365,0.0883,0.0,0.0,0.0,0.0,0.0,0.0,0.0,0.0,0.0,0.0,0.0,0.0,0.0,0.0,0.0,0.0,0.0,0.0,0.0,0.0,0.0,0.0,0.0,0.0,0.0,0.0,0.0,0.0,0.0,0.0,0.0,0.0,0.0,0.0,0.0,0.0,0.0,0.0,0.0,0.0,0.0,0.0,0.0,0.0,0.0,0.0,0.0,0.0,0.0,0.0,0.0,0.0,0.0,0.0,0.0,0.0,0.0,0.0,0.0,0.0,0.0,0.0,0.0,0.0,0.0,0.0,0.0,0.0,0.0,0.0,0.0,0.0,0.0,0.0,0.0063,0.17,0.1688,0.0185,0.1848,0.2585,0.0,0.0,0.835,0.6293,0.6177,0.6125,0.4503,0.4335,0.4429,0.4132,0.4375,0.4504,0.4132,0.3927,0.0,0.0,0.0,0.0,0.0,0.0,0.0,0.0,0.0,0.0,0.0,0.0,0.0,0.0,0.0,0.0,0.0,0.0317,0.0,0.0,0.0,0.0,0.0,0.0,0.0,0.0,0.0,0.0,0.0,0.0,0.0,0.0,0.0,0.0,0.0,0.0,0.0,0.0,0.0,0.0,0.0,0.0,0.0,0.0,0.0,0.0,0.0,0.0,0.0,0.0,0.0,0.0,0.0,0.0,0.0,0.0,0.0,0.0,0.0,0.0,0.0,0.0,0.0,0.0,0.0,0.0,0.0,0.0,0.0,0.0,0.0,0.0,0.0,0.0,0.0,0.0,0.0,0.0,0.0,0.0,0.0,0.0,0.0,0.0,0.0,0.0,0.0,0.0,0.0,0.0,0.0,0.0,0.0,0.0571,0.0566,0.0,0.0558,0.0863,0.8791,0.9089,0.0,0.7248,0.7139,0.0,0.5177,0.5033,0.5139,0.4599,0.464,0.4782,0.4809,0.4389,0.0,0.0,0.0,0.0,0.0,0.2993,0.0,0.0,0.0,0.0,0.0,0.0,0.0,0.0,0.0,0.0,0.0,0.0,0.0,0.0,0.0,0.0,0.0,0.0,0.0,0.0,0.0,0.0,0.0,0.0,0.0,0.0,0.0,0.0,0.0,0.0,0.0,0.0,0.0,0.0,0.0,0.0,0.0,0.0,0.0,0.0,0.0,0.0,0.0,0.0,0.0,0.0,0.0,0.0,0.0,0.0,0.0,0.0,0.0,0.0,0.0,0.0,0.0,-0.0497,-0.0863,-0.0863,-0.0885,-0.0903,-0.0903,-0.0396,0.0,0.0,0.0,0.0,0.0,0.0,0.0,0.0,0.0,0.0,0.0,0.0,0.0,0.0,0.0,0.0,0.0,0.0,0.0,0.0,0.0,0.0,0.0,0.0,0.0,0.0,0.0,0.0]}]]